<?xml version="1.0" encoding="UTF-8" standalone="no" ?>
<gpx xmlns="http://www.topografix.com/GPX/1/1" xmlns:xsi="http://www.w3.org/2001/XMLSchema-instance" xsi:schemaLocation="http://www.topografix.com/GPX/1/1 http://www.topografix.com/GPX/1/1/gpx.xsd" version="1.1" creator="VisuGPX - https://www.visugpx.com">
  <metadata>
    <name>Les Herbiers</name>
    <desc><![CDATA[Belle sortie à la journée. Départ parking des Herbauges.]]></desc>
  </metadata>
  <trk>
    <name><![CDATA[2020-10-11 15:47:25]]></name>
    <trkseg>
      <trkpt lat="46.87035" lon="-1.01119">
        <ele>102.51999664307</ele>
        <time>2020-10-11T06:54:01Z</time>
      </trkpt>
      <trkpt lat="46.87037" lon="-1.01109">
        <ele>103</ele>
        <time>2020-10-11T07:01:17Z</time>
      </trkpt>
      <trkpt lat="46.87038" lon="-1.01091">
        <ele>103</ele>
        <time>2020-10-11T07:01:37Z</time>
      </trkpt>
      <trkpt lat="46.87045" lon="-1.01076">
        <ele>103</ele>
        <time>2020-10-11T07:01:46Z</time>
      </trkpt>
      <trkpt lat="46.8705" lon="-1.01064">
        <ele>103</ele>
        <time>2020-10-11T07:01:56Z</time>
      </trkpt>
      <trkpt lat="46.87061" lon="-1.01055">
        <ele>103</ele>
        <time>2020-10-11T07:02:14Z</time>
      </trkpt>
      <trkpt lat="46.87071" lon="-1.01048">
        <ele>103.48000335693</ele>
        <time>2020-10-11T07:02:23Z</time>
      </trkpt>
      <trkpt lat="46.87087" lon="-1.01045">
        <ele>103.48000335693</ele>
        <time>2020-10-11T07:02:34Z</time>
      </trkpt>
      <trkpt lat="46.87105" lon="-1.01037">
        <ele>103.48000335693</ele>
        <time>2020-10-11T07:02:51Z</time>
      </trkpt>
      <trkpt lat="46.87132" lon="-1.01023">
        <ele>102.04000091553</ele>
        <time>2020-10-11T07:03:10Z</time>
      </trkpt>
      <trkpt lat="46.87143" lon="-1.01011">
        <ele>102.04000091553</ele>
        <time>2020-10-11T07:03:24Z</time>
      </trkpt>
      <trkpt lat="46.87152" lon="-1.01009">
        <ele>103.48000335693</ele>
        <time>2020-10-11T07:03:32Z</time>
      </trkpt>
      <trkpt lat="46.87162" lon="-1.01009">
        <ele>103.95999908447</ele>
        <time>2020-10-11T07:03:41Z</time>
      </trkpt>
      <trkpt lat="46.87174" lon="-1.01007">
        <ele>103.95999908447</ele>
        <time>2020-10-11T07:03:50Z</time>
      </trkpt>
      <trkpt lat="46.87183" lon="-1.01005">
        <ele>104.91999816894</ele>
        <time>2020-10-11T07:03:58Z</time>
      </trkpt>
      <trkpt lat="46.87193" lon="-1.01004">
        <ele>104.91999816894</ele>
        <time>2020-10-11T07:04:06Z</time>
      </trkpt>
      <trkpt lat="46.87204" lon="-1.01003">
        <ele>105.40000152588</ele>
        <time>2020-10-11T07:04:15Z</time>
      </trkpt>
      <trkpt lat="46.87213" lon="-1.01001">
        <ele>106.36000061035</ele>
        <time>2020-10-11T07:04:22Z</time>
      </trkpt>
      <trkpt lat="46.87223" lon="-1.01">
        <ele>106.36000061035</ele>
        <time>2020-10-11T07:04:30Z</time>
      </trkpt>
      <trkpt lat="46.87232" lon="-1.01001">
        <ele>106.83999633789</ele>
        <time>2020-10-11T07:04:42Z</time>
      </trkpt>
      <trkpt lat="46.87241" lon="-1.01006">
        <ele>108.29000091553</ele>
        <time>2020-10-11T07:04:51Z</time>
      </trkpt>
      <trkpt lat="46.87252" lon="-1.01007">
        <ele>109.25</ele>
        <time>2020-10-11T07:05:02Z</time>
      </trkpt>
      <trkpt lat="46.87265" lon="-1.01005">
        <ele>110.69000244141</ele>
        <time>2020-10-11T07:05:11Z</time>
      </trkpt>
      <trkpt lat="46.87273" lon="-1.00998">
        <ele>111.16999816894</ele>
        <time>2020-10-11T07:05:19Z</time>
      </trkpt>
      <trkpt lat="46.87279" lon="-1.00987">
        <ele>112.61000061035</ele>
        <time>2020-10-11T07:05:28Z</time>
      </trkpt>
      <trkpt lat="46.87288" lon="-1.00977">
        <ele>113.56999969482</ele>
        <time>2020-10-11T07:05:39Z</time>
      </trkpt>
      <trkpt lat="46.87318" lon="-1.00931">
        <ele>117.41999816894</ele>
        <time>2020-10-11T07:06:20Z</time>
      </trkpt>
      <trkpt lat="46.87334" lon="-1.00904">
        <ele>118.86000061035</ele>
        <time>2020-10-11T07:06:37Z</time>
      </trkpt>
      <trkpt lat="46.87359" lon="-1.00864">
        <ele>121.26000213623</ele>
        <time>2020-10-11T07:07:12Z</time>
      </trkpt>
      <trkpt lat="46.8737" lon="-1.00845">
        <ele>121.73999786377</ele>
        <time>2020-10-11T07:07:27Z</time>
      </trkpt>
      <trkpt lat="46.87376" lon="-1.0083">
        <ele>122.70999908447</ele>
        <time>2020-10-11T07:07:36Z</time>
      </trkpt>
      <trkpt lat="46.87392" lon="-1.00801">
        <ele>123.66999816894</ele>
        <time>2020-10-11T07:07:55Z</time>
      </trkpt>
      <trkpt lat="46.87401" lon="-1.00793">
        <ele>125.11000061035</ele>
        <time>2020-10-11T07:08:06Z</time>
      </trkpt>
      <trkpt lat="46.87412" lon="-1.0078">
        <ele>126.06999969482</ele>
        <time>2020-10-11T07:08:19Z</time>
      </trkpt>
      <trkpt lat="46.87423" lon="-1.00765">
        <ele>126.55000305176</ele>
        <time>2020-10-11T07:08:29Z</time>
      </trkpt>
      <trkpt lat="46.87431" lon="-1.00749">
        <ele>127.98999786377</ele>
        <time>2020-10-11T07:08:39Z</time>
      </trkpt>
      <trkpt lat="46.87444" lon="-1.00728">
        <ele>128.94999694824</ele>
        <time>2020-10-11T07:08:57Z</time>
      </trkpt>
      <trkpt lat="46.87444" lon="-1.00709">
        <ele>128.4700012207</ele>
        <time>2020-10-11T07:09:06Z</time>
      </trkpt>
      <trkpt lat="46.87449" lon="-1.00687">
        <ele>129.42999267578</ele>
        <time>2020-10-11T07:13:20Z</time>
      </trkpt>
      <trkpt lat="46.87462" lon="-1.00782">
        <ele>130.39999389648</ele>
        <time>2020-10-11T07:16:17Z</time>
      </trkpt>
      <trkpt lat="46.87465" lon="-1.00797">
        <ele>130.39999389648</ele>
        <time>2020-10-11T07:16:27Z</time>
      </trkpt>
      <trkpt lat="46.87473" lon="-1.00817">
        <ele>130.39999389648</ele>
        <time>2020-10-11T07:16:39Z</time>
      </trkpt>
      <trkpt lat="46.87479" lon="-1.0084">
        <ele>130.39999389648</ele>
        <time>2020-10-11T07:16:52Z</time>
      </trkpt>
      <trkpt lat="46.87497" lon="-1.00846">
        <ele>130.39999389648</ele>
        <time>2020-10-11T07:17:17Z</time>
      </trkpt>
      <trkpt lat="46.87516" lon="-1.00821">
        <ele>130.39999389648</ele>
        <time>2020-10-11T07:17:35Z</time>
      </trkpt>
      <trkpt lat="46.87529" lon="-1.00806">
        <ele>130.39999389648</ele>
        <time>2020-10-11T07:17:45Z</time>
      </trkpt>
      <trkpt lat="46.87537" lon="-1.00791">
        <ele>130.39999389648</ele>
        <time>2020-10-11T07:17:55Z</time>
      </trkpt>
      <trkpt lat="46.87546" lon="-1.00776">
        <ele>130.39999389648</ele>
        <time>2020-10-11T07:18:05Z</time>
      </trkpt>
      <trkpt lat="46.87572" lon="-1.00762">
        <ele>128.94999694824</ele>
        <time>2020-10-11T07:18:32Z</time>
      </trkpt>
      <trkpt lat="46.87584" lon="-1.00754">
        <ele>128.94999694824</ele>
        <time>2020-10-11T07:18:41Z</time>
      </trkpt>
      <trkpt lat="46.87594" lon="-1.00749">
        <ele>128.4700012207</ele>
        <time>2020-10-11T07:18:48Z</time>
      </trkpt>
      <trkpt lat="46.87605" lon="-1.00742">
        <ele>127.98999786377</ele>
        <time>2020-10-11T07:18:56Z</time>
      </trkpt>
      <trkpt lat="46.87615" lon="-1.00735">
        <ele>127.98999786377</ele>
        <time>2020-10-11T07:19:04Z</time>
      </trkpt>
      <trkpt lat="46.87626" lon="-1.00727">
        <ele>127.98999786377</ele>
        <time>2020-10-11T07:19:13Z</time>
      </trkpt>
      <trkpt lat="46.87636" lon="-1.00722">
        <ele>127.98999786377</ele>
        <time>2020-10-11T07:19:21Z</time>
      </trkpt>
      <trkpt lat="46.87649" lon="-1.00728">
        <ele>127.98999786377</ele>
        <time>2020-10-11T07:19:32Z</time>
      </trkpt>
      <trkpt lat="46.87652" lon="-1.00745">
        <ele>127.98999786377</ele>
        <time>2020-10-11T07:19:43Z</time>
      </trkpt>
      <trkpt lat="46.87653" lon="-1.00775">
        <ele>127.98999786377</ele>
        <time>2020-10-11T07:20:00Z</time>
      </trkpt>
      <trkpt lat="46.87663" lon="-1.00827">
        <ele>129.42999267578</ele>
        <time>2020-10-11T07:20:29Z</time>
      </trkpt>
      <trkpt lat="46.87676" lon="-1.00822">
        <ele>129.42999267578</ele>
        <time>2020-10-11T07:20:41Z</time>
      </trkpt>
      <trkpt lat="46.87683" lon="-1.00813">
        <ele>129.91999816894</ele>
        <time>2020-10-11T07:20:49Z</time>
      </trkpt>
      <trkpt lat="46.87692" lon="-1.00804">
        <ele>129.91999816894</ele>
        <time>2020-10-11T07:20:57Z</time>
      </trkpt>
      <trkpt lat="46.87702" lon="-1.00801">
        <ele>129.91999816894</ele>
        <time>2020-10-11T07:21:05Z</time>
      </trkpt>
      <trkpt lat="46.87713" lon="-1.00802">
        <ele>129.91999816894</ele>
        <time>2020-10-11T07:21:13Z</time>
      </trkpt>
      <trkpt lat="46.87724" lon="-1.00799">
        <ele>130.39999389648</ele>
        <time>2020-10-11T07:21:22Z</time>
      </trkpt>
      <trkpt lat="46.87734" lon="-1.00795">
        <ele>130.39999389648</ele>
        <time>2020-10-11T07:21:30Z</time>
      </trkpt>
      <trkpt lat="46.87745" lon="-1.0079">
        <ele>130.88000488281</ele>
        <time>2020-10-11T07:21:38Z</time>
      </trkpt>
      <trkpt lat="46.87756" lon="-1.00784">
        <ele>131.36000061035</ele>
        <time>2020-10-11T07:21:47Z</time>
      </trkpt>
      <trkpt lat="46.87761" lon="-1.00772">
        <ele>131.36000061035</ele>
        <time>2020-10-11T07:21:56Z</time>
      </trkpt>
      <trkpt lat="46.87762" lon="-1.00758">
        <ele>131.36000061035</ele>
        <time>2020-10-11T07:22:05Z</time>
      </trkpt>
      <trkpt lat="46.8776" lon="-1.00743">
        <ele>131.36000061035</ele>
        <time>2020-10-11T07:22:14Z</time>
      </trkpt>
      <trkpt lat="46.87757" lon="-1.00728">
        <ele>131.36000061035</ele>
        <time>2020-10-11T07:22:22Z</time>
      </trkpt>
      <trkpt lat="46.87758" lon="-1.00712">
        <ele>130.39999389648</ele>
        <time>2020-10-11T07:22:31Z</time>
      </trkpt>
      <trkpt lat="46.87765" lon="-1.00704">
        <ele>130.39999389648</ele>
        <time>2020-10-11T07:22:39Z</time>
      </trkpt>
      <trkpt lat="46.87771" lon="-1.00694">
        <ele>130.39999389648</ele>
        <time>2020-10-11T07:22:47Z</time>
      </trkpt>
      <trkpt lat="46.87772" lon="-1.00679">
        <ele>130.39999389648</ele>
        <time>2020-10-11T07:22:55Z</time>
      </trkpt>
      <trkpt lat="46.87769" lon="-1.00664">
        <ele>130.39999389648</ele>
        <time>2020-10-11T07:23:02Z</time>
      </trkpt>
      <trkpt lat="46.87766" lon="-1.0065">
        <ele>130.39999389648</ele>
        <time>2020-10-11T07:23:11Z</time>
      </trkpt>
      <trkpt lat="46.87763" lon="-1.00635">
        <ele>129.91999816894</ele>
        <time>2020-10-11T07:23:19Z</time>
      </trkpt>
      <trkpt lat="46.87758" lon="-1.00622">
        <ele>129.91999816894</ele>
        <time>2020-10-11T07:23:27Z</time>
      </trkpt>
      <trkpt lat="46.87754" lon="-1.00601">
        <ele>129.42999267578</ele>
        <time>2020-10-11T07:23:40Z</time>
      </trkpt>
      <trkpt lat="46.87749" lon="-1.00586">
        <ele>129.42999267578</ele>
        <time>2020-10-11T07:23:49Z</time>
      </trkpt>
      <trkpt lat="46.87744" lon="-1.00572">
        <ele>129.42999267578</ele>
        <time>2020-10-11T07:23:58Z</time>
      </trkpt>
      <trkpt lat="46.87739" lon="-1.00559">
        <ele>129.42999267578</ele>
        <time>2020-10-11T07:24:06Z</time>
      </trkpt>
      <trkpt lat="46.87731" lon="-1.00547">
        <ele>128.4700012207</ele>
        <time>2020-10-11T07:24:14Z</time>
      </trkpt>
      <trkpt lat="46.87725" lon="-1.00533">
        <ele>127.51000213623</ele>
        <time>2020-10-11T07:24:22Z</time>
      </trkpt>
      <trkpt lat="46.87721" lon="-1.00519">
        <ele>126.55000305176</ele>
        <time>2020-10-11T07:24:30Z</time>
      </trkpt>
      <trkpt lat="46.87716" lon="-1.00507">
        <ele>125.58999633789</ele>
        <time>2020-10-11T07:24:38Z</time>
      </trkpt>
      <trkpt lat="46.87711" lon="-1.00494">
        <ele>125.58999633789</ele>
        <time>2020-10-11T07:24:45Z</time>
      </trkpt>
      <trkpt lat="46.87706" lon="-1.00482">
        <ele>125.58999633789</ele>
        <time>2020-10-11T07:24:52Z</time>
      </trkpt>
      <trkpt lat="46.87701" lon="-1.00468">
        <ele>125.58999633789</ele>
        <time>2020-10-11T07:25:00Z</time>
      </trkpt>
      <trkpt lat="46.87697" lon="-1.00455">
        <ele>125.58999633789</ele>
        <time>2020-10-11T07:25:08Z</time>
      </trkpt>
      <trkpt lat="46.87692" lon="-1.00442">
        <ele>125.58999633789</ele>
        <time>2020-10-11T07:25:15Z</time>
      </trkpt>
      <trkpt lat="46.87688" lon="-1.00428">
        <ele>127.0299987793</ele>
        <time>2020-10-11T07:25:22Z</time>
      </trkpt>
      <trkpt lat="46.87684" lon="-1.00415">
        <ele>127.0299987793</ele>
        <time>2020-10-11T07:25:30Z</time>
      </trkpt>
      <trkpt lat="46.8768" lon="-1.00401">
        <ele>127.51000213623</ele>
        <time>2020-10-11T07:25:37Z</time>
      </trkpt>
      <trkpt lat="46.87679" lon="-1.00386">
        <ele>127.98999786377</ele>
        <time>2020-10-11T07:25:44Z</time>
      </trkpt>
      <trkpt lat="46.87677" lon="-1.00372">
        <ele>127.98999786377</ele>
        <time>2020-10-11T07:25:52Z</time>
      </trkpt>
      <trkpt lat="46.87668" lon="-1.00366">
        <ele>127.98999786377</ele>
        <time>2020-10-11T07:26:02Z</time>
      </trkpt>
      <trkpt lat="46.87659" lon="-1.00367">
        <ele>126.55000305176</ele>
        <time>2020-10-11T07:26:09Z</time>
      </trkpt>
      <trkpt lat="46.87649" lon="-1.00367">
        <ele>125.58999633789</ele>
        <time>2020-10-11T07:26:17Z</time>
      </trkpt>
      <trkpt lat="46.87639" lon="-1.00367">
        <ele>124.62999725342</ele>
        <time>2020-10-11T07:26:26Z</time>
      </trkpt>
      <trkpt lat="46.87628" lon="-1.00354">
        <ele>123.19000244141</ele>
        <time>2020-10-11T07:26:45Z</time>
      </trkpt>
      <trkpt lat="46.87622" lon="-1.00342">
        <ele>122.70999908447</ele>
        <time>2020-10-11T07:26:53Z</time>
      </trkpt>
      <trkpt lat="46.87614" lon="-1.0033">
        <ele>122.2200012207</ele>
        <time>2020-10-11T07:27:00Z</time>
      </trkpt>
      <trkpt lat="46.87606" lon="-1.00321">
        <ele>121.73999786377</ele>
        <time>2020-10-11T07:27:07Z</time>
      </trkpt>
      <trkpt lat="46.87597" lon="-1.00317">
        <ele>121.26000213623</ele>
        <time>2020-10-11T07:27:14Z</time>
      </trkpt>
      <trkpt lat="46.87587" lon="-1.00317">
        <ele>120.30000305176</ele>
        <time>2020-10-11T07:27:22Z</time>
      </trkpt>
      <trkpt lat="46.87577" lon="-1.00316">
        <ele>119.33999633789</ele>
        <time>2020-10-11T07:27:30Z</time>
      </trkpt>
      <trkpt lat="46.87568" lon="-1.00311">
        <ele>117.90000152588</ele>
        <time>2020-10-11T07:27:38Z</time>
      </trkpt>
      <trkpt lat="46.87564" lon="-1.00297">
        <ele>117.90000152588</ele>
        <time>2020-10-11T07:27:46Z</time>
      </trkpt>
      <trkpt lat="46.8756" lon="-1.00282">
        <ele>117.90000152588</ele>
        <time>2020-10-11T07:27:54Z</time>
      </trkpt>
      <trkpt lat="46.87557" lon="-1.0027">
        <ele>117.41999816894</ele>
        <time>2020-10-11T07:28:01Z</time>
      </trkpt>
      <trkpt lat="46.87553" lon="-1.00256">
        <ele>116.94000244141</ele>
        <time>2020-10-11T07:28:09Z</time>
      </trkpt>
      <trkpt lat="46.8755" lon="-1.00241">
        <ele>116.94000244141</ele>
        <time>2020-10-11T07:28:17Z</time>
      </trkpt>
      <trkpt lat="46.8755" lon="-1.00226">
        <ele>117.41999816894</ele>
        <time>2020-10-11T07:28:27Z</time>
      </trkpt>
      <trkpt lat="46.87551" lon="-1.0021">
        <ele>117.41999816894</ele>
        <time>2020-10-11T07:28:36Z</time>
      </trkpt>
      <trkpt lat="46.87553" lon="-1.00196">
        <ele>117.41999816894</ele>
        <time>2020-10-11T07:28:44Z</time>
      </trkpt>
      <trkpt lat="46.87555" lon="-1.0018">
        <ele>117.41999816894</ele>
        <time>2020-10-11T07:28:53Z</time>
      </trkpt>
      <trkpt lat="46.87557" lon="-1.0016">
        <ele>117.41999816894</ele>
        <time>2020-10-11T07:29:12Z</time>
      </trkpt>
      <trkpt lat="46.87558" lon="-1.00146">
        <ele>117.41999816894</ele>
        <time>2020-10-11T07:29:20Z</time>
      </trkpt>
      <trkpt lat="46.8756" lon="-1.00132">
        <ele>116.94000244141</ele>
        <time>2020-10-11T07:29:29Z</time>
      </trkpt>
      <trkpt lat="46.87564" lon="-1.00121">
        <ele>116.94000244141</ele>
        <time>2020-10-11T07:29:37Z</time>
      </trkpt>
      <trkpt lat="46.87569" lon="-1.00107">
        <ele>116.94000244141</ele>
        <time>2020-10-11T07:29:45Z</time>
      </trkpt>
      <trkpt lat="46.87573" lon="-1.00092">
        <ele>116.94000244141</ele>
        <time>2020-10-11T07:29:54Z</time>
      </trkpt>
      <trkpt lat="46.8757" lon="-1.00077">
        <ele>116.94000244141</ele>
        <time>2020-10-11T07:30:03Z</time>
      </trkpt>
      <trkpt lat="46.87563" lon="-1.00067">
        <ele>115.98000335693</ele>
        <time>2020-10-11T07:30:13Z</time>
      </trkpt>
      <trkpt lat="46.87553" lon="-1.00061">
        <ele>115.5</ele>
        <time>2020-10-11T07:30:22Z</time>
      </trkpt>
      <trkpt lat="46.87545" lon="-1.00036">
        <ele>114.05000305176</ele>
        <time>2020-10-11T07:30:40Z</time>
      </trkpt>
      <trkpt lat="46.87538" lon="-1.00002">
        <ele>112.12999725342</ele>
        <time>2020-10-11T07:31:51Z</time>
      </trkpt>
      <trkpt lat="46.87498" lon="-1.00028">
        <ele>110.69000244141</ele>
        <time>2020-10-11T07:32:25Z</time>
      </trkpt>
      <trkpt lat="46.87481" lon="-1.00026">
        <ele>110.69000244141</ele>
        <time>2020-10-11T07:32:35Z</time>
      </trkpt>
      <trkpt lat="46.87487" lon="-1.00006">
        <ele>111.65000152588</ele>
        <time>2020-10-11T07:33:11Z</time>
      </trkpt>
      <trkpt lat="46.87495" lon="-1.00001">
        <ele>111.65000152588</ele>
        <time>2020-10-11T07:33:21Z</time>
      </trkpt>
      <trkpt lat="46.87494" lon="-0.99987">
        <ele>111.65000152588</ele>
        <time>2020-10-11T07:33:31Z</time>
      </trkpt>
      <trkpt lat="46.87487" lon="-0.99975">
        <ele>112.12999725342</ele>
        <time>2020-10-11T07:33:40Z</time>
      </trkpt>
      <trkpt lat="46.8747" lon="-0.99951">
        <ele>112.61000061035</ele>
        <time>2020-10-11T07:34:01Z</time>
      </trkpt>
      <trkpt lat="46.87459" lon="-0.99937">
        <ele>114.05000305176</ele>
        <time>2020-10-11T07:34:14Z</time>
      </trkpt>
      <trkpt lat="46.87428" lon="-0.99914">
        <ele>118.37999725342</ele>
        <time>2020-10-11T07:34:50Z</time>
      </trkpt>
      <trkpt lat="46.87416" lon="-0.99918">
        <ele>119.33999633789</ele>
        <time>2020-10-11T07:35:02Z</time>
      </trkpt>
      <trkpt lat="46.87407" lon="-0.99896">
        <ele>121.26000213623</ele>
        <time>2020-10-11T07:35:25Z</time>
      </trkpt>
      <trkpt lat="46.87411" lon="-0.99881">
        <ele>122.2200012207</ele>
        <time>2020-10-11T07:35:36Z</time>
      </trkpt>
      <trkpt lat="46.87416" lon="-0.99851">
        <ele>122.70999908447</ele>
        <time>2020-10-11T07:35:57Z</time>
      </trkpt>
      <trkpt lat="46.87419" lon="-0.99831">
        <ele>123.19000244141</ele>
        <time>2020-10-11T07:36:05Z</time>
      </trkpt>
      <trkpt lat="46.87418" lon="-0.99815">
        <ele>123.19000244141</ele>
        <time>2020-10-11T07:36:15Z</time>
      </trkpt>
      <trkpt lat="46.87415" lon="-0.99799">
        <ele>123.66999816894</ele>
        <time>2020-10-11T07:36:25Z</time>
      </trkpt>
      <trkpt lat="46.87412" lon="-0.99781">
        <ele>124.15000152588</ele>
        <time>2020-10-11T07:36:34Z</time>
      </trkpt>
      <trkpt lat="46.87417" lon="-0.99766">
        <ele>125.58999633789</ele>
        <time>2020-10-11T07:36:44Z</time>
      </trkpt>
      <trkpt lat="46.87417" lon="-0.9975">
        <ele>125.58999633789</ele>
        <time>2020-10-11T07:36:54Z</time>
      </trkpt>
      <trkpt lat="46.87418" lon="-0.99732">
        <ele>126.06999969482</ele>
        <time>2020-10-11T07:37:03Z</time>
      </trkpt>
      <trkpt lat="46.87425" lon="-0.99721">
        <ele>126.55000305176</ele>
        <time>2020-10-11T07:37:13Z</time>
      </trkpt>
      <trkpt lat="46.87434" lon="-0.99716">
        <ele>126.55000305176</ele>
        <time>2020-10-11T07:37:23Z</time>
      </trkpt>
      <trkpt lat="46.87441" lon="-0.99709">
        <ele>126.55000305176</ele>
        <time>2020-10-11T07:37:33Z</time>
      </trkpt>
      <trkpt lat="46.87457" lon="-0.99696">
        <ele>123.66999816894</ele>
        <time>2020-10-11T07:37:55Z</time>
      </trkpt>
      <trkpt lat="46.87463" lon="-0.99684">
        <ele>123.19000244141</ele>
        <time>2020-10-11T07:38:04Z</time>
      </trkpt>
      <trkpt lat="46.8747" lon="-0.9967">
        <ele>123.19000244141</ele>
        <time>2020-10-11T07:38:14Z</time>
      </trkpt>
      <trkpt lat="46.87477" lon="-0.99657">
        <ele>123.19000244141</ele>
        <time>2020-10-11T07:38:23Z</time>
      </trkpt>
      <trkpt lat="46.87483" lon="-0.99647">
        <ele>123.19000244141</ele>
        <time>2020-10-11T07:38:32Z</time>
      </trkpt>
      <trkpt lat="46.87489" lon="-0.99632">
        <ele>124.62999725342</ele>
        <time>2020-10-11T07:38:41Z</time>
      </trkpt>
      <trkpt lat="46.87495" lon="-0.99618">
        <ele>124.62999725342</ele>
        <time>2020-10-11T07:38:51Z</time>
      </trkpt>
      <trkpt lat="46.87503" lon="-0.99604">
        <ele>124.62999725342</ele>
        <time>2020-10-11T07:39:02Z</time>
      </trkpt>
      <trkpt lat="46.87513" lon="-0.9959">
        <ele>125.58999633789</ele>
        <time>2020-10-11T07:39:21Z</time>
      </trkpt>
      <trkpt lat="46.8752" lon="-0.99581">
        <ele>125.58999633789</ele>
        <time>2020-10-11T07:39:30Z</time>
      </trkpt>
      <trkpt lat="46.87527" lon="-0.99569">
        <ele>125.58999633789</ele>
        <time>2020-10-11T07:39:40Z</time>
      </trkpt>
      <trkpt lat="46.87534" lon="-0.99556">
        <ele>126.55000305176</ele>
        <time>2020-10-11T07:39:49Z</time>
      </trkpt>
      <trkpt lat="46.87542" lon="-0.99544">
        <ele>126.55000305176</ele>
        <time>2020-10-11T07:39:57Z</time>
      </trkpt>
      <trkpt lat="46.87548" lon="-0.99534">
        <ele>127.0299987793</ele>
        <time>2020-10-11T07:40:05Z</time>
      </trkpt>
      <trkpt lat="46.87555" lon="-0.99523">
        <ele>127.98999786377</ele>
        <time>2020-10-11T07:40:13Z</time>
      </trkpt>
      <trkpt lat="46.87563" lon="-0.99514">
        <ele>128.4700012207</ele>
        <time>2020-10-11T07:40:21Z</time>
      </trkpt>
      <trkpt lat="46.87572" lon="-0.99504">
        <ele>128.94999694824</ele>
        <time>2020-10-11T07:40:28Z</time>
      </trkpt>
      <trkpt lat="46.8758" lon="-0.99495">
        <ele>129.42999267578</ele>
        <time>2020-10-11T07:40:36Z</time>
      </trkpt>
      <trkpt lat="46.87589" lon="-0.99486">
        <ele>129.91999816894</ele>
        <time>2020-10-11T07:40:44Z</time>
      </trkpt>
      <trkpt lat="46.876" lon="-0.99479">
        <ele>130.39999389648</ele>
        <time>2020-10-11T07:40:53Z</time>
      </trkpt>
      <trkpt lat="46.87609" lon="-0.99472">
        <ele>130.88000488281</ele>
        <time>2020-10-11T07:41:01Z</time>
      </trkpt>
      <trkpt lat="46.87619" lon="-0.99463">
        <ele>131.83999633789</ele>
        <time>2020-10-11T07:41:11Z</time>
      </trkpt>
      <trkpt lat="46.8763" lon="-0.99457">
        <ele>133.2799987793</ele>
        <time>2020-10-11T07:41:20Z</time>
      </trkpt>
      <trkpt lat="46.8764" lon="-0.99451">
        <ele>134.7200012207</ele>
        <time>2020-10-11T07:41:30Z</time>
      </trkpt>
      <trkpt lat="46.87651" lon="-0.99446">
        <ele>135.67999267578</ele>
        <time>2020-10-11T07:41:39Z</time>
      </trkpt>
      <trkpt lat="46.87661" lon="-0.9944">
        <ele>135.67999267578</ele>
        <time>2020-10-11T07:41:47Z</time>
      </trkpt>
      <trkpt lat="46.8767" lon="-0.99436">
        <ele>135.67999267578</ele>
        <time>2020-10-11T07:41:55Z</time>
      </trkpt>
      <trkpt lat="46.87681" lon="-0.99432">
        <ele>136.16000366211</ele>
        <time>2020-10-11T07:42:03Z</time>
      </trkpt>
      <trkpt lat="46.87691" lon="-0.99429">
        <ele>136.16000366211</ele>
        <time>2020-10-11T07:42:11Z</time>
      </trkpt>
      <trkpt lat="46.87701" lon="-0.99427">
        <ele>136.63999938965</ele>
        <time>2020-10-11T07:42:19Z</time>
      </trkpt>
      <trkpt lat="46.87712" lon="-0.99427">
        <ele>136.63999938965</ele>
        <time>2020-10-11T07:42:28Z</time>
      </trkpt>
      <trkpt lat="46.87722" lon="-0.99426">
        <ele>136.63999938965</ele>
        <time>2020-10-11T07:42:36Z</time>
      </trkpt>
      <trkpt lat="46.87733" lon="-0.99425">
        <ele>136.63999938965</ele>
        <time>2020-10-11T07:42:46Z</time>
      </trkpt>
      <trkpt lat="46.87745" lon="-0.99422">
        <ele>137.13000488281</ele>
        <time>2020-10-11T07:42:55Z</time>
      </trkpt>
      <trkpt lat="46.87756" lon="-0.9942">
        <ele>137.13000488281</ele>
        <time>2020-10-11T07:43:04Z</time>
      </trkpt>
      <trkpt lat="46.87765" lon="-0.99417">
        <ele>137.61000061035</ele>
        <time>2020-10-11T07:43:12Z</time>
      </trkpt>
      <trkpt lat="46.87774" lon="-0.99412">
        <ele>137.61000061035</ele>
        <time>2020-10-11T07:43:21Z</time>
      </trkpt>
      <trkpt lat="46.87785" lon="-0.99406">
        <ele>137.61000061035</ele>
        <time>2020-10-11T07:43:31Z</time>
      </trkpt>
      <trkpt lat="46.87797" lon="-0.99388">
        <ele>138.08999633789</ele>
        <time>2020-10-11T07:43:54Z</time>
      </trkpt>
      <trkpt lat="46.87807" lon="-0.99358">
        <ele>138.57000732422</ele>
        <time>2020-10-11T07:44:27Z</time>
      </trkpt>
      <trkpt lat="46.87808" lon="-0.99339">
        <ele>139.05000305176</ele>
        <time>2020-10-11T07:44:38Z</time>
      </trkpt>
      <trkpt lat="46.87812" lon="-0.99291">
        <ele>139.5299987793</ele>
        <time>2020-10-11T07:45:07Z</time>
      </trkpt>
      <trkpt lat="46.87817" lon="-0.99263">
        <ele>139.5299987793</ele>
        <time>2020-10-11T07:45:21Z</time>
      </trkpt>
      <trkpt lat="46.87821" lon="-0.99244">
        <ele>139.5299987793</ele>
        <time>2020-10-11T07:45:32Z</time>
      </trkpt>
      <trkpt lat="46.87827" lon="-0.99213">
        <ele>140.00999450684</ele>
        <time>2020-10-11T07:45:53Z</time>
      </trkpt>
      <trkpt lat="46.87832" lon="-0.9919">
        <ele>140.00999450684</ele>
        <time>2020-10-11T07:46:05Z</time>
      </trkpt>
      <trkpt lat="46.87844" lon="-0.9916">
        <ele>140.9700012207</ele>
        <time>2020-10-11T07:46:24Z</time>
      </trkpt>
      <trkpt lat="46.87853" lon="-0.99145">
        <ele>140.9700012207</ele>
        <time>2020-10-11T07:46:33Z</time>
      </trkpt>
      <trkpt lat="46.87864" lon="-0.99131">
        <ele>141.44999694824</ele>
        <time>2020-10-11T07:46:46Z</time>
      </trkpt>
      <trkpt lat="46.87876" lon="-0.99122">
        <ele>141.92999267578</ele>
        <time>2020-10-11T07:46:56Z</time>
      </trkpt>
      <trkpt lat="46.87887" lon="-0.99112">
        <ele>142.41000366211</ele>
        <time>2020-10-11T07:47:07Z</time>
      </trkpt>
      <trkpt lat="46.87898" lon="-0.99101">
        <ele>142.88999938965</ele>
        <time>2020-10-11T07:47:17Z</time>
      </trkpt>
      <trkpt lat="46.87909" lon="-0.99089">
        <ele>142.88999938965</ele>
        <time>2020-10-11T07:47:27Z</time>
      </trkpt>
      <trkpt lat="46.87922" lon="-0.99074">
        <ele>143.36999511719</ele>
        <time>2020-10-11T07:47:40Z</time>
      </trkpt>
      <trkpt lat="46.87932" lon="-0.99064">
        <ele>144.33999633789</ele>
        <time>2020-10-11T07:47:52Z</time>
      </trkpt>
      <trkpt lat="46.87942" lon="-0.99058">
        <ele>145.30000305176</ele>
        <time>2020-10-11T07:48:03Z</time>
      </trkpt>
      <trkpt lat="46.8795" lon="-0.99049">
        <ele>146.25999450684</ele>
        <time>2020-10-11T07:48:12Z</time>
      </trkpt>
      <trkpt lat="46.87957" lon="-0.99038">
        <ele>147.2200012207</ele>
        <time>2020-10-11T07:48:21Z</time>
      </trkpt>
      <trkpt lat="46.87964" lon="-0.99025">
        <ele>147.2200012207</ele>
        <time>2020-10-11T07:48:30Z</time>
      </trkpt>
      <trkpt lat="46.87969" lon="-0.99012">
        <ele>148.17999267578</ele>
        <time>2020-10-11T07:48:39Z</time>
      </trkpt>
      <trkpt lat="46.87977" lon="-0.99001">
        <ele>148.17999267578</ele>
        <time>2020-10-11T07:48:48Z</time>
      </trkpt>
      <trkpt lat="46.87984" lon="-0.9899">
        <ele>148.17999267578</ele>
        <time>2020-10-11T07:48:58Z</time>
      </trkpt>
      <trkpt lat="46.87994" lon="-0.98979">
        <ele>148.66000366211</ele>
        <time>2020-10-11T07:49:08Z</time>
      </trkpt>
      <trkpt lat="46.88005" lon="-0.98969">
        <ele>149.13999938965</ele>
        <time>2020-10-11T07:49:18Z</time>
      </trkpt>
      <trkpt lat="46.88013" lon="-0.98958">
        <ele>149.13999938965</ele>
        <time>2020-10-11T07:49:28Z</time>
      </trkpt>
      <trkpt lat="46.88022" lon="-0.98946">
        <ele>149.61999511719</ele>
        <time>2020-10-11T07:49:37Z</time>
      </trkpt>
      <trkpt lat="46.8803" lon="-0.98933">
        <ele>150.10000610352</ele>
        <time>2020-10-11T07:49:47Z</time>
      </trkpt>
      <trkpt lat="46.88036" lon="-0.98919">
        <ele>150.10000610352</ele>
        <time>2020-10-11T07:49:56Z</time>
      </trkpt>
      <trkpt lat="46.88046" lon="-0.98903">
        <ele>151.05999755859</ele>
        <time>2020-10-11T07:50:05Z</time>
      </trkpt>
      <trkpt lat="46.88052" lon="-0.98888">
        <ele>152.0299987793</ele>
        <time>2020-10-11T07:50:16Z</time>
      </trkpt>
      <trkpt lat="46.88058" lon="-0.98873">
        <ele>152.50999450684</ele>
        <time>2020-10-11T07:50:26Z</time>
      </trkpt>
      <trkpt lat="46.88065" lon="-0.98858">
        <ele>153.4700012207</ele>
        <time>2020-10-11T07:50:36Z</time>
      </trkpt>
      <trkpt lat="46.8807" lon="-0.98842">
        <ele>154.42999267578</ele>
        <time>2020-10-11T07:50:46Z</time>
      </trkpt>
      <trkpt lat="46.88078" lon="-0.98829">
        <ele>155.86999511719</ele>
        <time>2020-10-11T07:50:56Z</time>
      </trkpt>
      <trkpt lat="46.88084" lon="-0.98816">
        <ele>156.83000183106</ele>
        <time>2020-10-11T07:51:06Z</time>
      </trkpt>
      <trkpt lat="46.88091" lon="-0.988">
        <ele>158.75</ele>
        <time>2020-10-11T07:51:16Z</time>
      </trkpt>
      <trkpt lat="46.88097" lon="-0.98788">
        <ele>159.24000549316</ele>
        <time>2020-10-11T07:51:25Z</time>
      </trkpt>
      <trkpt lat="46.88102" lon="-0.98775">
        <ele>159.7200012207</ele>
        <time>2020-10-11T07:51:33Z</time>
      </trkpt>
      <trkpt lat="46.88107" lon="-0.9876">
        <ele>159.7200012207</ele>
        <time>2020-10-11T07:51:42Z</time>
      </trkpt>
      <trkpt lat="46.88111" lon="-0.98745">
        <ele>159.7200012207</ele>
        <time>2020-10-11T07:51:50Z</time>
      </trkpt>
      <trkpt lat="46.88115" lon="-0.98731">
        <ele>159.7200012207</ele>
        <time>2020-10-11T07:51:58Z</time>
      </trkpt>
      <trkpt lat="46.88121" lon="-0.98716">
        <ele>159.7200012207</ele>
        <time>2020-10-11T07:52:07Z</time>
      </trkpt>
      <trkpt lat="46.88126" lon="-0.98701">
        <ele>159.7200012207</ele>
        <time>2020-10-11T07:52:16Z</time>
      </trkpt>
      <trkpt lat="46.88132" lon="-0.98686">
        <ele>160.19999694824</ele>
        <time>2020-10-11T07:52:25Z</time>
      </trkpt>
      <trkpt lat="46.88139" lon="-0.98674">
        <ele>160.67999267578</ele>
        <time>2020-10-11T07:52:34Z</time>
      </trkpt>
      <trkpt lat="46.88147" lon="-0.98663">
        <ele>160.67999267578</ele>
        <time>2020-10-11T07:52:43Z</time>
      </trkpt>
      <trkpt lat="46.88157" lon="-0.98655">
        <ele>161.16000366211</ele>
        <time>2020-10-11T07:52:52Z</time>
      </trkpt>
      <trkpt lat="46.88167" lon="-0.98645">
        <ele>161.63999938965</ele>
        <time>2020-10-11T07:53:02Z</time>
      </trkpt>
      <trkpt lat="46.88176" lon="-0.98634">
        <ele>161.63999938965</ele>
        <time>2020-10-11T07:53:12Z</time>
      </trkpt>
      <trkpt lat="46.88186" lon="-0.98625">
        <ele>162.11999511719</ele>
        <time>2020-10-11T07:53:21Z</time>
      </trkpt>
      <trkpt lat="46.88197" lon="-0.98616">
        <ele>162.60000610352</ele>
        <time>2020-10-11T07:53:30Z</time>
      </trkpt>
      <trkpt lat="46.88207" lon="-0.98607">
        <ele>163.55999755859</ele>
        <time>2020-10-11T07:53:39Z</time>
      </trkpt>
      <trkpt lat="46.88216" lon="-0.98599">
        <ele>164.03999328613</ele>
        <time>2020-10-11T07:53:48Z</time>
      </trkpt>
      <trkpt lat="46.88228" lon="-0.98592">
        <ele>165.96000671387</ele>
        <time>2020-10-11T07:53:59Z</time>
      </trkpt>
      <trkpt lat="46.8824" lon="-0.98582">
        <ele>167.41000366211</ele>
        <time>2020-10-11T07:54:10Z</time>
      </trkpt>
      <trkpt lat="46.88254" lon="-0.98564">
        <ele>170.77000427246</ele>
        <time>2020-10-11T07:54:31Z</time>
      </trkpt>
      <trkpt lat="46.88265" lon="-0.9853">
        <ele>175.10000610352</ele>
        <time>2020-10-11T07:54:56Z</time>
      </trkpt>
      <trkpt lat="46.88269" lon="-0.98514">
        <ele>176.05999755859</ele>
        <time>2020-10-11T07:55:07Z</time>
      </trkpt>
      <trkpt lat="46.88272" lon="-0.98496">
        <ele>177.02000427246</ele>
        <time>2020-10-11T07:55:19Z</time>
      </trkpt>
      <trkpt lat="46.88275" lon="-0.98482">
        <ele>177.97999572754</ele>
        <time>2020-10-11T07:55:30Z</time>
      </trkpt>
      <trkpt lat="46.88281" lon="-0.98469">
        <ele>178.46000671387</ele>
        <time>2020-10-11T07:55:43Z</time>
      </trkpt>
      <trkpt lat="46.88287" lon="-0.98459">
        <ele>178.46000671387</ele>
        <time>2020-10-11T07:55:52Z</time>
      </trkpt>
      <trkpt lat="46.88295" lon="-0.98445">
        <ele>178.46000671387</ele>
        <time>2020-10-11T07:56:04Z</time>
      </trkpt>
      <trkpt lat="46.88301" lon="-0.98433">
        <ele>178.46000671387</ele>
        <time>2020-10-11T07:56:13Z</time>
      </trkpt>
      <trkpt lat="46.88308" lon="-0.98416">
        <ele>178.46000671387</ele>
        <time>2020-10-11T07:56:23Z</time>
      </trkpt>
      <trkpt lat="46.88313" lon="-0.98398">
        <ele>178.94000244141</ele>
        <time>2020-10-11T07:56:33Z</time>
      </trkpt>
      <trkpt lat="46.88318" lon="-0.98382">
        <ele>178.94000244141</ele>
        <time>2020-10-11T07:56:43Z</time>
      </trkpt>
      <trkpt lat="46.88322" lon="-0.98365">
        <ele>178.94000244141</ele>
        <time>2020-10-11T07:56:55Z</time>
      </trkpt>
      <trkpt lat="46.88329" lon="-0.98342">
        <ele>180.38000488281</ele>
        <time>2020-10-11T07:57:08Z</time>
      </trkpt>
      <trkpt lat="46.88334" lon="-0.98324">
        <ele>180.86999511719</ele>
        <time>2020-10-11T07:57:20Z</time>
      </trkpt>
      <trkpt lat="46.88337" lon="-0.98306">
        <ele>181.35000610352</ele>
        <time>2020-10-11T07:57:30Z</time>
      </trkpt>
      <trkpt lat="46.88341" lon="-0.98288">
        <ele>183.27000427246</ele>
        <time>2020-10-11T07:57:40Z</time>
      </trkpt>
      <trkpt lat="46.88345" lon="-0.98271">
        <ele>184.71000671387</ele>
        <time>2020-10-11T07:57:51Z</time>
      </trkpt>
      <trkpt lat="46.8835" lon="-0.98255">
        <ele>187.11000061035</ele>
        <time>2020-10-11T07:58:04Z</time>
      </trkpt>
      <trkpt lat="46.88351" lon="-0.98238">
        <ele>189.52000427246</ele>
        <time>2020-10-11T07:58:17Z</time>
      </trkpt>
      <trkpt lat="46.88358" lon="-0.9822">
        <ele>190.96000671387</ele>
        <time>2020-10-11T07:58:33Z</time>
      </trkpt>
      <trkpt lat="46.88365" lon="-0.98198">
        <ele>192.88000488281</ele>
        <time>2020-10-11T07:58:52Z</time>
      </trkpt>
      <trkpt lat="46.88377" lon="-0.98168">
        <ele>194.32000732422</ele>
        <time>2020-10-11T07:59:14Z</time>
      </trkpt>
      <trkpt lat="46.88383" lon="-0.9815">
        <ele>194.80000305176</ele>
        <time>2020-10-11T07:59:24Z</time>
      </trkpt>
      <trkpt lat="46.88388" lon="-0.98132">
        <ele>195.2799987793</ele>
        <time>2020-10-11T07:59:35Z</time>
      </trkpt>
      <trkpt lat="46.88392" lon="-0.98111">
        <ele>195.77000427246</ele>
        <time>2020-10-11T07:59:50Z</time>
      </trkpt>
      <trkpt lat="46.88394" lon="-0.98088">
        <ele>196.72999572754</ele>
        <time>2020-10-11T08:00:04Z</time>
      </trkpt>
      <trkpt lat="46.88398" lon="-0.98057">
        <ele>197.21000671387</ele>
        <time>2020-10-11T08:00:20Z</time>
      </trkpt>
      <trkpt lat="46.88399" lon="-0.98035">
        <ele>197.21000671387</ele>
        <time>2020-10-11T08:00:33Z</time>
      </trkpt>
      <trkpt lat="46.88405" lon="-0.98018">
        <ele>197.69000244141</ele>
        <time>2020-10-11T08:00:43Z</time>
      </trkpt>
      <trkpt lat="46.88413" lon="-0.98004">
        <ele>198.16999816894</ele>
        <time>2020-10-11T08:00:52Z</time>
      </trkpt>
      <trkpt lat="46.88437" lon="-0.97969">
        <ele>198.16999816894</ele>
        <time>2020-10-11T08:01:27Z</time>
      </trkpt>
      <trkpt lat="46.8845" lon="-0.97954">
        <ele>198.64999389648</ele>
        <time>2020-10-11T08:01:37Z</time>
      </trkpt>
      <trkpt lat="46.88456" lon="-0.9794">
        <ele>198.64999389648</ele>
        <time>2020-10-11T08:01:50Z</time>
      </trkpt>
      <trkpt lat="46.88443" lon="-0.9792">
        <ele>197.21000671387</ele>
        <time>2020-10-11T08:02:06Z</time>
      </trkpt>
      <trkpt lat="46.88433" lon="-0.97906">
        <ele>196.72999572754</ele>
        <time>2020-10-11T08:02:16Z</time>
      </trkpt>
      <trkpt lat="46.88424" lon="-0.97892">
        <ele>196.72999572754</ele>
        <time>2020-10-11T08:02:26Z</time>
      </trkpt>
      <trkpt lat="46.88419" lon="-0.97878">
        <ele>195.77000427246</ele>
        <time>2020-10-11T08:02:34Z</time>
      </trkpt>
      <trkpt lat="46.88404" lon="-0.97809">
        <ele>191.44000244141</ele>
        <time>2020-10-11T08:03:24Z</time>
      </trkpt>
      <trkpt lat="46.88412" lon="-0.97792">
        <ele>194.32000732422</ele>
        <time>2020-10-11T08:03:36Z</time>
      </trkpt>
      <trkpt lat="46.88422" lon="-0.97778">
        <ele>194.80000305176</ele>
        <time>2020-10-11T08:03:46Z</time>
      </trkpt>
      <trkpt lat="46.88432" lon="-0.97767">
        <ele>194.32000732422</ele>
        <time>2020-10-11T08:03:55Z</time>
      </trkpt>
      <trkpt lat="46.88443" lon="-0.97756">
        <ele>194.80000305176</ele>
        <time>2020-10-11T08:04:06Z</time>
      </trkpt>
      <trkpt lat="46.88453" lon="-0.97746">
        <ele>195.2799987793</ele>
        <time>2020-10-11T08:04:18Z</time>
      </trkpt>
      <trkpt lat="46.88474" lon="-0.97747">
        <ele>197.21000671387</ele>
        <time>2020-10-11T08:04:42Z</time>
      </trkpt>
      <trkpt lat="46.88499" lon="-0.97762">
        <ele>199.13000488281</ele>
        <time>2020-10-11T08:05:08Z</time>
      </trkpt>
      <trkpt lat="46.88512" lon="-0.97774">
        <ele>199.61000061035</ele>
        <time>2020-10-11T08:05:21Z</time>
      </trkpt>
      <trkpt lat="46.88521" lon="-0.97789">
        <ele>200.08999633789</ele>
        <time>2020-10-11T08:05:32Z</time>
      </trkpt>
      <trkpt lat="46.8853" lon="-0.97803">
        <ele>200.08999633789</ele>
        <time>2020-10-11T08:05:41Z</time>
      </trkpt>
      <trkpt lat="46.88544" lon="-0.97807">
        <ele>200.08999633789</ele>
        <time>2020-10-11T08:05:50Z</time>
      </trkpt>
      <trkpt lat="46.88558" lon="-0.97807">
        <ele>200.57000732422</ele>
        <time>2020-10-11T08:05:59Z</time>
      </trkpt>
      <trkpt lat="46.88572" lon="-0.97803">
        <ele>200.57000732422</ele>
        <time>2020-10-11T08:06:11Z</time>
      </trkpt>
      <trkpt lat="46.88585" lon="-0.97798">
        <ele>200.57000732422</ele>
        <time>2020-10-11T08:06:21Z</time>
      </trkpt>
      <trkpt lat="46.88598" lon="-0.97791">
        <ele>201.05000305176</ele>
        <time>2020-10-11T08:06:30Z</time>
      </trkpt>
      <trkpt lat="46.88609" lon="-0.9778">
        <ele>201.5299987793</ele>
        <time>2020-10-11T08:06:39Z</time>
      </trkpt>
      <trkpt lat="46.88618" lon="-0.97768">
        <ele>202.00999450684</ele>
        <time>2020-10-11T08:06:48Z</time>
      </trkpt>
      <trkpt lat="46.88625" lon="-0.9775">
        <ele>202.97999572754</ele>
        <time>2020-10-11T08:07:01Z</time>
      </trkpt>
      <trkpt lat="46.88633" lon="-0.97734">
        <ele>203.94000244141</ele>
        <time>2020-10-11T08:07:12Z</time>
      </trkpt>
      <trkpt lat="46.8864" lon="-0.97716">
        <ele>204.41999816894</ele>
        <time>2020-10-11T08:07:24Z</time>
      </trkpt>
      <trkpt lat="46.88647" lon="-0.977">
        <ele>205.38000488281</ele>
        <time>2020-10-11T08:07:33Z</time>
      </trkpt>
      <trkpt lat="46.88653" lon="-0.97685">
        <ele>205.86000061035</ele>
        <time>2020-10-11T08:07:44Z</time>
      </trkpt>
      <trkpt lat="46.88667" lon="-0.97652">
        <ele>208.25999450684</ele>
        <time>2020-10-11T08:08:10Z</time>
      </trkpt>
      <trkpt lat="46.8868" lon="-0.97627">
        <ele>209.69999694824</ele>
        <time>2020-10-11T08:08:29Z</time>
      </trkpt>
      <trkpt lat="46.88691" lon="-0.976">
        <ele>210.19000244141</ele>
        <time>2020-10-11T08:08:48Z</time>
      </trkpt>
      <trkpt lat="46.88704" lon="-0.97573">
        <ele>211.14999389648</ele>
        <time>2020-10-11T08:09:07Z</time>
      </trkpt>
      <trkpt lat="46.88764" lon="-0.97433">
        <ele>219.32000732422</ele>
        <time>2020-10-11T08:12:11Z</time>
      </trkpt>
      <trkpt lat="46.8877" lon="-0.97413">
        <ele>220.75999450684</ele>
        <time>2020-10-11T08:12:23Z</time>
      </trkpt>
      <trkpt lat="46.88781" lon="-0.97395">
        <ele>222.19999694824</ele>
        <time>2020-10-11T08:12:39Z</time>
      </trkpt>
      <trkpt lat="46.88791" lon="-0.9738">
        <ele>222.67999267578</ele>
        <time>2020-10-11T08:12:52Z</time>
      </trkpt>
      <trkpt lat="46.8884" lon="-0.9731">
        <ele>225.08999633789</ele>
        <time>2020-10-11T08:13:49Z</time>
      </trkpt>
      <trkpt lat="46.8885" lon="-0.97294">
        <ele>227.00999450684</ele>
        <time>2020-10-11T08:14:02Z</time>
      </trkpt>
      <trkpt lat="46.8886" lon="-0.97278">
        <ele>227.9700012207</ele>
        <time>2020-10-11T08:14:15Z</time>
      </trkpt>
      <trkpt lat="46.88868" lon="-0.97263">
        <ele>229.88999938965</ele>
        <time>2020-10-11T08:14:27Z</time>
      </trkpt>
      <trkpt lat="46.88874" lon="-0.97243">
        <ele>230.85000610352</ele>
        <time>2020-10-11T08:15:09Z</time>
      </trkpt>
      <trkpt lat="46.88883" lon="-0.97237">
        <ele>231.33000183106</ele>
        <time>2020-10-11T08:16:58Z</time>
      </trkpt>
      <trkpt lat="46.88892" lon="-0.97236">
        <ele>231.80999755859</ele>
        <time>2020-10-11T08:17:08Z</time>
      </trkpt>
      <trkpt lat="46.88903" lon="-0.97237">
        <ele>232.30000305176</ele>
        <time>2020-10-11T08:17:17Z</time>
      </trkpt>
      <trkpt lat="46.88913" lon="-0.97236">
        <ele>233.25999450684</ele>
        <time>2020-10-11T08:17:24Z</time>
      </trkpt>
      <trkpt lat="46.88924" lon="-0.97236">
        <ele>234.2200012207</ele>
        <time>2020-10-11T08:17:34Z</time>
      </trkpt>
      <trkpt lat="46.88934" lon="-0.97237">
        <ele>234.69999694824</ele>
        <time>2020-10-11T08:17:44Z</time>
      </trkpt>
      <trkpt lat="46.88948" lon="-0.97236">
        <ele>235.17999267578</ele>
        <time>2020-10-11T08:17:58Z</time>
      </trkpt>
      <trkpt lat="46.88959" lon="-0.97239">
        <ele>236.13999938965</ele>
        <time>2020-10-11T08:18:08Z</time>
      </trkpt>
      <trkpt lat="46.88969" lon="-0.9724">
        <ele>236.13999938965</ele>
        <time>2020-10-11T08:18:16Z</time>
      </trkpt>
      <trkpt lat="46.88981" lon="-0.9724">
        <ele>236.13999938965</ele>
        <time>2020-10-11T08:18:25Z</time>
      </trkpt>
      <trkpt lat="46.88991" lon="-0.9724">
        <ele>236.61999511719</ele>
        <time>2020-10-11T08:18:36Z</time>
      </trkpt>
      <trkpt lat="46.89" lon="-0.97244">
        <ele>236.61999511719</ele>
        <time>2020-10-11T08:18:44Z</time>
      </trkpt>
      <trkpt lat="46.8901" lon="-0.97249">
        <ele>236.61999511719</ele>
        <time>2020-10-11T08:18:52Z</time>
      </trkpt>
      <trkpt lat="46.89021" lon="-0.97252">
        <ele>237.10000610352</ele>
        <time>2020-10-11T08:19:01Z</time>
      </trkpt>
      <trkpt lat="46.89031" lon="-0.97256">
        <ele>237.10000610352</ele>
        <time>2020-10-11T08:19:09Z</time>
      </trkpt>
      <trkpt lat="46.89041" lon="-0.9726">
        <ele>237.10000610352</ele>
        <time>2020-10-11T08:19:17Z</time>
      </trkpt>
      <trkpt lat="46.89051" lon="-0.97263">
        <ele>237.10000610352</ele>
        <time>2020-10-11T08:19:26Z</time>
      </trkpt>
      <trkpt lat="46.89062" lon="-0.97267">
        <ele>237.10000610352</ele>
        <time>2020-10-11T08:19:34Z</time>
      </trkpt>
      <trkpt lat="46.89071" lon="-0.9727">
        <ele>237.10000610352</ele>
        <time>2020-10-11T08:19:41Z</time>
      </trkpt>
      <trkpt lat="46.89081" lon="-0.97274">
        <ele>237.10000610352</ele>
        <time>2020-10-11T08:19:49Z</time>
      </trkpt>
      <trkpt lat="46.89091" lon="-0.97278">
        <ele>237.10000610352</ele>
        <time>2020-10-11T08:19:58Z</time>
      </trkpt>
      <trkpt lat="46.89102" lon="-0.97282">
        <ele>237.10000610352</ele>
        <time>2020-10-11T08:20:06Z</time>
      </trkpt>
      <trkpt lat="46.89113" lon="-0.97288">
        <ele>237.10000610352</ele>
        <time>2020-10-11T08:20:15Z</time>
      </trkpt>
      <trkpt lat="46.89122" lon="-0.97293">
        <ele>237.10000610352</ele>
        <time>2020-10-11T08:20:23Z</time>
      </trkpt>
      <trkpt lat="46.89133" lon="-0.97298">
        <ele>237.10000610352</ele>
        <time>2020-10-11T08:20:32Z</time>
      </trkpt>
      <trkpt lat="46.89143" lon="-0.97305">
        <ele>237.10000610352</ele>
        <time>2020-10-11T08:20:40Z</time>
      </trkpt>
      <trkpt lat="46.89153" lon="-0.97313">
        <ele>237.58000183106</ele>
        <time>2020-10-11T08:20:48Z</time>
      </trkpt>
      <trkpt lat="46.89163" lon="-0.97319">
        <ele>238.05999755859</ele>
        <time>2020-10-11T08:20:57Z</time>
      </trkpt>
      <trkpt lat="46.89173" lon="-0.97326">
        <ele>238.05999755859</ele>
        <time>2020-10-11T08:21:05Z</time>
      </trkpt>
      <trkpt lat="46.89182" lon="-0.97334">
        <ele>238.53999328613</ele>
        <time>2020-10-11T08:21:13Z</time>
      </trkpt>
      <trkpt lat="46.8919" lon="-0.9734">
        <ele>238.53999328613</ele>
        <time>2020-10-11T08:21:20Z</time>
      </trkpt>
      <trkpt lat="46.89198" lon="-0.9735">
        <ele>238.53999328613</ele>
        <time>2020-10-11T08:21:28Z</time>
      </trkpt>
      <trkpt lat="46.89207" lon="-0.97359">
        <ele>238.53999328613</ele>
        <time>2020-10-11T08:21:36Z</time>
      </trkpt>
      <trkpt lat="46.89216" lon="-0.97367">
        <ele>238.53999328613</ele>
        <time>2020-10-11T08:21:44Z</time>
      </trkpt>
      <trkpt lat="46.89223" lon="-0.97377">
        <ele>237.10000610352</ele>
        <time>2020-10-11T08:21:51Z</time>
      </trkpt>
      <trkpt lat="46.89231" lon="-0.97387">
        <ele>237.10000610352</ele>
        <time>2020-10-11T08:21:58Z</time>
      </trkpt>
      <trkpt lat="46.89239" lon="-0.97395">
        <ele>236.61999511719</ele>
        <time>2020-10-11T08:22:05Z</time>
      </trkpt>
      <trkpt lat="46.89246" lon="-0.97404">
        <ele>237.10000610352</ele>
        <time>2020-10-11T08:22:12Z</time>
      </trkpt>
      <trkpt lat="46.89254" lon="-0.97412">
        <ele>237.10000610352</ele>
        <time>2020-10-11T08:22:19Z</time>
      </trkpt>
      <trkpt lat="46.89262" lon="-0.97422">
        <ele>237.10000610352</ele>
        <time>2020-10-11T08:22:27Z</time>
      </trkpt>
      <trkpt lat="46.8927" lon="-0.97432">
        <ele>236.61999511719</ele>
        <time>2020-10-11T08:22:35Z</time>
      </trkpt>
      <trkpt lat="46.89278" lon="-0.97441">
        <ele>236.61999511719</ele>
        <time>2020-10-11T08:22:43Z</time>
      </trkpt>
      <trkpt lat="46.89287" lon="-0.97453">
        <ele>236.61999511719</ele>
        <time>2020-10-11T08:22:53Z</time>
      </trkpt>
      <trkpt lat="46.89297" lon="-0.97463">
        <ele>236.61999511719</ele>
        <time>2020-10-11T08:23:03Z</time>
      </trkpt>
      <trkpt lat="46.89305" lon="-0.97476">
        <ele>236.61999511719</ele>
        <time>2020-10-11T08:23:13Z</time>
      </trkpt>
      <trkpt lat="46.89314" lon="-0.9749">
        <ele>236.61999511719</ele>
        <time>2020-10-11T08:23:24Z</time>
      </trkpt>
      <trkpt lat="46.89323" lon="-0.97504">
        <ele>236.61999511719</ele>
        <time>2020-10-11T08:23:37Z</time>
      </trkpt>
      <trkpt lat="46.89341" lon="-0.97521">
        <ele>237.58000183106</ele>
        <time>2020-10-11T08:23:52Z</time>
      </trkpt>
      <trkpt lat="46.89352" lon="-0.97531">
        <ele>237.58000183106</ele>
        <time>2020-10-11T08:24:05Z</time>
      </trkpt>
      <trkpt lat="46.89364" lon="-0.97546">
        <ele>238.05999755859</ele>
        <time>2020-10-11T08:24:17Z</time>
      </trkpt>
      <trkpt lat="46.89374" lon="-0.9756">
        <ele>238.53999328613</ele>
        <time>2020-10-11T08:24:27Z</time>
      </trkpt>
      <trkpt lat="46.89382" lon="-0.97574">
        <ele>239.02000427246</ele>
        <time>2020-10-11T08:24:37Z</time>
      </trkpt>
      <trkpt lat="46.89391" lon="-0.9759">
        <ele>238.53999328613</ele>
        <time>2020-10-11T08:24:47Z</time>
      </trkpt>
      <trkpt lat="46.89399" lon="-0.97604">
        <ele>238.53999328613</ele>
        <time>2020-10-11T08:24:57Z</time>
      </trkpt>
      <trkpt lat="46.89409" lon="-0.9762">
        <ele>238.53999328613</ele>
        <time>2020-10-11T08:25:07Z</time>
      </trkpt>
      <trkpt lat="46.89418" lon="-0.97633">
        <ele>237.58000183106</ele>
        <time>2020-10-11T08:25:16Z</time>
      </trkpt>
      <trkpt lat="46.89426" lon="-0.97648">
        <ele>237.10000610352</ele>
        <time>2020-10-11T08:25:26Z</time>
      </trkpt>
      <trkpt lat="46.89434" lon="-0.97663">
        <ele>237.10000610352</ele>
        <time>2020-10-11T08:25:36Z</time>
      </trkpt>
      <trkpt lat="46.89444" lon="-0.97676">
        <ele>237.10000610352</ele>
        <time>2020-10-11T08:25:46Z</time>
      </trkpt>
      <trkpt lat="46.89453" lon="-0.9769">
        <ele>235.66000366211</ele>
        <time>2020-10-11T08:25:55Z</time>
      </trkpt>
      <trkpt lat="46.89463" lon="-0.97705">
        <ele>235.66000366211</ele>
        <time>2020-10-11T08:26:04Z</time>
      </trkpt>
      <trkpt lat="46.89473" lon="-0.97716">
        <ele>235.66000366211</ele>
        <time>2020-10-11T08:26:12Z</time>
      </trkpt>
      <trkpt lat="46.89481" lon="-0.97728">
        <ele>235.66000366211</ele>
        <time>2020-10-11T08:26:20Z</time>
      </trkpt>
      <trkpt lat="46.89488" lon="-0.97742">
        <ele>235.66000366211</ele>
        <time>2020-10-11T08:26:28Z</time>
      </trkpt>
      <trkpt lat="46.89494" lon="-0.97755">
        <ele>235.66000366211</ele>
        <time>2020-10-11T08:26:37Z</time>
      </trkpt>
      <trkpt lat="46.89501" lon="-0.9777">
        <ele>235.66000366211</ele>
        <time>2020-10-11T08:26:46Z</time>
      </trkpt>
      <trkpt lat="46.89508" lon="-0.97784">
        <ele>235.66000366211</ele>
        <time>2020-10-11T08:26:54Z</time>
      </trkpt>
      <trkpt lat="46.89515" lon="-0.97797">
        <ele>237.10000610352</ele>
        <time>2020-10-11T08:27:02Z</time>
      </trkpt>
      <trkpt lat="46.89522" lon="-0.9781">
        <ele>237.10000610352</ele>
        <time>2020-10-11T08:27:10Z</time>
      </trkpt>
      <trkpt lat="46.89529" lon="-0.97825">
        <ele>237.10000610352</ele>
        <time>2020-10-11T08:27:18Z</time>
      </trkpt>
      <trkpt lat="46.89534" lon="-0.97838">
        <ele>237.10000610352</ele>
        <time>2020-10-11T08:27:26Z</time>
      </trkpt>
      <trkpt lat="46.8954" lon="-0.97851">
        <ele>237.10000610352</ele>
        <time>2020-10-11T08:27:34Z</time>
      </trkpt>
      <trkpt lat="46.89545" lon="-0.97866">
        <ele>235.66000366211</ele>
        <time>2020-10-11T08:27:42Z</time>
      </trkpt>
      <trkpt lat="46.89552" lon="-0.97879">
        <ele>235.66000366211</ele>
        <time>2020-10-11T08:27:50Z</time>
      </trkpt>
      <trkpt lat="46.89557" lon="-0.97895">
        <ele>235.66000366211</ele>
        <time>2020-10-11T08:27:58Z</time>
      </trkpt>
      <trkpt lat="46.89562" lon="-0.97908">
        <ele>235.66000366211</ele>
        <time>2020-10-11T08:28:06Z</time>
      </trkpt>
      <trkpt lat="46.89568" lon="-0.97921">
        <ele>235.17999267578</ele>
        <time>2020-10-11T08:28:14Z</time>
      </trkpt>
      <trkpt lat="46.89574" lon="-0.97937">
        <ele>235.17999267578</ele>
        <time>2020-10-11T08:28:23Z</time>
      </trkpt>
      <trkpt lat="46.8958" lon="-0.97952">
        <ele>235.17999267578</ele>
        <time>2020-10-11T08:28:32Z</time>
      </trkpt>
      <trkpt lat="46.89586" lon="-0.97965">
        <ele>234.69999694824</ele>
        <time>2020-10-11T08:28:40Z</time>
      </trkpt>
      <trkpt lat="46.89591" lon="-0.9798">
        <ele>234.69999694824</ele>
        <time>2020-10-11T08:28:47Z</time>
      </trkpt>
      <trkpt lat="46.89597" lon="-0.97994">
        <ele>234.2200012207</ele>
        <time>2020-10-11T08:28:54Z</time>
      </trkpt>
      <trkpt lat="46.89603" lon="-0.98007">
        <ele>234.2200012207</ele>
        <time>2020-10-11T08:29:01Z</time>
      </trkpt>
      <trkpt lat="46.89608" lon="-0.9802">
        <ele>234.2200012207</ele>
        <time>2020-10-11T08:29:08Z</time>
      </trkpt>
      <trkpt lat="46.89613" lon="-0.98032">
        <ele>234.2200012207</ele>
        <time>2020-10-11T08:29:15Z</time>
      </trkpt>
      <trkpt lat="46.89618" lon="-0.98045">
        <ele>233.74000549316</ele>
        <time>2020-10-11T08:29:22Z</time>
      </trkpt>
      <trkpt lat="46.89623" lon="-0.98058">
        <ele>234.2200012207</ele>
        <time>2020-10-11T08:29:29Z</time>
      </trkpt>
      <trkpt lat="46.89627" lon="-0.98072">
        <ele>234.2200012207</ele>
        <time>2020-10-11T08:29:36Z</time>
      </trkpt>
      <trkpt lat="46.89631" lon="-0.98084">
        <ele>234.2200012207</ele>
        <time>2020-10-11T08:29:43Z</time>
      </trkpt>
      <trkpt lat="46.89636" lon="-0.98097">
        <ele>234.2200012207</ele>
        <time>2020-10-11T08:29:50Z</time>
      </trkpt>
      <trkpt lat="46.89641" lon="-0.98109">
        <ele>234.2200012207</ele>
        <time>2020-10-11T08:29:57Z</time>
      </trkpt>
      <trkpt lat="46.89647" lon="-0.98121">
        <ele>234.2200012207</ele>
        <time>2020-10-11T08:30:04Z</time>
      </trkpt>
      <trkpt lat="46.8965" lon="-0.98133">
        <ele>234.2200012207</ele>
        <time>2020-10-11T08:30:12Z</time>
      </trkpt>
      <trkpt lat="46.89655" lon="-0.98146">
        <ele>234.2200012207</ele>
        <time>2020-10-11T08:30:20Z</time>
      </trkpt>
      <trkpt lat="46.89659" lon="-0.98159">
        <ele>233.74000549316</ele>
        <time>2020-10-11T08:30:29Z</time>
      </trkpt>
      <trkpt lat="46.89663" lon="-0.98172">
        <ele>233.74000549316</ele>
        <time>2020-10-11T08:30:40Z</time>
      </trkpt>
      <trkpt lat="46.89666" lon="-0.98184">
        <ele>233.74000549316</ele>
        <time>2020-10-11T08:30:50Z</time>
      </trkpt>
      <trkpt lat="46.89671" lon="-0.98198">
        <ele>233.74000549316</ele>
        <time>2020-10-11T08:30:58Z</time>
      </trkpt>
      <trkpt lat="46.89676" lon="-0.9821">
        <ele>233.74000549316</ele>
        <time>2020-10-11T08:31:06Z</time>
      </trkpt>
      <trkpt lat="46.89679" lon="-0.98223">
        <ele>234.2200012207</ele>
        <time>2020-10-11T08:31:14Z</time>
      </trkpt>
      <trkpt lat="46.89684" lon="-0.98232">
        <ele>234.2200012207</ele>
        <time>2020-10-11T08:31:24Z</time>
      </trkpt>
      <trkpt lat="46.89689" lon="-0.98246">
        <ele>234.2200012207</ele>
        <time>2020-10-11T08:31:42Z</time>
      </trkpt>
      <trkpt lat="46.89693" lon="-0.9826">
        <ele>234.2200012207</ele>
        <time>2020-10-11T08:31:50Z</time>
      </trkpt>
      <trkpt lat="46.89698" lon="-0.98273">
        <ele>234.2200012207</ele>
        <time>2020-10-11T08:31:58Z</time>
      </trkpt>
      <trkpt lat="46.89703" lon="-0.98286">
        <ele>234.2200012207</ele>
        <time>2020-10-11T08:32:06Z</time>
      </trkpt>
      <trkpt lat="46.89708" lon="-0.983">
        <ele>234.2200012207</ele>
        <time>2020-10-11T08:32:14Z</time>
      </trkpt>
      <trkpt lat="46.89713" lon="-0.98312">
        <ele>234.2200012207</ele>
        <time>2020-10-11T08:32:21Z</time>
      </trkpt>
      <trkpt lat="46.89718" lon="-0.98324">
        <ele>234.2200012207</ele>
        <time>2020-10-11T08:32:28Z</time>
      </trkpt>
      <trkpt lat="46.89724" lon="-0.98335">
        <ele>235.17999267578</ele>
        <time>2020-10-11T08:32:36Z</time>
      </trkpt>
      <trkpt lat="46.89731" lon="-0.98346">
        <ele>235.17999267578</ele>
        <time>2020-10-11T08:32:44Z</time>
      </trkpt>
      <trkpt lat="46.89738" lon="-0.98358">
        <ele>235.17999267578</ele>
        <time>2020-10-11T08:32:52Z</time>
      </trkpt>
      <trkpt lat="46.89744" lon="-0.9837">
        <ele>235.66000366211</ele>
        <time>2020-10-11T08:32:59Z</time>
      </trkpt>
      <trkpt lat="46.89751" lon="-0.9838">
        <ele>235.66000366211</ele>
        <time>2020-10-11T08:33:07Z</time>
      </trkpt>
      <trkpt lat="46.89759" lon="-0.98391">
        <ele>235.66000366211</ele>
        <time>2020-10-11T08:33:15Z</time>
      </trkpt>
      <trkpt lat="46.89766" lon="-0.98403">
        <ele>235.66000366211</ele>
        <time>2020-10-11T08:33:23Z</time>
      </trkpt>
      <trkpt lat="46.89772" lon="-0.98415">
        <ele>235.66000366211</ele>
        <time>2020-10-11T08:33:31Z</time>
      </trkpt>
      <trkpt lat="46.89779" lon="-0.98426">
        <ele>236.13999938965</ele>
        <time>2020-10-11T08:33:39Z</time>
      </trkpt>
      <trkpt lat="46.89787" lon="-0.98437">
        <ele>236.13999938965</ele>
        <time>2020-10-11T08:33:47Z</time>
      </trkpt>
      <trkpt lat="46.89793" lon="-0.98448">
        <ele>236.61999511719</ele>
        <time>2020-10-11T08:33:54Z</time>
      </trkpt>
      <trkpt lat="46.89801" lon="-0.98462">
        <ele>236.61999511719</ele>
        <time>2020-10-11T08:34:02Z</time>
      </trkpt>
      <trkpt lat="46.89807" lon="-0.98474">
        <ele>236.61999511719</ele>
        <time>2020-10-11T08:34:09Z</time>
      </trkpt>
      <trkpt lat="46.89814" lon="-0.98485">
        <ele>236.61999511719</ele>
        <time>2020-10-11T08:34:17Z</time>
      </trkpt>
      <trkpt lat="46.89822" lon="-0.98497">
        <ele>236.61999511719</ele>
        <time>2020-10-11T08:34:25Z</time>
      </trkpt>
      <trkpt lat="46.89828" lon="-0.98508">
        <ele>234.69999694824</ele>
        <time>2020-10-11T08:34:32Z</time>
      </trkpt>
      <trkpt lat="46.89834" lon="-0.98519">
        <ele>234.2200012207</ele>
        <time>2020-10-11T08:34:39Z</time>
      </trkpt>
      <trkpt lat="46.89842" lon="-0.9853">
        <ele>234.2200012207</ele>
        <time>2020-10-11T08:34:47Z</time>
      </trkpt>
      <trkpt lat="46.89849" lon="-0.98542">
        <ele>233.74000549316</ele>
        <time>2020-10-11T08:34:54Z</time>
      </trkpt>
      <trkpt lat="46.89856" lon="-0.98554">
        <ele>233.74000549316</ele>
        <time>2020-10-11T08:35:01Z</time>
      </trkpt>
      <trkpt lat="46.89862" lon="-0.98565">
        <ele>233.25999450684</ele>
        <time>2020-10-11T08:35:08Z</time>
      </trkpt>
      <trkpt lat="46.89868" lon="-0.98577">
        <ele>232.7799987793</ele>
        <time>2020-10-11T08:35:15Z</time>
      </trkpt>
      <trkpt lat="46.89875" lon="-0.98589">
        <ele>232.30000305176</ele>
        <time>2020-10-11T08:35:22Z</time>
      </trkpt>
      <trkpt lat="46.8988" lon="-0.986">
        <ele>232.30000305176</ele>
        <time>2020-10-11T08:35:29Z</time>
      </trkpt>
      <trkpt lat="46.89887" lon="-0.98612">
        <ele>231.33000183106</ele>
        <time>2020-10-11T08:35:36Z</time>
      </trkpt>
      <trkpt lat="46.89893" lon="-0.98623">
        <ele>230.85000610352</ele>
        <time>2020-10-11T08:35:44Z</time>
      </trkpt>
      <trkpt lat="46.899" lon="-0.98635">
        <ele>230.36999511719</ele>
        <time>2020-10-11T08:35:52Z</time>
      </trkpt>
      <trkpt lat="46.89906" lon="-0.98646">
        <ele>230.36999511719</ele>
        <time>2020-10-11T08:35:59Z</time>
      </trkpt>
      <trkpt lat="46.89912" lon="-0.98657">
        <ele>230.36999511719</ele>
        <time>2020-10-11T08:36:06Z</time>
      </trkpt>
      <trkpt lat="46.89919" lon="-0.98669">
        <ele>229.88999938965</ele>
        <time>2020-10-11T08:36:13Z</time>
      </trkpt>
      <trkpt lat="46.89927" lon="-0.98679">
        <ele>229.41000366211</ele>
        <time>2020-10-11T08:36:21Z</time>
      </trkpt>
      <trkpt lat="46.89936" lon="-0.98689">
        <ele>228.44999694824</ele>
        <time>2020-10-11T08:36:29Z</time>
      </trkpt>
      <trkpt lat="46.89945" lon="-0.98698">
        <ele>228.44999694824</ele>
        <time>2020-10-11T08:36:37Z</time>
      </trkpt>
      <trkpt lat="46.89953" lon="-0.98708">
        <ele>228.44999694824</ele>
        <time>2020-10-11T08:36:45Z</time>
      </trkpt>
      <trkpt lat="46.89962" lon="-0.98718">
        <ele>228.44999694824</ele>
        <time>2020-10-11T08:36:53Z</time>
      </trkpt>
      <trkpt lat="46.8997" lon="-0.98729">
        <ele>227.9700012207</ele>
        <time>2020-10-11T08:37:01Z</time>
      </trkpt>
      <trkpt lat="46.89977" lon="-0.98738">
        <ele>227.9700012207</ele>
        <time>2020-10-11T08:37:08Z</time>
      </trkpt>
      <trkpt lat="46.89986" lon="-0.98746">
        <ele>227.9700012207</ele>
        <time>2020-10-11T08:37:16Z</time>
      </trkpt>
      <trkpt lat="46.89996" lon="-0.98754">
        <ele>227.9700012207</ele>
        <time>2020-10-11T08:37:24Z</time>
      </trkpt>
      <trkpt lat="46.90006" lon="-0.9876">
        <ele>227.9700012207</ele>
        <time>2020-10-11T08:37:31Z</time>
      </trkpt>
      <trkpt lat="46.90015" lon="-0.98767">
        <ele>228.92999267578</ele>
        <time>2020-10-11T08:37:39Z</time>
      </trkpt>
      <trkpt lat="46.90024" lon="-0.98777">
        <ele>229.41000366211</ele>
        <time>2020-10-11T08:37:47Z</time>
      </trkpt>
      <trkpt lat="46.90031" lon="-0.98787">
        <ele>229.88999938965</ele>
        <time>2020-10-11T08:37:54Z</time>
      </trkpt>
      <trkpt lat="46.90039" lon="-0.98796">
        <ele>230.36999511719</ele>
        <time>2020-10-11T08:38:02Z</time>
      </trkpt>
      <trkpt lat="46.90048" lon="-0.98808">
        <ele>230.85000610352</ele>
        <time>2020-10-11T08:38:10Z</time>
      </trkpt>
      <trkpt lat="46.90054" lon="-0.98818">
        <ele>230.85000610352</ele>
        <time>2020-10-11T08:38:18Z</time>
      </trkpt>
      <trkpt lat="46.90061" lon="-0.98828">
        <ele>230.85000610352</ele>
        <time>2020-10-11T08:38:26Z</time>
      </trkpt>
      <trkpt lat="46.90068" lon="-0.98839">
        <ele>229.41000366211</ele>
        <time>2020-10-11T08:38:34Z</time>
      </trkpt>
      <trkpt lat="46.90076" lon="-0.98851">
        <ele>228.92999267578</ele>
        <time>2020-10-11T08:38:43Z</time>
      </trkpt>
      <trkpt lat="46.90082" lon="-0.98862">
        <ele>228.44999694824</ele>
        <time>2020-10-11T08:38:51Z</time>
      </trkpt>
      <trkpt lat="46.90087" lon="-0.98875">
        <ele>227.49000549316</ele>
        <time>2020-10-11T08:39:00Z</time>
      </trkpt>
      <trkpt lat="46.90092" lon="-0.98886">
        <ele>227.9700012207</ele>
        <time>2020-10-11T08:39:10Z</time>
      </trkpt>
      <trkpt lat="46.90098" lon="-0.98899">
        <ele>227.9700012207</ele>
        <time>2020-10-11T08:39:18Z</time>
      </trkpt>
      <trkpt lat="46.90104" lon="-0.98911">
        <ele>227.49000549316</ele>
        <time>2020-10-11T08:39:26Z</time>
      </trkpt>
      <trkpt lat="46.90109" lon="-0.98923">
        <ele>227.49000549316</ele>
        <time>2020-10-11T08:39:40Z</time>
      </trkpt>
      <trkpt lat="46.90118" lon="-0.98936">
        <ele>228.92999267578</ele>
        <time>2020-10-11T08:40:16Z</time>
      </trkpt>
      <trkpt lat="46.9013" lon="-0.98939">
        <ele>228.92999267578</ele>
        <time>2020-10-11T08:40:26Z</time>
      </trkpt>
      <trkpt lat="46.90139" lon="-0.98942">
        <ele>228.92999267578</ele>
        <time>2020-10-11T08:40:35Z</time>
      </trkpt>
      <trkpt lat="46.90148" lon="-0.98944">
        <ele>228.92999267578</ele>
        <time>2020-10-11T08:40:44Z</time>
      </trkpt>
      <trkpt lat="46.90157" lon="-0.9895">
        <ele>228.92999267578</ele>
        <time>2020-10-11T08:40:57Z</time>
      </trkpt>
      <trkpt lat="46.90165" lon="-0.98959">
        <ele>228.92999267578</ele>
        <time>2020-10-11T08:41:22Z</time>
      </trkpt>
      <trkpt lat="46.90173" lon="-0.98969">
        <ele>227.49000549316</ele>
        <time>2020-10-11T08:41:30Z</time>
      </trkpt>
      <trkpt lat="46.9018" lon="-0.98979">
        <ele>227.00999450684</ele>
        <time>2020-10-11T08:41:38Z</time>
      </trkpt>
      <trkpt lat="46.90188" lon="-0.9899">
        <ele>226.5299987793</ele>
        <time>2020-10-11T08:41:48Z</time>
      </trkpt>
      <trkpt lat="46.90196" lon="-0.98999">
        <ele>227.00999450684</ele>
        <time>2020-10-11T08:41:57Z</time>
      </trkpt>
      <trkpt lat="46.90204" lon="-0.99008">
        <ele>226.5299987793</ele>
        <time>2020-10-11T08:42:07Z</time>
      </trkpt>
      <trkpt lat="46.90212" lon="-0.99017">
        <ele>226.05000305176</ele>
        <time>2020-10-11T08:42:53Z</time>
      </trkpt>
      <trkpt lat="46.9022" lon="-0.99028">
        <ele>226.05000305176</ele>
        <time>2020-10-11T08:43:02Z</time>
      </trkpt>
      <trkpt lat="46.90228" lon="-0.99038">
        <ele>225.57000732422</ele>
        <time>2020-10-11T08:43:10Z</time>
      </trkpt>
      <trkpt lat="46.90235" lon="-0.99047">
        <ele>225.08999633789</ele>
        <time>2020-10-11T08:43:18Z</time>
      </trkpt>
      <trkpt lat="46.90243" lon="-0.99056">
        <ele>225.08999633789</ele>
        <time>2020-10-11T08:43:26Z</time>
      </trkpt>
      <trkpt lat="46.9025" lon="-0.99065">
        <ele>224.61000061035</ele>
        <time>2020-10-11T08:43:34Z</time>
      </trkpt>
      <trkpt lat="46.90258" lon="-0.99076">
        <ele>224.61000061035</ele>
        <time>2020-10-11T08:43:42Z</time>
      </trkpt>
      <trkpt lat="46.90265" lon="-0.99086">
        <ele>224.61000061035</ele>
        <time>2020-10-11T08:43:50Z</time>
      </trkpt>
      <trkpt lat="46.90273" lon="-0.99097">
        <ele>224.11999511719</ele>
        <time>2020-10-11T08:43:58Z</time>
      </trkpt>
      <trkpt lat="46.9028" lon="-0.99106">
        <ele>224.11999511719</ele>
        <time>2020-10-11T08:44:07Z</time>
      </trkpt>
      <trkpt lat="46.90287" lon="-0.99115">
        <ele>224.11999511719</ele>
        <time>2020-10-11T08:44:14Z</time>
      </trkpt>
      <trkpt lat="46.90296" lon="-0.99126">
        <ele>224.11999511719</ele>
        <time>2020-10-11T08:44:23Z</time>
      </trkpt>
      <trkpt lat="46.90304" lon="-0.99136">
        <ele>224.11999511719</ele>
        <time>2020-10-11T08:44:31Z</time>
      </trkpt>
      <trkpt lat="46.90312" lon="-0.99146">
        <ele>224.11999511719</ele>
        <time>2020-10-11T08:44:39Z</time>
      </trkpt>
      <trkpt lat="46.90319" lon="-0.99156">
        <ele>224.11999511719</ele>
        <time>2020-10-11T08:44:48Z</time>
      </trkpt>
      <trkpt lat="46.90326" lon="-0.99166">
        <ele>224.11999511719</ele>
        <time>2020-10-11T08:44:56Z</time>
      </trkpt>
      <trkpt lat="46.90334" lon="-0.99178">
        <ele>224.11999511719</ele>
        <time>2020-10-11T08:45:04Z</time>
      </trkpt>
      <trkpt lat="46.9034" lon="-0.9919">
        <ele>224.11999511719</ele>
        <time>2020-10-11T08:45:12Z</time>
      </trkpt>
      <trkpt lat="46.90346" lon="-0.99201">
        <ele>225.57000732422</ele>
        <time>2020-10-11T08:45:20Z</time>
      </trkpt>
      <trkpt lat="46.90352" lon="-0.99212">
        <ele>225.57000732422</ele>
        <time>2020-10-11T08:45:28Z</time>
      </trkpt>
      <trkpt lat="46.90359" lon="-0.99225">
        <ele>225.57000732422</ele>
        <time>2020-10-11T08:45:37Z</time>
      </trkpt>
      <trkpt lat="46.90364" lon="-0.99234">
        <ele>225.57000732422</ele>
        <time>2020-10-11T08:45:49Z</time>
      </trkpt>
      <trkpt lat="46.90369" lon="-0.99243">
        <ele>226.05000305176</ele>
        <time>2020-10-11T08:46:18Z</time>
      </trkpt>
      <trkpt lat="46.90375" lon="-0.99258">
        <ele>226.5299987793</ele>
        <time>2020-10-11T08:46:29Z</time>
      </trkpt>
      <trkpt lat="46.9038" lon="-0.99273">
        <ele>226.5299987793</ele>
        <time>2020-10-11T08:46:53Z</time>
      </trkpt>
      <trkpt lat="46.90383" lon="-0.99287">
        <ele>226.5299987793</ele>
        <time>2020-10-11T08:47:02Z</time>
      </trkpt>
      <trkpt lat="46.90386" lon="-0.99299">
        <ele>227.00999450684</ele>
        <time>2020-10-11T08:47:12Z</time>
      </trkpt>
      <trkpt lat="46.90389" lon="-0.99313">
        <ele>227.49000549316</ele>
        <time>2020-10-11T08:47:21Z</time>
      </trkpt>
      <trkpt lat="46.90392" lon="-0.99327">
        <ele>227.9700012207</ele>
        <time>2020-10-11T08:47:30Z</time>
      </trkpt>
      <trkpt lat="46.90396" lon="-0.99342">
        <ele>227.9700012207</ele>
        <time>2020-10-11T08:47:40Z</time>
      </trkpt>
      <trkpt lat="46.90401" lon="-0.99356">
        <ele>228.44999694824</ele>
        <time>2020-10-11T08:47:51Z</time>
      </trkpt>
      <trkpt lat="46.90402" lon="-0.99368">
        <ele>228.92999267578</ele>
        <time>2020-10-11T08:48:51Z</time>
      </trkpt>
      <trkpt lat="46.90406" lon="-0.99384">
        <ele>229.41000366211</ele>
        <time>2020-10-11T08:49:02Z</time>
      </trkpt>
      <trkpt lat="46.90408" lon="-0.99399">
        <ele>229.88999938965</ele>
        <time>2020-10-11T08:49:11Z</time>
      </trkpt>
      <trkpt lat="46.90406" lon="-0.99415">
        <ele>231.33000183106</ele>
        <time>2020-10-11T08:49:21Z</time>
      </trkpt>
      <trkpt lat="46.90401" lon="-0.9943">
        <ele>232.30000305176</ele>
        <time>2020-10-11T08:49:32Z</time>
      </trkpt>
      <trkpt lat="46.90398" lon="-0.99445">
        <ele>233.25999450684</ele>
        <time>2020-10-11T08:49:40Z</time>
      </trkpt>
      <trkpt lat="46.90395" lon="-0.99458">
        <ele>233.25999450684</ele>
        <time>2020-10-11T08:49:48Z</time>
      </trkpt>
      <trkpt lat="46.90385" lon="-0.99465">
        <ele>234.69999694824</ele>
        <time>2020-10-11T08:50:08Z</time>
      </trkpt>
      <trkpt lat="46.90377" lon="-0.99468">
        <ele>235.66000366211</ele>
        <time>2020-10-11T08:57:14Z</time>
      </trkpt>
      <trkpt lat="46.90371" lon="-0.99478">
        <ele>234.2200012207</ele>
        <time>2020-10-11T08:57:31Z</time>
      </trkpt>
      <trkpt lat="46.90363" lon="-0.99489">
        <ele>233.74000549316</ele>
        <time>2020-10-11T08:57:41Z</time>
      </trkpt>
      <trkpt lat="46.90356" lon="-0.99498">
        <ele>232.7799987793</ele>
        <time>2020-10-11T08:57:50Z</time>
      </trkpt>
      <trkpt lat="46.90348" lon="-0.99509">
        <ele>232.30000305176</ele>
        <time>2020-10-11T08:57:58Z</time>
      </trkpt>
      <trkpt lat="46.90341" lon="-0.9952">
        <ele>231.33000183106</ele>
        <time>2020-10-11T08:58:07Z</time>
      </trkpt>
      <trkpt lat="46.90334" lon="-0.9953">
        <ele>230.36999511719</ele>
        <time>2020-10-11T08:58:16Z</time>
      </trkpt>
      <trkpt lat="46.90328" lon="-0.99541">
        <ele>229.41000366211</ele>
        <time>2020-10-11T08:58:23Z</time>
      </trkpt>
      <trkpt lat="46.90321" lon="-0.99552">
        <ele>228.44999694824</ele>
        <time>2020-10-11T08:58:31Z</time>
      </trkpt>
      <trkpt lat="46.90315" lon="-0.99563">
        <ele>227.49000549316</ele>
        <time>2020-10-11T08:58:39Z</time>
      </trkpt>
      <trkpt lat="46.90308" lon="-0.99575">
        <ele>226.5299987793</ele>
        <time>2020-10-11T08:58:47Z</time>
      </trkpt>
      <trkpt lat="46.90302" lon="-0.99586">
        <ele>225.57000732422</ele>
        <time>2020-10-11T08:58:54Z</time>
      </trkpt>
      <trkpt lat="46.90294" lon="-0.99596">
        <ele>225.08999633789</ele>
        <time>2020-10-11T08:59:02Z</time>
      </trkpt>
      <trkpt lat="46.90286" lon="-0.99603">
        <ele>225.08999633789</ele>
        <time>2020-10-11T08:59:09Z</time>
      </trkpt>
      <trkpt lat="46.90276" lon="-0.99609">
        <ele>224.11999511719</ele>
        <time>2020-10-11T08:59:17Z</time>
      </trkpt>
      <trkpt lat="46.90266" lon="-0.99614">
        <ele>223.63999938965</ele>
        <time>2020-10-11T08:59:25Z</time>
      </trkpt>
      <trkpt lat="46.90256" lon="-0.99621">
        <ele>223.63999938965</ele>
        <time>2020-10-11T08:59:33Z</time>
      </trkpt>
      <trkpt lat="46.90247" lon="-0.99628">
        <ele>223.16000366211</ele>
        <time>2020-10-11T08:59:41Z</time>
      </trkpt>
      <trkpt lat="46.90238" lon="-0.99637">
        <ele>222.67999267578</ele>
        <time>2020-10-11T08:59:50Z</time>
      </trkpt>
      <trkpt lat="46.9023" lon="-0.99647">
        <ele>222.19999694824</ele>
        <time>2020-10-11T08:59:58Z</time>
      </trkpt>
      <trkpt lat="46.90221" lon="-0.99655">
        <ele>222.19999694824</ele>
        <time>2020-10-11T09:00:07Z</time>
      </trkpt>
      <trkpt lat="46.90212" lon="-0.99664">
        <ele>221.7200012207</ele>
        <time>2020-10-11T09:00:16Z</time>
      </trkpt>
      <trkpt lat="46.90202" lon="-0.99673">
        <ele>221.7200012207</ele>
        <time>2020-10-11T09:00:27Z</time>
      </trkpt>
      <trkpt lat="46.9019" lon="-0.99681">
        <ele>221.7200012207</ele>
        <time>2020-10-11T09:00:40Z</time>
      </trkpt>
      <trkpt lat="46.90174" lon="-0.99686">
        <ele>223.16000366211</ele>
        <time>2020-10-11T09:00:54Z</time>
      </trkpt>
      <trkpt lat="46.90157" lon="-0.99691">
        <ele>223.63999938965</ele>
        <time>2020-10-11T09:01:07Z</time>
      </trkpt>
      <trkpt lat="46.90145" lon="-0.99692">
        <ele>224.11999511719</ele>
        <time>2020-10-11T09:01:16Z</time>
      </trkpt>
      <trkpt lat="46.90134" lon="-0.99691">
        <ele>223.63999938965</ele>
        <time>2020-10-11T09:01:25Z</time>
      </trkpt>
      <trkpt lat="46.90122" lon="-0.99692">
        <ele>222.67999267578</ele>
        <time>2020-10-11T09:01:34Z</time>
      </trkpt>
      <trkpt lat="46.90109" lon="-0.99692">
        <ele>221.7200012207</ele>
        <time>2020-10-11T09:01:44Z</time>
      </trkpt>
      <trkpt lat="46.90096" lon="-0.99691">
        <ele>220.75999450684</ele>
        <time>2020-10-11T09:01:52Z</time>
      </trkpt>
      <trkpt lat="46.90084" lon="-0.99691">
        <ele>219.80000305176</ele>
        <time>2020-10-11T09:02:02Z</time>
      </trkpt>
      <trkpt lat="46.90073" lon="-0.99692">
        <ele>218.36000061035</ele>
        <time>2020-10-11T09:02:13Z</time>
      </trkpt>
      <trkpt lat="46.9006" lon="-0.99692">
        <ele>218.36000061035</ele>
        <time>2020-10-11T09:02:23Z</time>
      </trkpt>
      <trkpt lat="46.90048" lon="-0.99693">
        <ele>217.39999389648</ele>
        <time>2020-10-11T09:02:33Z</time>
      </trkpt>
      <trkpt lat="46.90035" lon="-0.99695">
        <ele>216.91000366211</ele>
        <time>2020-10-11T09:02:43Z</time>
      </trkpt>
      <trkpt lat="46.90022" lon="-0.99701">
        <ele>215.94999694824</ele>
        <time>2020-10-11T09:02:54Z</time>
      </trkpt>
      <trkpt lat="46.90007" lon="-0.99708">
        <ele>214.50999450684</ele>
        <time>2020-10-11T09:03:05Z</time>
      </trkpt>
      <trkpt lat="46.89992" lon="-0.99714">
        <ele>214.0299987793</ele>
        <time>2020-10-11T09:03:15Z</time>
      </trkpt>
      <trkpt lat="46.89978" lon="-0.99719">
        <ele>213.55000305176</ele>
        <time>2020-10-11T09:03:24Z</time>
      </trkpt>
      <trkpt lat="46.89966" lon="-0.99724">
        <ele>212.58999633789</ele>
        <time>2020-10-11T09:03:34Z</time>
      </trkpt>
      <trkpt lat="46.89954" lon="-0.99729">
        <ele>211.14999389648</ele>
        <time>2020-10-11T09:03:46Z</time>
      </trkpt>
      <trkpt lat="46.8994" lon="-0.99733">
        <ele>209.2200012207</ele>
        <time>2020-10-11T09:03:57Z</time>
      </trkpt>
      <trkpt lat="46.89926" lon="-0.99736">
        <ele>207.30000305176</ele>
        <time>2020-10-11T09:04:08Z</time>
      </trkpt>
      <trkpt lat="46.89912" lon="-0.99734">
        <ele>206.82000732422</ele>
        <time>2020-10-11T09:04:20Z</time>
      </trkpt>
      <trkpt lat="46.899" lon="-0.99732">
        <ele>205.86000061035</ele>
        <time>2020-10-11T09:04:32Z</time>
      </trkpt>
      <trkpt lat="46.89884" lon="-0.99729">
        <ele>204.89999389648</ele>
        <time>2020-10-11T09:04:45Z</time>
      </trkpt>
      <trkpt lat="46.89871" lon="-0.99722">
        <ele>203.94000244141</ele>
        <time>2020-10-11T09:04:55Z</time>
      </trkpt>
      <trkpt lat="46.89859" lon="-0.99721">
        <ele>202.97999572754</ele>
        <time>2020-10-11T09:05:04Z</time>
      </trkpt>
      <trkpt lat="46.89848" lon="-0.99722">
        <ele>202.00999450684</ele>
        <time>2020-10-11T09:05:14Z</time>
      </trkpt>
      <trkpt lat="46.89837" lon="-0.9972">
        <ele>201.05000305176</ele>
        <time>2020-10-11T09:05:24Z</time>
      </trkpt>
      <trkpt lat="46.89826" lon="-0.99718">
        <ele>199.61000061035</ele>
        <time>2020-10-11T09:05:33Z</time>
      </trkpt>
      <trkpt lat="46.89815" lon="-0.99718">
        <ele>198.64999389648</ele>
        <time>2020-10-11T09:05:42Z</time>
      </trkpt>
      <trkpt lat="46.89803" lon="-0.99716">
        <ele>197.21000671387</ele>
        <time>2020-10-11T09:05:51Z</time>
      </trkpt>
      <trkpt lat="46.89791" lon="-0.99716">
        <ele>196.25</ele>
        <time>2020-10-11T09:06:01Z</time>
      </trkpt>
      <trkpt lat="46.8978" lon="-0.99712">
        <ele>195.2799987793</ele>
        <time>2020-10-11T09:06:10Z</time>
      </trkpt>
      <trkpt lat="46.89769" lon="-0.99711">
        <ele>194.32000732422</ele>
        <time>2020-10-11T09:06:19Z</time>
      </trkpt>
      <trkpt lat="46.89758" lon="-0.99711">
        <ele>193.83999633789</ele>
        <time>2020-10-11T09:06:28Z</time>
      </trkpt>
      <trkpt lat="46.89748" lon="-0.9971">
        <ele>193.36000061035</ele>
        <time>2020-10-11T09:06:37Z</time>
      </trkpt>
      <trkpt lat="46.89738" lon="-0.99711">
        <ele>192.88000488281</ele>
        <time>2020-10-11T09:06:45Z</time>
      </trkpt>
      <trkpt lat="46.89727" lon="-0.99713">
        <ele>191.44000244141</ele>
        <time>2020-10-11T09:06:54Z</time>
      </trkpt>
      <trkpt lat="46.89716" lon="-0.99716">
        <ele>190.96000671387</ele>
        <time>2020-10-11T09:07:03Z</time>
      </trkpt>
      <trkpt lat="46.89704" lon="-0.99718">
        <ele>190</ele>
        <time>2020-10-11T09:07:14Z</time>
      </trkpt>
      <trkpt lat="46.89692" lon="-0.99719">
        <ele>189.03999328613</ele>
        <time>2020-10-11T09:07:25Z</time>
      </trkpt>
      <trkpt lat="46.89679" lon="-0.99721">
        <ele>188.55999755859</ele>
        <time>2020-10-11T09:07:36Z</time>
      </trkpt>
      <trkpt lat="46.89666" lon="-0.99722">
        <ele>187.11000061035</ele>
        <time>2020-10-11T09:07:48Z</time>
      </trkpt>
      <trkpt lat="46.89652" lon="-0.99728">
        <ele>186.14999389648</ele>
        <time>2020-10-11T09:08:00Z</time>
      </trkpt>
      <trkpt lat="46.89639" lon="-0.99732">
        <ele>184.71000671387</ele>
        <time>2020-10-11T09:08:12Z</time>
      </trkpt>
      <trkpt lat="46.89617" lon="-0.99744">
        <ele>183.27000427246</ele>
        <time>2020-10-11T09:09:22Z</time>
      </trkpt>
      <trkpt lat="46.89619" lon="-0.99756">
        <ele>181.83000183106</ele>
        <time>2020-10-11T09:09:36Z</time>
      </trkpt>
      <trkpt lat="46.89624" lon="-0.99768">
        <ele>181.35000610352</ele>
        <time>2020-10-11T09:09:46Z</time>
      </trkpt>
      <trkpt lat="46.89629" lon="-0.99781">
        <ele>181.35000610352</ele>
        <time>2020-10-11T09:09:54Z</time>
      </trkpt>
      <trkpt lat="46.89636" lon="-0.99794">
        <ele>180.38000488281</ele>
        <time>2020-10-11T09:10:05Z</time>
      </trkpt>
      <trkpt lat="46.89643" lon="-0.99806">
        <ele>179.89999389648</ele>
        <time>2020-10-11T09:10:13Z</time>
      </trkpt>
      <trkpt lat="46.89649" lon="-0.99821">
        <ele>179.89999389648</ele>
        <time>2020-10-11T09:10:21Z</time>
      </trkpt>
      <trkpt lat="46.89654" lon="-0.99835">
        <ele>179.89999389648</ele>
        <time>2020-10-11T09:10:29Z</time>
      </trkpt>
      <trkpt lat="46.8966" lon="-0.99846">
        <ele>178.94000244141</ele>
        <time>2020-10-11T09:10:37Z</time>
      </trkpt>
      <trkpt lat="46.8966" lon="-0.99857">
        <ele>177.97999572754</ele>
        <time>2020-10-11T09:10:47Z</time>
      </trkpt>
      <trkpt lat="46.89648" lon="-0.99854">
        <ele>177.5</ele>
        <time>2020-10-11T09:10:56Z</time>
      </trkpt>
      <trkpt lat="46.89637" lon="-0.9985">
        <ele>177.02000427246</ele>
        <time>2020-10-11T09:11:05Z</time>
      </trkpt>
      <trkpt lat="46.89626" lon="-0.99847">
        <ele>177.02000427246</ele>
        <time>2020-10-11T09:11:13Z</time>
      </trkpt>
      <trkpt lat="46.89616" lon="-0.99844">
        <ele>176.53999328613</ele>
        <time>2020-10-11T09:11:21Z</time>
      </trkpt>
      <trkpt lat="46.89605" lon="-0.99839">
        <ele>176.05999755859</ele>
        <time>2020-10-11T09:11:30Z</time>
      </trkpt>
      <trkpt lat="46.89594" lon="-0.99836">
        <ele>175.58000183106</ele>
        <time>2020-10-11T09:11:38Z</time>
      </trkpt>
      <trkpt lat="46.89585" lon="-0.9983">
        <ele>175.10000610352</ele>
        <time>2020-10-11T09:11:45Z</time>
      </trkpt>
      <trkpt lat="46.89574" lon="-0.99825">
        <ele>175.10000610352</ele>
        <time>2020-10-11T09:11:53Z</time>
      </trkpt>
      <trkpt lat="46.89563" lon="-0.99819">
        <ele>174.13999938965</ele>
        <time>2020-10-11T09:12:01Z</time>
      </trkpt>
      <trkpt lat="46.89554" lon="-0.99812">
        <ele>174.13999938965</ele>
        <time>2020-10-11T09:12:08Z</time>
      </trkpt>
      <trkpt lat="46.89544" lon="-0.99804">
        <ele>173.66000366211</ele>
        <time>2020-10-11T09:12:17Z</time>
      </trkpt>
      <trkpt lat="46.89532" lon="-0.99795">
        <ele>173.66000366211</ele>
        <time>2020-10-11T09:12:27Z</time>
      </trkpt>
      <trkpt lat="46.89522" lon="-0.99786">
        <ele>173.66000366211</ele>
        <time>2020-10-11T09:12:35Z</time>
      </trkpt>
      <trkpt lat="46.89513" lon="-0.99789">
        <ele>173.16999816894</ele>
        <time>2020-10-11T09:12:43Z</time>
      </trkpt>
      <trkpt lat="46.89504" lon="-0.99795">
        <ele>172.69000244141</ele>
        <time>2020-10-11T09:12:50Z</time>
      </trkpt>
      <trkpt lat="46.89496" lon="-0.99801">
        <ele>172.21000671387</ele>
        <time>2020-10-11T09:12:57Z</time>
      </trkpt>
      <trkpt lat="46.89486" lon="-0.99807">
        <ele>171.25</ele>
        <time>2020-10-11T09:13:05Z</time>
      </trkpt>
      <trkpt lat="46.89475" lon="-0.99815">
        <ele>171.25</ele>
        <time>2020-10-11T09:13:13Z</time>
      </trkpt>
      <trkpt lat="46.89465" lon="-0.99822">
        <ele>171.25</ele>
        <time>2020-10-11T09:13:22Z</time>
      </trkpt>
      <trkpt lat="46.89455" lon="-0.99829">
        <ele>170.28999328613</ele>
        <time>2020-10-11T09:13:31Z</time>
      </trkpt>
      <trkpt lat="46.89447" lon="-0.99835">
        <ele>170.28999328613</ele>
        <time>2020-10-11T09:13:39Z</time>
      </trkpt>
      <trkpt lat="46.89436" lon="-0.99842">
        <ele>169.80999755859</ele>
        <time>2020-10-11T09:13:49Z</time>
      </trkpt>
      <trkpt lat="46.89424" lon="-0.99841">
        <ele>169.33000183106</ele>
        <time>2020-10-11T09:13:59Z</time>
      </trkpt>
      <trkpt lat="46.8941" lon="-0.99838">
        <ele>168.85000610352</ele>
        <time>2020-10-11T09:14:09Z</time>
      </trkpt>
      <trkpt lat="46.894" lon="-0.99838">
        <ele>168.85000610352</ele>
        <time>2020-10-11T09:14:20Z</time>
      </trkpt>
      <trkpt lat="46.89386" lon="-0.99837">
        <ele>167.88999938965</ele>
        <time>2020-10-11T09:14:32Z</time>
      </trkpt>
      <trkpt lat="46.89376" lon="-0.99844">
        <ele>167.41000366211</ele>
        <time>2020-10-11T09:14:42Z</time>
      </trkpt>
      <trkpt lat="46.89362" lon="-0.99847">
        <ele>166.92999267578</ele>
        <time>2020-10-11T09:14:51Z</time>
      </trkpt>
      <trkpt lat="46.89349" lon="-0.99852">
        <ele>166.44999694824</ele>
        <time>2020-10-11T09:15:01Z</time>
      </trkpt>
      <trkpt lat="46.89336" lon="-0.9986">
        <ele>166.44999694824</ele>
        <time>2020-10-11T09:15:11Z</time>
      </trkpt>
      <trkpt lat="46.89325" lon="-0.99869">
        <ele>165.96000671387</ele>
        <time>2020-10-11T09:15:20Z</time>
      </trkpt>
      <trkpt lat="46.89316" lon="-0.99879">
        <ele>165.47999572754</ele>
        <time>2020-10-11T09:15:28Z</time>
      </trkpt>
      <trkpt lat="46.89307" lon="-0.9989">
        <ele>165</ele>
        <time>2020-10-11T09:15:38Z</time>
      </trkpt>
      <trkpt lat="46.89298" lon="-0.99905">
        <ele>164.52000427246</ele>
        <time>2020-10-11T09:15:50Z</time>
      </trkpt>
      <trkpt lat="46.89286" lon="-0.99922">
        <ele>164.03999328613</ele>
        <time>2020-10-11T09:16:02Z</time>
      </trkpt>
      <trkpt lat="46.89274" lon="-0.99937">
        <ele>163.55999755859</ele>
        <time>2020-10-11T09:16:16Z</time>
      </trkpt>
      <trkpt lat="46.89258" lon="-0.99956">
        <ele>162.60000610352</ele>
        <time>2020-10-11T09:16:34Z</time>
      </trkpt>
      <trkpt lat="46.89241" lon="-0.99972">
        <ele>161.16000366211</ele>
        <time>2020-10-11T09:16:51Z</time>
      </trkpt>
      <trkpt lat="46.89222" lon="-0.9998">
        <ele>160.19999694824</ele>
        <time>2020-10-11T09:17:08Z</time>
      </trkpt>
      <trkpt lat="46.89208" lon="-0.99981">
        <ele>158.75</ele>
        <time>2020-10-11T09:17:21Z</time>
      </trkpt>
      <trkpt lat="46.89194" lon="-0.99981">
        <ele>158.27000427246</ele>
        <time>2020-10-11T09:17:35Z</time>
      </trkpt>
      <trkpt lat="46.89182" lon="-0.99983">
        <ele>157.78999328613</ele>
        <time>2020-10-11T09:17:44Z</time>
      </trkpt>
      <trkpt lat="46.89169" lon="-0.9999">
        <ele>157.78999328613</ele>
        <time>2020-10-11T09:17:53Z</time>
      </trkpt>
      <trkpt lat="46.89159" lon="-0.99998">
        <ele>157.30999755859</ele>
        <time>2020-10-11T09:18:02Z</time>
      </trkpt>
      <trkpt lat="46.89149" lon="-1.00004">
        <ele>156.83000183106</ele>
        <time>2020-10-11T09:18:13Z</time>
      </trkpt>
      <trkpt lat="46.89138" lon="-1.0001">
        <ele>156.35000610352</ele>
        <time>2020-10-11T09:18:23Z</time>
      </trkpt>
      <trkpt lat="46.89129" lon="-1.00022">
        <ele>156.35000610352</ele>
        <time>2020-10-11T09:18:31Z</time>
      </trkpt>
      <trkpt lat="46.8912" lon="-1.00032">
        <ele>156.35000610352</ele>
        <time>2020-10-11T09:18:39Z</time>
      </trkpt>
      <trkpt lat="46.8911" lon="-1.0004">
        <ele>156.35000610352</ele>
        <time>2020-10-11T09:18:47Z</time>
      </trkpt>
      <trkpt lat="46.89099" lon="-1.00045">
        <ele>156.35000610352</ele>
        <time>2020-10-11T09:18:56Z</time>
      </trkpt>
      <trkpt lat="46.89088" lon="-1.00046">
        <ele>156.35000610352</ele>
        <time>2020-10-11T09:19:05Z</time>
      </trkpt>
      <trkpt lat="46.89074" lon="-1.00045">
        <ele>156.35000610352</ele>
        <time>2020-10-11T09:19:14Z</time>
      </trkpt>
      <trkpt lat="46.89064" lon="-1.00043">
        <ele>155.86999511719</ele>
        <time>2020-10-11T09:19:23Z</time>
      </trkpt>
      <trkpt lat="46.89053" lon="-1.00041">
        <ele>155.86999511719</ele>
        <time>2020-10-11T09:19:32Z</time>
      </trkpt>
      <trkpt lat="46.8904" lon="-1.00035">
        <ele>155.86999511719</ele>
        <time>2020-10-11T09:19:42Z</time>
      </trkpt>
      <trkpt lat="46.89029" lon="-1.00029">
        <ele>155.86999511719</ele>
        <time>2020-10-11T09:19:51Z</time>
      </trkpt>
      <trkpt lat="46.89005" lon="-1.00021">
        <ele>157.78999328613</ele>
        <time>2020-10-11T09:20:36Z</time>
      </trkpt>
      <trkpt lat="46.88949" lon="-1.00022">
        <ele>163.55999755859</ele>
        <time>2020-10-11T09:21:37Z</time>
      </trkpt>
      <trkpt lat="46.88937" lon="-1.00024">
        <ele>163.55999755859</ele>
        <time>2020-10-11T09:21:48Z</time>
      </trkpt>
      <trkpt lat="46.88915" lon="-1.00032">
        <ele>158.75</ele>
        <time>2020-10-11T09:22:07Z</time>
      </trkpt>
      <trkpt lat="46.88896" lon="-1.00042">
        <ele>156.83000183106</ele>
        <time>2020-10-11T09:22:19Z</time>
      </trkpt>
      <trkpt lat="46.88884" lon="-1.00047">
        <ele>156.83000183106</ele>
        <time>2020-10-11T09:23:03Z</time>
      </trkpt>
      <trkpt lat="46.88874" lon="-1.00051">
        <ele>155.86999511719</ele>
        <time>2020-10-11T09:23:13Z</time>
      </trkpt>
      <trkpt lat="46.88863" lon="-1.00056">
        <ele>155.38999938965</ele>
        <time>2020-10-11T09:23:22Z</time>
      </trkpt>
      <trkpt lat="46.88854" lon="-1.0006">
        <ele>154.91000366211</ele>
        <time>2020-10-11T09:23:30Z</time>
      </trkpt>
      <trkpt lat="46.88844" lon="-1.00066">
        <ele>153.94999694824</ele>
        <time>2020-10-11T09:23:38Z</time>
      </trkpt>
      <trkpt lat="46.88834" lon="-1.00072">
        <ele>152.99000549316</ele>
        <time>2020-10-11T09:23:46Z</time>
      </trkpt>
      <trkpt lat="46.88822" lon="-1.00077">
        <ele>152.0299987793</ele>
        <time>2020-10-11T09:23:55Z</time>
      </trkpt>
      <trkpt lat="46.88811" lon="-1.00079">
        <ele>151.05999755859</ele>
        <time>2020-10-11T09:24:04Z</time>
      </trkpt>
      <trkpt lat="46.88801" lon="-1.0008">
        <ele>149.61999511719</ele>
        <time>2020-10-11T09:24:13Z</time>
      </trkpt>
      <trkpt lat="46.88791" lon="-1.00077">
        <ele>149.13999938965</ele>
        <time>2020-10-11T09:24:22Z</time>
      </trkpt>
      <trkpt lat="46.8878" lon="-1.00075">
        <ele>147.69999694824</ele>
        <time>2020-10-11T09:24:31Z</time>
      </trkpt>
      <trkpt lat="46.88768" lon="-1.00071">
        <ele>146.25999450684</ele>
        <time>2020-10-11T09:24:40Z</time>
      </trkpt>
      <trkpt lat="46.88756" lon="-1.00068">
        <ele>145.30000305176</ele>
        <time>2020-10-11T09:24:51Z</time>
      </trkpt>
      <trkpt lat="46.88745" lon="-1.00066">
        <ele>143.85000610352</ele>
        <time>2020-10-11T09:25:01Z</time>
      </trkpt>
      <trkpt lat="46.88732" lon="-1.00063">
        <ele>141.92999267578</ele>
        <time>2020-10-11T09:25:12Z</time>
      </trkpt>
      <trkpt lat="46.8872" lon="-1.00061">
        <ele>140.9700012207</ele>
        <time>2020-10-11T09:25:20Z</time>
      </trkpt>
      <trkpt lat="46.88709" lon="-1.00059">
        <ele>140.00999450684</ele>
        <time>2020-10-11T09:25:29Z</time>
      </trkpt>
      <trkpt lat="46.88698" lon="-1.00051">
        <ele>139.5299987793</ele>
        <time>2020-10-11T09:25:37Z</time>
      </trkpt>
      <trkpt lat="46.88687" lon="-1.0004">
        <ele>138.57000732422</ele>
        <time>2020-10-11T09:25:46Z</time>
      </trkpt>
      <trkpt lat="46.88673" lon="-1.00027">
        <ele>138.08999633789</ele>
        <time>2020-10-11T09:25:55Z</time>
      </trkpt>
      <trkpt lat="46.88661" lon="-1.0003">
        <ele>138.08999633789</ele>
        <time>2020-10-11T09:26:09Z</time>
      </trkpt>
      <trkpt lat="46.88654" lon="-1.0004">
        <ele>138.08999633789</ele>
        <time>2020-10-11T09:26:24Z</time>
      </trkpt>
      <trkpt lat="46.88652" lon="-1.00052">
        <ele>138.08999633789</ele>
        <time>2020-10-11T09:26:53Z</time>
      </trkpt>
      <trkpt lat="46.88652" lon="-1.00068">
        <ele>139.05000305176</ele>
        <time>2020-10-11T09:27:02Z</time>
      </trkpt>
      <trkpt lat="46.88652" lon="-1.00082">
        <ele>139.5299987793</ele>
        <time>2020-10-11T09:27:11Z</time>
      </trkpt>
      <trkpt lat="46.88653" lon="-1.00098">
        <ele>139.5299987793</ele>
        <time>2020-10-11T09:27:20Z</time>
      </trkpt>
      <trkpt lat="46.88654" lon="-1.00113">
        <ele>139.5299987793</ele>
        <time>2020-10-11T09:27:28Z</time>
      </trkpt>
      <trkpt lat="46.88656" lon="-1.00128">
        <ele>139.5299987793</ele>
        <time>2020-10-11T09:27:37Z</time>
      </trkpt>
      <trkpt lat="46.88656" lon="-1.00144">
        <ele>140.00999450684</ele>
        <time>2020-10-11T09:27:45Z</time>
      </trkpt>
      <trkpt lat="46.88656" lon="-1.0016">
        <ele>140.49000549316</ele>
        <time>2020-10-11T09:27:54Z</time>
      </trkpt>
      <trkpt lat="46.88657" lon="-1.00176">
        <ele>140.9700012207</ele>
        <time>2020-10-11T09:28:04Z</time>
      </trkpt>
      <trkpt lat="46.88659" lon="-1.00196">
        <ele>141.44999694824</ele>
        <time>2020-10-11T09:28:16Z</time>
      </trkpt>
      <trkpt lat="46.88658" lon="-1.00214">
        <ele>141.92999267578</ele>
        <time>2020-10-11T09:28:28Z</time>
      </trkpt>
      <trkpt lat="46.8866" lon="-1.00233">
        <ele>141.92999267578</ele>
        <time>2020-10-11T09:28:42Z</time>
      </trkpt>
      <trkpt lat="46.88666" lon="-1.00248">
        <ele>141.92999267578</ele>
        <time>2020-10-11T09:28:53Z</time>
      </trkpt>
      <trkpt lat="46.88703" lon="-1.00289">
        <ele>141.92999267578</ele>
        <time>2020-10-11T09:29:39Z</time>
      </trkpt>
      <trkpt lat="46.88719" lon="-1.00297">
        <ele>143.85000610352</ele>
        <time>2020-10-11T09:29:50Z</time>
      </trkpt>
      <trkpt lat="46.88723" lon="-1.00313">
        <ele>144.33999633789</ele>
        <time>2020-10-11T09:30:01Z</time>
      </trkpt>
      <trkpt lat="46.88729" lon="-1.00333">
        <ele>145.30000305176</ele>
        <time>2020-10-11T09:30:15Z</time>
      </trkpt>
      <trkpt lat="46.8873" lon="-1.00363">
        <ele>145.7799987793</ele>
        <time>2020-10-11T09:30:30Z</time>
      </trkpt>
      <trkpt lat="46.88735" lon="-1.00377">
        <ele>146.74000549316</ele>
        <time>2020-10-11T09:30:41Z</time>
      </trkpt>
      <trkpt lat="46.88741" lon="-1.00391">
        <ele>147.69999694824</ele>
        <time>2020-10-11T09:30:52Z</time>
      </trkpt>
      <trkpt lat="46.88749" lon="-1.00405">
        <ele>149.13999938965</ele>
        <time>2020-10-11T09:31:02Z</time>
      </trkpt>
      <trkpt lat="46.88758" lon="-1.00417">
        <ele>150.10000610352</ele>
        <time>2020-10-11T09:31:12Z</time>
      </trkpt>
      <trkpt lat="46.88766" lon="-1.0043">
        <ele>150.58000183106</ele>
        <time>2020-10-11T09:31:22Z</time>
      </trkpt>
      <trkpt lat="46.88775" lon="-1.00444">
        <ele>150.58000183106</ele>
        <time>2020-10-11T09:31:33Z</time>
      </trkpt>
      <trkpt lat="46.88784" lon="-1.00457">
        <ele>151.05999755859</ele>
        <time>2020-10-11T09:31:43Z</time>
      </trkpt>
      <trkpt lat="46.88792" lon="-1.00471">
        <ele>151.53999328613</ele>
        <time>2020-10-11T09:31:54Z</time>
      </trkpt>
      <trkpt lat="46.888" lon="-1.00483">
        <ele>151.53999328613</ele>
        <time>2020-10-11T09:32:05Z</time>
      </trkpt>
      <trkpt lat="46.88807" lon="-1.00499">
        <ele>152.0299987793</ele>
        <time>2020-10-11T09:32:15Z</time>
      </trkpt>
      <trkpt lat="46.88814" lon="-1.00515">
        <ele>152.50999450684</ele>
        <time>2020-10-11T09:32:25Z</time>
      </trkpt>
      <trkpt lat="46.88821" lon="-1.00529">
        <ele>152.99000549316</ele>
        <time>2020-10-11T09:32:35Z</time>
      </trkpt>
      <trkpt lat="46.88831" lon="-1.0054">
        <ele>153.4700012207</ele>
        <time>2020-10-11T09:32:46Z</time>
      </trkpt>
      <trkpt lat="46.88841" lon="-1.0055">
        <ele>153.94999694824</ele>
        <time>2020-10-11T09:32:56Z</time>
      </trkpt>
      <trkpt lat="46.88849" lon="-1.00565">
        <ele>154.42999267578</ele>
        <time>2020-10-11T09:33:07Z</time>
      </trkpt>
      <trkpt lat="46.8886" lon="-1.00578">
        <ele>154.42999267578</ele>
        <time>2020-10-11T09:33:19Z</time>
      </trkpt>
      <trkpt lat="46.88868" lon="-1.00591">
        <ele>154.91000366211</ele>
        <time>2020-10-11T09:33:30Z</time>
      </trkpt>
      <trkpt lat="46.88874" lon="-1.00607">
        <ele>154.91000366211</ele>
        <time>2020-10-11T09:33:40Z</time>
      </trkpt>
      <trkpt lat="46.88881" lon="-1.00623">
        <ele>155.86999511719</ele>
        <time>2020-10-11T09:33:51Z</time>
      </trkpt>
      <trkpt lat="46.88891" lon="-1.00636">
        <ele>157.30999755859</ele>
        <time>2020-10-11T09:34:02Z</time>
      </trkpt>
      <trkpt lat="46.88899" lon="-1.0065">
        <ele>158.75</ele>
        <time>2020-10-11T09:34:14Z</time>
      </trkpt>
      <trkpt lat="46.88908" lon="-1.00667">
        <ele>160.67999267578</ele>
        <time>2020-10-11T09:34:27Z</time>
      </trkpt>
      <trkpt lat="46.88914" lon="-1.00685">
        <ele>162.60000610352</ele>
        <time>2020-10-11T09:35:32Z</time>
      </trkpt>
      <trkpt lat="46.88925" lon="-1.00712">
        <ele>163.08000183106</ele>
        <time>2020-10-11T09:36:18Z</time>
      </trkpt>
      <trkpt lat="46.8894" lon="-1.0072">
        <ele>163.55999755859</ele>
        <time>2020-10-11T09:36:32Z</time>
      </trkpt>
      <trkpt lat="46.88954" lon="-1.00717">
        <ele>163.55999755859</ele>
        <time>2020-10-11T09:36:45Z</time>
      </trkpt>
      <trkpt lat="46.89011" lon="-1.00688">
        <ele>168.85000610352</ele>
        <time>2020-10-11T09:37:34Z</time>
      </trkpt>
      <trkpt lat="46.89023" lon="-1.00678">
        <ele>169.80999755859</ele>
        <time>2020-10-11T09:37:46Z</time>
      </trkpt>
      <trkpt lat="46.89036" lon="-1.00663">
        <ele>172.21000671387</ele>
        <time>2020-10-11T09:38:03Z</time>
      </trkpt>
      <trkpt lat="46.89043" lon="-1.00647">
        <ele>174.61999511719</ele>
        <time>2020-10-11T09:38:19Z</time>
      </trkpt>
      <trkpt lat="46.89053" lon="-1.00623">
        <ele>176.05999755859</ele>
        <time>2020-10-11T09:38:38Z</time>
      </trkpt>
      <trkpt lat="46.89068" lon="-1.00597">
        <ele>177.5</ele>
        <time>2020-10-11T09:38:57Z</time>
      </trkpt>
      <trkpt lat="46.89079" lon="-1.00583">
        <ele>177.97999572754</ele>
        <time>2020-10-11T09:39:07Z</time>
      </trkpt>
      <trkpt lat="46.89089" lon="-1.0057">
        <ele>177.97999572754</ele>
        <time>2020-10-11T09:39:16Z</time>
      </trkpt>
      <trkpt lat="46.89098" lon="-1.00561">
        <ele>177.5</ele>
        <time>2020-10-11T09:39:25Z</time>
      </trkpt>
      <trkpt lat="46.89107" lon="-1.00551">
        <ele>177.5</ele>
        <time>2020-10-11T09:39:33Z</time>
      </trkpt>
      <trkpt lat="46.89116" lon="-1.00543">
        <ele>177.5</ele>
        <time>2020-10-11T09:39:42Z</time>
      </trkpt>
      <trkpt lat="46.89128" lon="-1.00535">
        <ele>177.5</ele>
        <time>2020-10-11T09:39:53Z</time>
      </trkpt>
      <trkpt lat="46.8914" lon="-1.00525">
        <ele>178.46000671387</ele>
        <time>2020-10-11T09:40:05Z</time>
      </trkpt>
      <trkpt lat="46.89151" lon="-1.00517">
        <ele>181.35000610352</ele>
        <time>2020-10-11T09:40:16Z</time>
      </trkpt>
      <trkpt lat="46.89161" lon="-1.00506">
        <ele>183.27000427246</ele>
        <time>2020-10-11T09:40:27Z</time>
      </trkpt>
      <trkpt lat="46.89176" lon="-1.00489">
        <ele>185.19000244141</ele>
        <time>2020-10-11T09:40:46Z</time>
      </trkpt>
      <trkpt lat="46.8919" lon="-1.0048">
        <ele>186.63000488281</ele>
        <time>2020-10-11T09:41:01Z</time>
      </trkpt>
      <trkpt lat="46.89203" lon="-1.00472">
        <ele>187.58999633789</ele>
        <time>2020-10-11T09:41:12Z</time>
      </trkpt>
      <trkpt lat="46.89217" lon="-1.00474">
        <ele>189.03999328613</ele>
        <time>2020-10-11T09:41:23Z</time>
      </trkpt>
      <trkpt lat="46.89228" lon="-1.00485">
        <ele>190.47999572754</ele>
        <time>2020-10-11T09:41:59Z</time>
      </trkpt>
      <trkpt lat="46.89237" lon="-1.00496">
        <ele>191.91999816894</ele>
        <time>2020-10-11T09:42:12Z</time>
      </trkpt>
      <trkpt lat="46.89246" lon="-1.00512">
        <ele>193.36000061035</ele>
        <time>2020-10-11T09:42:23Z</time>
      </trkpt>
      <trkpt lat="46.89251" lon="-1.00529">
        <ele>195.2799987793</ele>
        <time>2020-10-11T09:42:34Z</time>
      </trkpt>
      <trkpt lat="46.89259" lon="-1.0055">
        <ele>199.13000488281</ele>
        <time>2020-10-11T09:42:54Z</time>
      </trkpt>
      <trkpt lat="46.89271" lon="-1.00569">
        <ele>203.46000671387</ele>
        <time>2020-10-11T09:43:17Z</time>
      </trkpt>
      <trkpt lat="46.89278" lon="-1.00585">
        <ele>205.86000061035</ele>
        <time>2020-10-11T09:43:30Z</time>
      </trkpt>
      <trkpt lat="46.89288" lon="-1.00596">
        <ele>207.7799987793</ele>
        <time>2020-10-11T09:43:43Z</time>
      </trkpt>
      <trkpt lat="46.89298" lon="-1.00607">
        <ele>209.69999694824</ele>
        <time>2020-10-11T09:43:59Z</time>
      </trkpt>
      <trkpt lat="46.89309" lon="-1.00616">
        <ele>210.66999816894</ele>
        <time>2020-10-11T09:44:12Z</time>
      </trkpt>
      <trkpt lat="46.89318" lon="-1.00629">
        <ele>212.58999633789</ele>
        <time>2020-10-11T09:44:25Z</time>
      </trkpt>
      <trkpt lat="46.89328" lon="-1.00642">
        <ele>213.55000305176</ele>
        <time>2020-10-11T09:44:38Z</time>
      </trkpt>
      <trkpt lat="46.89338" lon="-1.00655">
        <ele>214.99000549316</ele>
        <time>2020-10-11T09:44:49Z</time>
      </trkpt>
      <trkpt lat="46.89345" lon="-1.00669">
        <ele>215.94999694824</ele>
        <time>2020-10-11T09:45:00Z</time>
      </trkpt>
      <trkpt lat="46.89352" lon="-1.00687">
        <ele>216.91000366211</ele>
        <time>2020-10-11T09:45:18Z</time>
      </trkpt>
      <trkpt lat="46.89359" lon="-1.00703">
        <ele>217.88000488281</ele>
        <time>2020-10-11T09:45:31Z</time>
      </trkpt>
      <trkpt lat="46.89366" lon="-1.00716">
        <ele>218.36000061035</ele>
        <time>2020-10-11T09:45:43Z</time>
      </trkpt>
      <trkpt lat="46.89373" lon="-1.00729">
        <ele>219.80000305176</ele>
        <time>2020-10-11T09:45:54Z</time>
      </trkpt>
      <trkpt lat="46.89382" lon="-1.00737">
        <ele>220.2799987793</ele>
        <time>2020-10-11T09:46:08Z</time>
      </trkpt>
      <trkpt lat="46.89391" lon="-1.00746">
        <ele>220.75999450684</ele>
        <time>2020-10-11T09:46:19Z</time>
      </trkpt>
      <trkpt lat="46.89399" lon="-1.00748">
        <ele>222.19999694824</ele>
        <time>2020-10-11T09:49:01Z</time>
      </trkpt>
      <trkpt lat="46.89404" lon="-1.00742">
        <ele>223.16000366211</ele>
        <time>2020-10-11T09:50:02Z</time>
      </trkpt>
      <trkpt lat="46.89408" lon="-1.00755">
        <ele>222.19999694824</ele>
        <time>2020-10-11T09:51:01Z</time>
      </trkpt>
      <trkpt lat="46.89414" lon="-1.0077">
        <ele>222.19999694824</ele>
        <time>2020-10-11T09:51:11Z</time>
      </trkpt>
      <trkpt lat="46.89419" lon="-1.00792">
        <ele>222.19999694824</ele>
        <time>2020-10-11T09:51:27Z</time>
      </trkpt>
      <trkpt lat="46.89418" lon="-1.00809">
        <ele>222.19999694824</ele>
        <time>2020-10-11T09:51:38Z</time>
      </trkpt>
      <trkpt lat="46.89418" lon="-1.00824">
        <ele>222.19999694824</ele>
        <time>2020-10-11T09:51:47Z</time>
      </trkpt>
      <trkpt lat="46.89421" lon="-1.00838">
        <ele>221.7200012207</ele>
        <time>2020-10-11T09:51:57Z</time>
      </trkpt>
      <trkpt lat="46.89425" lon="-1.0085">
        <ele>222.19999694824</ele>
        <time>2020-10-11T09:52:05Z</time>
      </trkpt>
      <trkpt lat="46.8943" lon="-1.00862">
        <ele>221.24000549316</ele>
        <time>2020-10-11T09:52:13Z</time>
      </trkpt>
      <trkpt lat="46.89438" lon="-1.00875">
        <ele>220.75999450684</ele>
        <time>2020-10-11T09:52:23Z</time>
      </trkpt>
      <trkpt lat="46.89448" lon="-1.00904">
        <ele>220.2799987793</ele>
        <time>2020-10-11T09:52:52Z</time>
      </trkpt>
      <trkpt lat="46.8946" lon="-1.00941">
        <ele>221.7200012207</ele>
        <time>2020-10-11T09:53:18Z</time>
      </trkpt>
      <trkpt lat="46.89468" lon="-1.00957">
        <ele>221.7200012207</ele>
        <time>2020-10-11T09:53:27Z</time>
      </trkpt>
      <trkpt lat="46.89473" lon="-1.00974">
        <ele>221.7200012207</ele>
        <time>2020-10-11T09:53:35Z</time>
      </trkpt>
      <trkpt lat="46.89476" lon="-1.00989">
        <ele>222.19999694824</ele>
        <time>2020-10-11T09:53:45Z</time>
      </trkpt>
      <trkpt lat="46.89483" lon="-1.01004">
        <ele>223.16000366211</ele>
        <time>2020-10-11T09:53:57Z</time>
      </trkpt>
      <trkpt lat="46.89486" lon="-1.01017">
        <ele>223.63999938965</ele>
        <time>2020-10-11T09:54:07Z</time>
      </trkpt>
      <trkpt lat="46.8949" lon="-1.01031">
        <ele>224.11999511719</ele>
        <time>2020-10-11T09:54:17Z</time>
      </trkpt>
      <trkpt lat="46.89499" lon="-1.01052">
        <ele>224.11999511719</ele>
        <time>2020-10-11T09:54:33Z</time>
      </trkpt>
      <trkpt lat="46.89521" lon="-1.01085">
        <ele>224.11999511719</ele>
        <time>2020-10-11T09:55:04Z</time>
      </trkpt>
      <trkpt lat="46.89563" lon="-1.01141">
        <ele>219.32000732422</ele>
        <time>2020-10-11T09:56:10Z</time>
      </trkpt>
      <trkpt lat="46.89629" lon="-1.01429">
        <ele>202.00999450684</ele>
        <time>2020-10-11T09:59:08Z</time>
      </trkpt>
      <trkpt lat="46.89637" lon="-1.01471">
        <ele>201.05000305176</ele>
        <time>2020-10-11T09:59:27Z</time>
      </trkpt>
      <trkpt lat="46.89661" lon="-1.01476">
        <ele>198.64999389648</ele>
        <time>2020-10-11T09:59:56Z</time>
      </trkpt>
      <trkpt lat="46.89762" lon="-1.01421">
        <ele>187.11000061035</ele>
        <time>2020-10-11T10:01:40Z</time>
      </trkpt>
      <trkpt lat="46.8978" lon="-1.01409">
        <ele>185.19000244141</ele>
        <time>2020-10-11T10:01:53Z</time>
      </trkpt>
      <trkpt lat="46.89791" lon="-1.014">
        <ele>182.78999328613</ele>
        <time>2020-10-11T10:02:05Z</time>
      </trkpt>
      <trkpt lat="46.89798" lon="-1.01383">
        <ele>181.35000610352</ele>
        <time>2020-10-11T10:02:21Z</time>
      </trkpt>
      <trkpt lat="46.89816" lon="-1.01332">
        <ele>180.86999511719</ele>
        <time>2020-10-11T10:04:09Z</time>
      </trkpt>
      <trkpt lat="46.89851" lon="-1.01371">
        <ele>187.11000061035</ele>
        <time>2020-10-11T10:05:12Z</time>
      </trkpt>
      <trkpt lat="46.89874" lon="-1.01401">
        <ele>190.96000671387</ele>
        <time>2020-10-11T10:05:46Z</time>
      </trkpt>
      <trkpt lat="46.89917" lon="-1.01483">
        <ele>187.11000061035</ele>
        <time>2020-10-11T10:06:53Z</time>
      </trkpt>
      <trkpt lat="46.89948" lon="-1.01532">
        <ele>183.27000427246</ele>
        <time>2020-10-11T10:07:31Z</time>
      </trkpt>
      <trkpt lat="46.90089" lon="-1.01809">
        <ele>142.41000366211</ele>
        <time>2020-10-11T10:11:46Z</time>
      </trkpt>
      <trkpt lat="46.90099" lon="-1.01826">
        <ele>138.57000732422</ele>
        <time>2020-10-11T10:12:08Z</time>
      </trkpt>
      <trkpt lat="46.90114" lon="-1.01828">
        <ele>137.61000061035</ele>
        <time>2020-10-11T10:12:20Z</time>
      </trkpt>
      <trkpt lat="46.90167" lon="-1.01911">
        <ele>138.57000732422</ele>
        <time>2020-10-11T10:13:43Z</time>
      </trkpt>
      <trkpt lat="46.90147" lon="-1.01949">
        <ele>140.9700012207</ele>
        <time>2020-10-11T10:14:53Z</time>
      </trkpt>
      <trkpt lat="46.90133" lon="-1.01956">
        <ele>141.92999267578</ele>
        <time>2020-10-11T10:15:16Z</time>
      </trkpt>
      <trkpt lat="46.90107" lon="-1.01938">
        <ele>147.69999694824</ele>
        <time>2020-10-11T10:15:51Z</time>
      </trkpt>
      <trkpt lat="46.90092" lon="-1.01923">
        <ele>151.05999755859</ele>
        <time>2020-10-11T10:16:11Z</time>
      </trkpt>
      <trkpt lat="46.90085" lon="-1.01911">
        <ele>150.58000183106</ele>
        <time>2020-10-11T10:16:20Z</time>
      </trkpt>
      <trkpt lat="46.90075" lon="-1.01904">
        <ele>153.4700012207</ele>
        <time>2020-10-11T10:16:31Z</time>
      </trkpt>
      <trkpt lat="46.90065" lon="-1.01898">
        <ele>154.91000366211</ele>
        <time>2020-10-11T10:16:42Z</time>
      </trkpt>
      <trkpt lat="46.90055" lon="-1.01892">
        <ele>155.86999511719</ele>
        <time>2020-10-11T10:16:54Z</time>
      </trkpt>
      <trkpt lat="46.90041" lon="-1.01889">
        <ele>157.30999755859</ele>
        <time>2020-10-11T10:17:05Z</time>
      </trkpt>
      <trkpt lat="46.9003" lon="-1.01884">
        <ele>158.27000427246</ele>
        <time>2020-10-11T10:17:15Z</time>
      </trkpt>
      <trkpt lat="46.90019" lon="-1.01882">
        <ele>159.7200012207</ele>
        <time>2020-10-11T10:17:27Z</time>
      </trkpt>
      <trkpt lat="46.90008" lon="-1.01884">
        <ele>161.16000366211</ele>
        <time>2020-10-11T10:17:38Z</time>
      </trkpt>
      <trkpt lat="46.89995" lon="-1.01888">
        <ele>161.63999938965</ele>
        <time>2020-10-11T10:17:49Z</time>
      </trkpt>
      <trkpt lat="46.89986" lon="-1.01895">
        <ele>161.63999938965</ele>
        <time>2020-10-11T10:17:58Z</time>
      </trkpt>
      <trkpt lat="46.89927" lon="-1.01919">
        <ele>165.96000671387</ele>
        <time>2020-10-11T10:19:06Z</time>
      </trkpt>
      <trkpt lat="46.89908" lon="-1.01913">
        <ele>166.92999267578</ele>
        <time>2020-10-11T10:19:26Z</time>
      </trkpt>
      <trkpt lat="46.89889" lon="-1.01909">
        <ele>168.85000610352</ele>
        <time>2020-10-11T10:19:42Z</time>
      </trkpt>
      <trkpt lat="46.89876" lon="-1.01906">
        <ele>169.80999755859</ele>
        <time>2020-10-11T10:19:55Z</time>
      </trkpt>
      <trkpt lat="46.89864" lon="-1.01907">
        <ele>170.77000427246</ele>
        <time>2020-10-11T10:20:07Z</time>
      </trkpt>
      <trkpt lat="46.8985" lon="-1.01907">
        <ele>171.25</ele>
        <time>2020-10-11T10:20:20Z</time>
      </trkpt>
      <trkpt lat="46.89839" lon="-1.01909">
        <ele>172.21000671387</ele>
        <time>2020-10-11T10:20:32Z</time>
      </trkpt>
      <trkpt lat="46.89828" lon="-1.01914">
        <ele>173.16999816894</ele>
        <time>2020-10-11T10:20:43Z</time>
      </trkpt>
      <trkpt lat="46.89806" lon="-1.01959">
        <ele>172.21000671387</ele>
        <time>2020-10-11T10:23:43Z</time>
      </trkpt>
      <trkpt lat="46.8982" lon="-1.02014">
        <ele>169.80999755859</ele>
        <time>2020-10-11T10:24:26Z</time>
      </trkpt>
      <trkpt lat="46.89832" lon="-1.02037">
        <ele>168.85000610352</ele>
        <time>2020-10-11T10:24:42Z</time>
      </trkpt>
      <trkpt lat="46.89877" lon="-1.02099">
        <ele>165.96000671387</ele>
        <time>2020-10-11T10:25:40Z</time>
      </trkpt>
      <trkpt lat="46.89887" lon="-1.02117">
        <ele>165.47999572754</ele>
        <time>2020-10-11T10:25:51Z</time>
      </trkpt>
      <trkpt lat="46.89903" lon="-1.02149">
        <ele>164.52000427246</ele>
        <time>2020-10-11T10:26:13Z</time>
      </trkpt>
      <trkpt lat="46.89911" lon="-1.02164">
        <ele>164.52000427246</ele>
        <time>2020-10-11T10:26:24Z</time>
      </trkpt>
      <trkpt lat="46.8992" lon="-1.02182">
        <ele>165</ele>
        <time>2020-10-11T10:26:36Z</time>
      </trkpt>
      <trkpt lat="46.89929" lon="-1.02197">
        <ele>164.52000427246</ele>
        <time>2020-10-11T10:26:45Z</time>
      </trkpt>
      <trkpt lat="46.89938" lon="-1.02209">
        <ele>164.52000427246</ele>
        <time>2020-10-11T10:26:55Z</time>
      </trkpt>
      <trkpt lat="46.89948" lon="-1.02223">
        <ele>164.52000427246</ele>
        <time>2020-10-11T10:27:06Z</time>
      </trkpt>
      <trkpt lat="46.89959" lon="-1.02235">
        <ele>164.03999328613</ele>
        <time>2020-10-11T10:27:17Z</time>
      </trkpt>
      <trkpt lat="46.89969" lon="-1.02249">
        <ele>163.08000183106</ele>
        <time>2020-10-11T10:27:29Z</time>
      </trkpt>
      <trkpt lat="46.89975" lon="-1.02265">
        <ele>162.11999511719</ele>
        <time>2020-10-11T10:27:38Z</time>
      </trkpt>
      <trkpt lat="46.8998" lon="-1.0228">
        <ele>161.63999938965</ele>
        <time>2020-10-11T10:27:48Z</time>
      </trkpt>
      <trkpt lat="46.89987" lon="-1.02293">
        <ele>160.67999267578</ele>
        <time>2020-10-11T10:27:57Z</time>
      </trkpt>
      <trkpt lat="46.89993" lon="-1.02307">
        <ele>160.19999694824</ele>
        <time>2020-10-11T10:28:06Z</time>
      </trkpt>
      <trkpt lat="46.89999" lon="-1.02322">
        <ele>160.67999267578</ele>
        <time>2020-10-11T10:28:16Z</time>
      </trkpt>
      <trkpt lat="46.90005" lon="-1.02337">
        <ele>160.19999694824</ele>
        <time>2020-10-11T10:28:27Z</time>
      </trkpt>
      <trkpt lat="46.90013" lon="-1.02354">
        <ele>160.19999694824</ele>
        <time>2020-10-11T10:28:36Z</time>
      </trkpt>
      <trkpt lat="46.90019" lon="-1.02369">
        <ele>160.19999694824</ele>
        <time>2020-10-11T10:28:44Z</time>
      </trkpt>
      <trkpt lat="46.90025" lon="-1.02383">
        <ele>160.19999694824</ele>
        <time>2020-10-11T10:28:52Z</time>
      </trkpt>
      <trkpt lat="46.90031" lon="-1.02397">
        <ele>160.19999694824</ele>
        <time>2020-10-11T10:29:00Z</time>
      </trkpt>
      <trkpt lat="46.90036" lon="-1.0241">
        <ele>161.16000366211</ele>
        <time>2020-10-11T10:29:08Z</time>
      </trkpt>
      <trkpt lat="46.90043" lon="-1.02425">
        <ele>161.16000366211</ele>
        <time>2020-10-11T10:29:17Z</time>
      </trkpt>
      <trkpt lat="46.90049" lon="-1.02437">
        <ele>161.16000366211</ele>
        <time>2020-10-11T10:29:25Z</time>
      </trkpt>
      <trkpt lat="46.90056" lon="-1.02449">
        <ele>161.63999938965</ele>
        <time>2020-10-11T10:29:34Z</time>
      </trkpt>
      <trkpt lat="46.90062" lon="-1.02461">
        <ele>161.63999938965</ele>
        <time>2020-10-11T10:29:42Z</time>
      </trkpt>
      <trkpt lat="46.90069" lon="-1.02473">
        <ele>161.63999938965</ele>
        <time>2020-10-11T10:29:50Z</time>
      </trkpt>
      <trkpt lat="46.90077" lon="-1.02484">
        <ele>161.63999938965</ele>
        <time>2020-10-11T10:29:58Z</time>
      </trkpt>
      <trkpt lat="46.90086" lon="-1.02497">
        <ele>161.63999938965</ele>
        <time>2020-10-11T10:30:07Z</time>
      </trkpt>
      <trkpt lat="46.90095" lon="-1.02507">
        <ele>161.63999938965</ele>
        <time>2020-10-11T10:30:16Z</time>
      </trkpt>
      <trkpt lat="46.90102" lon="-1.02517">
        <ele>161.63999938965</ele>
        <time>2020-10-11T10:30:24Z</time>
      </trkpt>
      <trkpt lat="46.90112" lon="-1.02531">
        <ele>160.19999694824</ele>
        <time>2020-10-11T10:30:34Z</time>
      </trkpt>
      <trkpt lat="46.90123" lon="-1.02544">
        <ele>159.24000549316</ele>
        <time>2020-10-11T10:30:45Z</time>
      </trkpt>
      <trkpt lat="46.90161" lon="-1.026">
        <ele>153.94999694824</ele>
        <time>2020-10-11T10:31:34Z</time>
      </trkpt>
      <trkpt lat="46.9017" lon="-1.02636">
        <ele>154.42999267578</ele>
        <time>2020-10-11T10:31:55Z</time>
      </trkpt>
      <trkpt lat="46.90159" lon="-1.02647">
        <ele>154.42999267578</ele>
        <time>2020-10-11T10:32:04Z</time>
      </trkpt>
      <trkpt lat="46.9015" lon="-1.02656">
        <ele>153.94999694824</ele>
        <time>2020-10-11T10:32:14Z</time>
      </trkpt>
      <trkpt lat="46.90142" lon="-1.02665">
        <ele>153.4700012207</ele>
        <time>2020-10-11T10:32:23Z</time>
      </trkpt>
      <trkpt lat="46.9013" lon="-1.02675">
        <ele>152.50999450684</ele>
        <time>2020-10-11T10:32:34Z</time>
      </trkpt>
      <trkpt lat="46.9012" lon="-1.02687">
        <ele>152.0299987793</ele>
        <time>2020-10-11T10:32:43Z</time>
      </trkpt>
      <trkpt lat="46.90108" lon="-1.02697">
        <ele>150.58000183106</ele>
        <time>2020-10-11T10:32:55Z</time>
      </trkpt>
      <trkpt lat="46.90097" lon="-1.02707">
        <ele>150.10000610352</ele>
        <time>2020-10-11T10:33:04Z</time>
      </trkpt>
      <trkpt lat="46.90088" lon="-1.02717">
        <ele>149.13999938965</ele>
        <time>2020-10-11T10:33:14Z</time>
      </trkpt>
      <trkpt lat="46.90102" lon="-1.0275">
        <ele>144.82000732422</ele>
        <time>2020-10-11T10:33:40Z</time>
      </trkpt>
      <trkpt lat="46.9011" lon="-1.0277">
        <ele>144.33999633789</ele>
        <time>2020-10-11T10:33:50Z</time>
      </trkpt>
      <trkpt lat="46.90117" lon="-1.02787">
        <ele>143.85000610352</ele>
        <time>2020-10-11T10:34:00Z</time>
      </trkpt>
      <trkpt lat="46.90124" lon="-1.02802">
        <ele>143.36999511719</ele>
        <time>2020-10-11T10:34:09Z</time>
      </trkpt>
      <trkpt lat="46.90132" lon="-1.02817">
        <ele>142.88999938965</ele>
        <time>2020-10-11T10:34:19Z</time>
      </trkpt>
      <trkpt lat="46.9014" lon="-1.02831">
        <ele>142.88999938965</ele>
        <time>2020-10-11T10:34:31Z</time>
      </trkpt>
      <trkpt lat="46.9015" lon="-1.02849">
        <ele>141.92999267578</ele>
        <time>2020-10-11T10:34:46Z</time>
      </trkpt>
      <trkpt lat="46.90156" lon="-1.0287">
        <ele>141.44999694824</ele>
        <time>2020-10-11T10:34:55Z</time>
      </trkpt>
      <trkpt lat="46.90162" lon="-1.02887">
        <ele>141.44999694824</ele>
        <time>2020-10-11T10:35:03Z</time>
      </trkpt>
      <trkpt lat="46.90167" lon="-1.02903">
        <ele>143.36999511719</ele>
        <time>2020-10-11T10:35:12Z</time>
      </trkpt>
      <trkpt lat="46.90172" lon="-1.02917">
        <ele>143.85000610352</ele>
        <time>2020-10-11T10:35:20Z</time>
      </trkpt>
      <trkpt lat="46.90177" lon="-1.02931">
        <ele>144.33999633789</ele>
        <time>2020-10-11T10:35:29Z</time>
      </trkpt>
      <trkpt lat="46.90183" lon="-1.02945">
        <ele>145.30000305176</ele>
        <time>2020-10-11T10:35:38Z</time>
      </trkpt>
      <trkpt lat="46.90188" lon="-1.02959">
        <ele>145.30000305176</ele>
        <time>2020-10-11T10:35:48Z</time>
      </trkpt>
      <trkpt lat="46.90194" lon="-1.02975">
        <ele>145.30000305176</ele>
        <time>2020-10-11T10:35:59Z</time>
      </trkpt>
      <trkpt lat="46.90198" lon="-1.0299">
        <ele>145.30000305176</ele>
        <time>2020-10-11T10:36:08Z</time>
      </trkpt>
      <trkpt lat="46.90203" lon="-1.03008">
        <ele>145.30000305176</ele>
        <time>2020-10-11T10:36:17Z</time>
      </trkpt>
      <trkpt lat="46.90202" lon="-1.03042">
        <ele>145.7799987793</ele>
        <time>2020-10-11T10:36:49Z</time>
      </trkpt>
      <trkpt lat="46.90192" lon="-1.03043">
        <ele>143.36999511719</ele>
        <time>2020-10-11T10:37:00Z</time>
      </trkpt>
      <trkpt lat="46.9018" lon="-1.03036">
        <ele>141.44999694824</ele>
        <time>2020-10-11T10:37:30Z</time>
      </trkpt>
      <trkpt lat="46.9017" lon="-1.0303">
        <ele>140.00999450684</ele>
        <time>2020-10-11T10:37:38Z</time>
      </trkpt>
      <trkpt lat="46.90159" lon="-1.03024">
        <ele>138.57000732422</ele>
        <time>2020-10-11T10:37:46Z</time>
      </trkpt>
      <trkpt lat="46.90148" lon="-1.03018">
        <ele>137.13000488281</ele>
        <time>2020-10-11T10:37:53Z</time>
      </trkpt>
      <trkpt lat="46.90135" lon="-1.03015">
        <ele>135.67999267578</ele>
        <time>2020-10-11T10:38:02Z</time>
      </trkpt>
      <trkpt lat="46.90126" lon="-1.03016">
        <ele>134.24000549316</ele>
        <time>2020-10-11T10:38:10Z</time>
      </trkpt>
      <trkpt lat="46.90116" lon="-1.03018">
        <ele>133.75999450684</ele>
        <time>2020-10-11T10:38:18Z</time>
      </trkpt>
      <trkpt lat="46.90105" lon="-1.0302">
        <ele>133.75999450684</ele>
        <time>2020-10-11T10:38:30Z</time>
      </trkpt>
      <trkpt lat="46.90095" lon="-1.03023">
        <ele>133.75999450684</ele>
        <time>2020-10-11T10:38:38Z</time>
      </trkpt>
      <trkpt lat="46.90086" lon="-1.03028">
        <ele>135.19999694824</ele>
        <time>2020-10-11T10:38:47Z</time>
      </trkpt>
      <trkpt lat="46.90076" lon="-1.03032">
        <ele>135.67999267578</ele>
        <time>2020-10-11T10:38:55Z</time>
      </trkpt>
      <trkpt lat="46.90067" lon="-1.03034">
        <ele>137.13000488281</ele>
        <time>2020-10-11T10:39:03Z</time>
      </trkpt>
      <trkpt lat="46.90058" lon="-1.03038">
        <ele>139.05000305176</ele>
        <time>2020-10-11T10:39:12Z</time>
      </trkpt>
      <trkpt lat="46.90048" lon="-1.0304">
        <ele>140.49000549316</ele>
        <time>2020-10-11T10:39:21Z</time>
      </trkpt>
      <trkpt lat="46.90039" lon="-1.03045">
        <ele>141.92999267578</ele>
        <time>2020-10-11T10:39:30Z</time>
      </trkpt>
      <trkpt lat="46.90028" lon="-1.03047">
        <ele>142.41000366211</ele>
        <time>2020-10-11T10:39:41Z</time>
      </trkpt>
      <trkpt lat="46.90019" lon="-1.03052">
        <ele>143.36999511719</ele>
        <time>2020-10-11T10:39:51Z</time>
      </trkpt>
      <trkpt lat="46.90009" lon="-1.03056">
        <ele>143.85000610352</ele>
        <time>2020-10-11T10:39:59Z</time>
      </trkpt>
      <trkpt lat="46.89998" lon="-1.03059">
        <ele>144.82000732422</ele>
        <time>2020-10-11T10:40:08Z</time>
      </trkpt>
      <trkpt lat="46.89988" lon="-1.03061">
        <ele>144.82000732422</ele>
        <time>2020-10-11T10:40:16Z</time>
      </trkpt>
      <trkpt lat="46.89978" lon="-1.03065">
        <ele>145.30000305176</ele>
        <time>2020-10-11T10:40:25Z</time>
      </trkpt>
      <trkpt lat="46.89968" lon="-1.03069">
        <ele>146.25999450684</ele>
        <time>2020-10-11T10:40:34Z</time>
      </trkpt>
      <trkpt lat="46.89958" lon="-1.03073">
        <ele>146.74000549316</ele>
        <time>2020-10-11T10:40:43Z</time>
      </trkpt>
      <trkpt lat="46.89946" lon="-1.03082">
        <ele>146.74000549316</ele>
        <time>2020-10-11T10:41:00Z</time>
      </trkpt>
      <trkpt lat="46.89946" lon="-1.03106">
        <ele>147.2200012207</ele>
        <time>2020-10-11T10:42:03Z</time>
      </trkpt>
      <trkpt lat="46.89949" lon="-1.0312">
        <ele>145.7799987793</ele>
        <time>2020-10-11T10:42:12Z</time>
      </trkpt>
      <trkpt lat="46.89951" lon="-1.03135">
        <ele>145.30000305176</ele>
        <time>2020-10-11T10:42:21Z</time>
      </trkpt>
      <trkpt lat="46.89954" lon="-1.03149">
        <ele>144.33999633789</ele>
        <time>2020-10-11T10:42:30Z</time>
      </trkpt>
      <trkpt lat="46.89957" lon="-1.03164">
        <ele>144.33999633789</ele>
        <time>2020-10-11T10:42:39Z</time>
      </trkpt>
      <trkpt lat="46.8996" lon="-1.03179">
        <ele>143.36999511719</ele>
        <time>2020-10-11T10:42:48Z</time>
      </trkpt>
      <trkpt lat="46.89964" lon="-1.03193">
        <ele>142.88999938965</ele>
        <time>2020-10-11T10:42:57Z</time>
      </trkpt>
      <trkpt lat="46.89967" lon="-1.03207">
        <ele>142.41000366211</ele>
        <time>2020-10-11T10:43:05Z</time>
      </trkpt>
      <trkpt lat="46.89971" lon="-1.03222">
        <ele>141.92999267578</ele>
        <time>2020-10-11T10:43:13Z</time>
      </trkpt>
      <trkpt lat="46.89976" lon="-1.03235">
        <ele>141.44999694824</ele>
        <time>2020-10-11T10:43:21Z</time>
      </trkpt>
      <trkpt lat="46.89979" lon="-1.03248">
        <ele>140.9700012207</ele>
        <time>2020-10-11T10:43:29Z</time>
      </trkpt>
      <trkpt lat="46.89981" lon="-1.03262">
        <ele>140.49000549316</ele>
        <time>2020-10-11T10:43:37Z</time>
      </trkpt>
      <trkpt lat="46.89981" lon="-1.03276">
        <ele>140.00999450684</ele>
        <time>2020-10-11T10:43:45Z</time>
      </trkpt>
      <trkpt lat="46.89981" lon="-1.03291">
        <ele>139.5299987793</ele>
        <time>2020-10-11T10:43:54Z</time>
      </trkpt>
      <trkpt lat="46.89981" lon="-1.03308">
        <ele>139.05000305176</ele>
        <time>2020-10-11T10:44:04Z</time>
      </trkpt>
      <trkpt lat="46.89982" lon="-1.03326">
        <ele>139.05000305176</ele>
        <time>2020-10-11T10:44:14Z</time>
      </trkpt>
      <trkpt lat="46.89983" lon="-1.03342">
        <ele>138.57000732422</ele>
        <time>2020-10-11T10:44:24Z</time>
      </trkpt>
      <trkpt lat="46.89982" lon="-1.0336">
        <ele>138.08999633789</ele>
        <time>2020-10-11T10:44:35Z</time>
      </trkpt>
      <trkpt lat="46.8998" lon="-1.03381">
        <ele>138.08999633789</ele>
        <time>2020-10-11T10:44:50Z</time>
      </trkpt>
      <trkpt lat="46.89973" lon="-1.0339">
        <ele>138.08999633789</ele>
        <time>2020-10-11T10:45:08Z</time>
      </trkpt>
      <trkpt lat="46.89963" lon="-1.03392">
        <ele>137.61000061035</ele>
        <time>2020-10-11T10:45:17Z</time>
      </trkpt>
      <trkpt lat="46.89953" lon="-1.03394">
        <ele>137.61000061035</ele>
        <time>2020-10-11T10:45:27Z</time>
      </trkpt>
      <trkpt lat="46.89941" lon="-1.03391">
        <ele>137.61000061035</ele>
        <time>2020-10-11T10:45:36Z</time>
      </trkpt>
      <trkpt lat="46.89929" lon="-1.03386">
        <ele>137.13000488281</ele>
        <time>2020-10-11T10:45:45Z</time>
      </trkpt>
      <trkpt lat="46.89919" lon="-1.03383">
        <ele>136.63999938965</ele>
        <time>2020-10-11T10:45:54Z</time>
      </trkpt>
      <trkpt lat="46.89908" lon="-1.0338">
        <ele>136.63999938965</ele>
        <time>2020-10-11T10:46:02Z</time>
      </trkpt>
      <trkpt lat="46.89897" lon="-1.03377">
        <ele>136.63999938965</ele>
        <time>2020-10-11T10:46:10Z</time>
      </trkpt>
      <trkpt lat="46.89886" lon="-1.03377">
        <ele>136.16000366211</ele>
        <time>2020-10-11T10:46:17Z</time>
      </trkpt>
      <trkpt lat="46.89875" lon="-1.03374">
        <ele>135.67999267578</ele>
        <time>2020-10-11T10:46:25Z</time>
      </trkpt>
      <trkpt lat="46.89865" lon="-1.03372">
        <ele>135.19999694824</ele>
        <time>2020-10-11T10:46:34Z</time>
      </trkpt>
      <trkpt lat="46.89854" lon="-1.03372">
        <ele>134.7200012207</ele>
        <time>2020-10-11T10:46:43Z</time>
      </trkpt>
      <trkpt lat="46.89844" lon="-1.03373">
        <ele>133.75999450684</ele>
        <time>2020-10-11T10:46:52Z</time>
      </trkpt>
      <trkpt lat="46.89835" lon="-1.03378">
        <ele>133.2799987793</ele>
        <time>2020-10-11T10:47:01Z</time>
      </trkpt>
      <trkpt lat="46.89825" lon="-1.03383">
        <ele>132.80000305176</ele>
        <time>2020-10-11T10:47:10Z</time>
      </trkpt>
      <trkpt lat="46.89815" lon="-1.03388">
        <ele>132.32000732422</ele>
        <time>2020-10-11T10:47:18Z</time>
      </trkpt>
      <trkpt lat="46.89806" lon="-1.03394">
        <ele>131.83999633789</ele>
        <time>2020-10-11T10:47:25Z</time>
      </trkpt>
      <trkpt lat="46.89796" lon="-1.03398">
        <ele>131.36000061035</ele>
        <time>2020-10-11T10:47:33Z</time>
      </trkpt>
      <trkpt lat="46.89787" lon="-1.03405">
        <ele>130.88000488281</ele>
        <time>2020-10-11T10:47:42Z</time>
      </trkpt>
      <trkpt lat="46.89777" lon="-1.03411">
        <ele>130.39999389648</ele>
        <time>2020-10-11T10:47:51Z</time>
      </trkpt>
      <trkpt lat="46.89766" lon="-1.03418">
        <ele>129.42999267578</ele>
        <time>2020-10-11T10:48:00Z</time>
      </trkpt>
      <trkpt lat="46.89757" lon="-1.03428">
        <ele>128.4700012207</ele>
        <time>2020-10-11T10:48:09Z</time>
      </trkpt>
      <trkpt lat="46.89748" lon="-1.03437">
        <ele>127.51000213623</ele>
        <time>2020-10-11T10:48:17Z</time>
      </trkpt>
      <trkpt lat="46.89741" lon="-1.03448">
        <ele>126.55000305176</ele>
        <time>2020-10-11T10:48:26Z</time>
      </trkpt>
      <trkpt lat="46.89731" lon="-1.03457">
        <ele>126.06999969482</ele>
        <time>2020-10-11T10:48:35Z</time>
      </trkpt>
      <trkpt lat="46.89723" lon="-1.03465">
        <ele>125.58999633789</ele>
        <time>2020-10-11T10:48:43Z</time>
      </trkpt>
      <trkpt lat="46.89713" lon="-1.03475">
        <ele>125.58999633789</ele>
        <time>2020-10-11T10:48:53Z</time>
      </trkpt>
      <trkpt lat="46.89705" lon="-1.03485">
        <ele>125.11000061035</ele>
        <time>2020-10-11T10:49:01Z</time>
      </trkpt>
      <trkpt lat="46.89697" lon="-1.03494">
        <ele>124.15000152588</ele>
        <time>2020-10-11T10:49:09Z</time>
      </trkpt>
      <trkpt lat="46.8969" lon="-1.03506">
        <ele>123.66999816894</ele>
        <time>2020-10-11T10:49:17Z</time>
      </trkpt>
      <trkpt lat="46.89682" lon="-1.03517">
        <ele>122.70999908447</ele>
        <time>2020-10-11T10:49:25Z</time>
      </trkpt>
      <trkpt lat="46.89676" lon="-1.03529">
        <ele>122.2200012207</ele>
        <time>2020-10-11T10:49:33Z</time>
      </trkpt>
      <trkpt lat="46.8967" lon="-1.03541">
        <ele>121.73999786377</ele>
        <time>2020-10-11T10:49:40Z</time>
      </trkpt>
      <trkpt lat="46.89666" lon="-1.03555">
        <ele>121.73999786377</ele>
        <time>2020-10-11T10:49:48Z</time>
      </trkpt>
      <trkpt lat="46.89661" lon="-1.03566">
        <ele>121.26000213623</ele>
        <time>2020-10-11T10:49:57Z</time>
      </trkpt>
      <trkpt lat="46.89653" lon="-1.0358">
        <ele>121.26000213623</ele>
        <time>2020-10-11T10:50:06Z</time>
      </trkpt>
      <trkpt lat="46.89647" lon="-1.03592">
        <ele>120.7799987793</ele>
        <time>2020-10-11T10:50:15Z</time>
      </trkpt>
      <trkpt lat="46.89641" lon="-1.03606">
        <ele>120.7799987793</ele>
        <time>2020-10-11T10:50:25Z</time>
      </trkpt>
      <trkpt lat="46.89629" lon="-1.03615">
        <ele>120.7799987793</ele>
        <time>2020-10-11T10:51:39Z</time>
      </trkpt>
      <trkpt lat="46.89621" lon="-1.03607">
        <ele>120.7799987793</ele>
        <time>2020-10-11T10:51:48Z</time>
      </trkpt>
      <trkpt lat="46.89611" lon="-1.03599">
        <ele>120.7799987793</ele>
        <time>2020-10-11T10:51:57Z</time>
      </trkpt>
      <trkpt lat="46.89601" lon="-1.03593">
        <ele>120.7799987793</ele>
        <time>2020-10-11T10:52:06Z</time>
      </trkpt>
      <trkpt lat="46.89592" lon="-1.03585">
        <ele>120.7799987793</ele>
        <time>2020-10-11T10:52:15Z</time>
      </trkpt>
      <trkpt lat="46.89582" lon="-1.0358">
        <ele>120.7799987793</ele>
        <time>2020-10-11T10:52:23Z</time>
      </trkpt>
      <trkpt lat="46.89574" lon="-1.03582">
        <ele>120.7799987793</ele>
        <time>2020-10-11T10:52:35Z</time>
      </trkpt>
      <trkpt lat="46.89569" lon="-1.03594">
        <ele>119.33999633789</ele>
        <time>2020-10-11T10:52:43Z</time>
      </trkpt>
      <trkpt lat="46.89561" lon="-1.03613">
        <ele>117.90000152588</ele>
        <time>2020-10-11T10:52:56Z</time>
      </trkpt>
      <trkpt lat="46.89551" lon="-1.03625">
        <ele>117.41999816894</ele>
        <time>2020-10-11T10:53:05Z</time>
      </trkpt>
      <trkpt lat="46.89542" lon="-1.03634">
        <ele>116.45999908447</ele>
        <time>2020-10-11T10:53:13Z</time>
      </trkpt>
      <trkpt lat="46.8953" lon="-1.0364">
        <ele>116.94000244141</ele>
        <time>2020-10-11T10:53:21Z</time>
      </trkpt>
      <trkpt lat="46.89523" lon="-1.03649">
        <ele>116.45999908447</ele>
        <time>2020-10-11T10:53:28Z</time>
      </trkpt>
      <trkpt lat="46.89518" lon="-1.03661">
        <ele>116.45999908447</ele>
        <time>2020-10-11T10:53:35Z</time>
      </trkpt>
      <trkpt lat="46.89515" lon="-1.03672">
        <ele>115.98000335693</ele>
        <time>2020-10-11T10:53:42Z</time>
      </trkpt>
      <trkpt lat="46.89514" lon="-1.03685">
        <ele>115.5</ele>
        <time>2020-10-11T10:53:49Z</time>
      </trkpt>
      <trkpt lat="46.89515" lon="-1.03702">
        <ele>115.01000213623</ele>
        <time>2020-10-11T10:53:57Z</time>
      </trkpt>
      <trkpt lat="46.89516" lon="-1.03716">
        <ele>114.5299987793</ele>
        <time>2020-10-11T10:54:06Z</time>
      </trkpt>
      <trkpt lat="46.89529" lon="-1.03806">
        <ele>113.56999969482</ele>
        <time>2020-10-11T10:55:13Z</time>
      </trkpt>
      <trkpt lat="46.89533" lon="-1.03836">
        <ele>113.56999969482</ele>
        <time>2020-10-11T10:55:28Z</time>
      </trkpt>
      <trkpt lat="46.89535" lon="-1.03853">
        <ele>113.56999969482</ele>
        <time>2020-10-11T10:55:37Z</time>
      </trkpt>
      <trkpt lat="46.89537" lon="-1.03874">
        <ele>113.08999633789</ele>
        <time>2020-10-11T10:55:52Z</time>
      </trkpt>
      <trkpt lat="46.89538" lon="-1.03892">
        <ele>113.08999633789</ele>
        <time>2020-10-11T10:56:02Z</time>
      </trkpt>
      <trkpt lat="46.8954" lon="-1.03911">
        <ele>112.61000061035</ele>
        <time>2020-10-11T10:56:12Z</time>
      </trkpt>
      <trkpt lat="46.8954" lon="-1.03931">
        <ele>112.61000061035</ele>
        <time>2020-10-11T10:56:25Z</time>
      </trkpt>
      <trkpt lat="46.89542" lon="-1.03947">
        <ele>111.65000152588</ele>
        <time>2020-10-11T10:56:34Z</time>
      </trkpt>
      <trkpt lat="46.89543" lon="-1.03963">
        <ele>111.16999816894</ele>
        <time>2020-10-11T10:56:43Z</time>
      </trkpt>
      <trkpt lat="46.89544" lon="-1.0398">
        <ele>110.69000244141</ele>
        <time>2020-10-11T10:56:52Z</time>
      </trkpt>
      <trkpt lat="46.89546" lon="-1.03993">
        <ele>110.20999908447</ele>
        <time>2020-10-11T10:57:01Z</time>
      </trkpt>
      <trkpt lat="46.89546" lon="-1.04008">
        <ele>110.20999908447</ele>
        <time>2020-10-11T10:57:07Z</time>
      </trkpt>
      <trkpt lat="46.89545" lon="-1.04022">
        <ele>110.20999908447</ele>
        <time>2020-10-11T10:57:13Z</time>
      </trkpt>
      <trkpt lat="46.89547" lon="-1.04036">
        <ele>110.20999908447</ele>
        <time>2020-10-11T10:57:22Z</time>
      </trkpt>
      <trkpt lat="46.89549" lon="-1.04052">
        <ele>111.65000152588</ele>
        <time>2020-10-11T10:57:32Z</time>
      </trkpt>
      <trkpt lat="46.8955" lon="-1.04068">
        <ele>112.12999725342</ele>
        <time>2020-10-11T10:57:42Z</time>
      </trkpt>
      <trkpt lat="46.89554" lon="-1.0411">
        <ele>111.65000152588</ele>
        <time>2020-10-11T10:58:09Z</time>
      </trkpt>
      <trkpt lat="46.89553" lon="-1.04139">
        <ele>111.65000152588</ele>
        <time>2020-10-11T10:58:22Z</time>
      </trkpt>
      <trkpt lat="46.89551" lon="-1.04158">
        <ele>111.65000152588</ele>
        <time>2020-10-11T10:58:31Z</time>
      </trkpt>
      <trkpt lat="46.89549" lon="-1.04175">
        <ele>111.65000152588</ele>
        <time>2020-10-11T10:58:40Z</time>
      </trkpt>
      <trkpt lat="46.89549" lon="-1.04192">
        <ele>110.69000244141</ele>
        <time>2020-10-11T10:58:49Z</time>
      </trkpt>
      <trkpt lat="46.89545" lon="-1.04208">
        <ele>110.20999908447</ele>
        <time>2020-10-11T10:58:57Z</time>
      </trkpt>
      <trkpt lat="46.89538" lon="-1.04222">
        <ele>110.20999908447</ele>
        <time>2020-10-11T10:59:06Z</time>
      </trkpt>
      <trkpt lat="46.89529" lon="-1.04231">
        <ele>110.20999908447</ele>
        <time>2020-10-11T10:59:15Z</time>
      </trkpt>
      <trkpt lat="46.89517" lon="-1.0424">
        <ele>109.73000335693</ele>
        <time>2020-10-11T10:59:29Z</time>
      </trkpt>
      <trkpt lat="46.89503" lon="-1.0428">
        <ele>109.25</ele>
        <time>2020-10-11T11:00:29Z</time>
      </trkpt>
      <trkpt lat="46.89506" lon="-1.04296">
        <ele>109.25</ele>
        <time>2020-10-11T11:00:39Z</time>
      </trkpt>
      <trkpt lat="46.89509" lon="-1.04312">
        <ele>109.25</ele>
        <time>2020-10-11T11:00:49Z</time>
      </trkpt>
      <trkpt lat="46.89512" lon="-1.0433">
        <ele>108.76999664307</ele>
        <time>2020-10-11T11:01:00Z</time>
      </trkpt>
      <trkpt lat="46.89523" lon="-1.04365">
        <ele>108.29000091553</ele>
        <time>2020-10-11T11:01:22Z</time>
      </trkpt>
      <trkpt lat="46.89528" lon="-1.0439">
        <ele>107.80999755859</ele>
        <time>2020-10-11T11:01:35Z</time>
      </trkpt>
      <trkpt lat="46.89531" lon="-1.04408">
        <ele>107.80999755859</ele>
        <time>2020-10-11T11:01:46Z</time>
      </trkpt>
      <trkpt lat="46.89529" lon="-1.04435">
        <ele>107.31999969482</ele>
        <time>2020-10-11T11:02:00Z</time>
      </trkpt>
      <trkpt lat="46.89523" lon="-1.04452">
        <ele>105.87999725342</ele>
        <time>2020-10-11T11:02:08Z</time>
      </trkpt>
      <trkpt lat="46.89517" lon="-1.04464">
        <ele>105.40000152588</ele>
        <time>2020-10-11T11:02:16Z</time>
      </trkpt>
      <trkpt lat="46.89512" lon="-1.04476">
        <ele>105.40000152588</ele>
        <time>2020-10-11T11:02:24Z</time>
      </trkpt>
      <trkpt lat="46.89507" lon="-1.04488">
        <ele>105.40000152588</ele>
        <time>2020-10-11T11:02:34Z</time>
      </trkpt>
      <trkpt lat="46.89502" lon="-1.04503">
        <ele>104.91999816894</ele>
        <time>2020-10-11T11:02:43Z</time>
      </trkpt>
      <trkpt lat="46.89496" lon="-1.04519">
        <ele>104.91999816894</ele>
        <time>2020-10-11T11:02:52Z</time>
      </trkpt>
      <trkpt lat="46.89489" lon="-1.04534">
        <ele>104.91999816894</ele>
        <time>2020-10-11T11:03:01Z</time>
      </trkpt>
      <trkpt lat="46.89481" lon="-1.0455">
        <ele>104.44000244141</ele>
        <time>2020-10-11T11:03:10Z</time>
      </trkpt>
      <trkpt lat="46.89473" lon="-1.04561">
        <ele>104.44000244141</ele>
        <time>2020-10-11T11:03:18Z</time>
      </trkpt>
      <trkpt lat="46.89462" lon="-1.0457">
        <ele>103.95999908447</ele>
        <time>2020-10-11T11:03:26Z</time>
      </trkpt>
      <trkpt lat="46.89453" lon="-1.0458">
        <ele>103.95999908447</ele>
        <time>2020-10-11T11:03:34Z</time>
      </trkpt>
      <trkpt lat="46.89442" lon="-1.04588">
        <ele>103.48000335693</ele>
        <time>2020-10-11T11:03:42Z</time>
      </trkpt>
      <trkpt lat="46.89434" lon="-1.04598">
        <ele>103</ele>
        <time>2020-10-11T11:03:50Z</time>
      </trkpt>
      <trkpt lat="46.89426" lon="-1.04607">
        <ele>103</ele>
        <time>2020-10-11T11:03:58Z</time>
      </trkpt>
      <trkpt lat="46.89416" lon="-1.04614">
        <ele>103</ele>
        <time>2020-10-11T11:04:05Z</time>
      </trkpt>
      <trkpt lat="46.89407" lon="-1.04621">
        <ele>103</ele>
        <time>2020-10-11T11:04:13Z</time>
      </trkpt>
      <trkpt lat="46.894" lon="-1.0463">
        <ele>103</ele>
        <time>2020-10-11T11:04:20Z</time>
      </trkpt>
      <trkpt lat="46.89392" lon="-1.04639">
        <ele>102.51999664307</ele>
        <time>2020-10-11T11:04:27Z</time>
      </trkpt>
      <trkpt lat="46.89383" lon="-1.04649">
        <ele>102.04000091553</ele>
        <time>2020-10-11T11:04:35Z</time>
      </trkpt>
      <trkpt lat="46.89376" lon="-1.0466">
        <ele>102.04000091553</ele>
        <time>2020-10-11T11:04:43Z</time>
      </trkpt>
      <trkpt lat="46.89368" lon="-1.04669">
        <ele>101.55999755859</ele>
        <time>2020-10-11T11:04:50Z</time>
      </trkpt>
      <trkpt lat="46.8936" lon="-1.04677">
        <ele>101.55999755859</ele>
        <time>2020-10-11T11:04:58Z</time>
      </trkpt>
      <trkpt lat="46.89352" lon="-1.04686">
        <ele>101.55999755859</ele>
        <time>2020-10-11T11:05:06Z</time>
      </trkpt>
      <trkpt lat="46.89344" lon="-1.04695">
        <ele>101.55999755859</ele>
        <time>2020-10-11T11:05:13Z</time>
      </trkpt>
      <trkpt lat="46.89336" lon="-1.04705">
        <ele>101.08000183106</ele>
        <time>2020-10-11T11:05:21Z</time>
      </trkpt>
      <trkpt lat="46.89328" lon="-1.04714">
        <ele>101.08000183106</ele>
        <time>2020-10-11T11:05:30Z</time>
      </trkpt>
      <trkpt lat="46.8932" lon="-1.04723">
        <ele>100.59999847412</ele>
        <time>2020-10-11T11:05:38Z</time>
      </trkpt>
      <trkpt lat="46.89312" lon="-1.04732">
        <ele>101.08000183106</ele>
        <time>2020-10-11T11:05:46Z</time>
      </trkpt>
      <trkpt lat="46.89303" lon="-1.04741">
        <ele>101.08000183106</ele>
        <time>2020-10-11T11:05:56Z</time>
      </trkpt>
      <trkpt lat="46.89294" lon="-1.04751">
        <ele>101.08000183106</ele>
        <time>2020-10-11T11:07:58Z</time>
      </trkpt>
      <trkpt lat="46.89295" lon="-1.04763">
        <ele>105.87999725342</ele>
        <time>2020-10-11T11:35:36Z</time>
      </trkpt>
      <trkpt lat="46.89301" lon="-1.04781">
        <ele>105.40000152588</ele>
        <time>2020-10-11T11:36:01Z</time>
      </trkpt>
      <trkpt lat="46.89308" lon="-1.04793">
        <ele>105.40000152588</ele>
        <time>2020-10-11T11:36:13Z</time>
      </trkpt>
      <trkpt lat="46.89315" lon="-1.04805">
        <ele>105.40000152588</ele>
        <time>2020-10-11T11:36:23Z</time>
      </trkpt>
      <trkpt lat="46.89322" lon="-1.04816">
        <ele>105.40000152588</ele>
        <time>2020-10-11T11:36:35Z</time>
      </trkpt>
      <trkpt lat="46.8933" lon="-1.04831">
        <ele>105.87999725342</ele>
        <time>2020-10-11T11:36:45Z</time>
      </trkpt>
      <trkpt lat="46.89336" lon="-1.04844">
        <ele>105.87999725342</ele>
        <time>2020-10-11T11:36:53Z</time>
      </trkpt>
      <trkpt lat="46.89344" lon="-1.04855">
        <ele>105.87999725342</ele>
        <time>2020-10-11T11:37:02Z</time>
      </trkpt>
      <trkpt lat="46.89351" lon="-1.04869">
        <ele>105.87999725342</ele>
        <time>2020-10-11T11:37:10Z</time>
      </trkpt>
      <trkpt lat="46.89358" lon="-1.04881">
        <ele>105.87999725342</ele>
        <time>2020-10-11T11:37:19Z</time>
      </trkpt>
      <trkpt lat="46.89366" lon="-1.04895">
        <ele>105.87999725342</ele>
        <time>2020-10-11T11:37:27Z</time>
      </trkpt>
      <trkpt lat="46.89374" lon="-1.04908">
        <ele>105.87999725342</ele>
        <time>2020-10-11T11:37:36Z</time>
      </trkpt>
      <trkpt lat="46.89381" lon="-1.04922">
        <ele>105.87999725342</ele>
        <time>2020-10-11T11:37:44Z</time>
      </trkpt>
      <trkpt lat="46.89389" lon="-1.04934">
        <ele>105.87999725342</ele>
        <time>2020-10-11T11:37:52Z</time>
      </trkpt>
      <trkpt lat="46.89395" lon="-1.04945">
        <ele>105.87999725342</ele>
        <time>2020-10-11T11:38:00Z</time>
      </trkpt>
      <trkpt lat="46.89402" lon="-1.04957">
        <ele>105.87999725342</ele>
        <time>2020-10-11T11:38:08Z</time>
      </trkpt>
      <trkpt lat="46.8941" lon="-1.04969">
        <ele>105.40000152588</ele>
        <time>2020-10-11T11:38:16Z</time>
      </trkpt>
      <trkpt lat="46.89418" lon="-1.04982">
        <ele>104.44000244141</ele>
        <time>2020-10-11T11:38:24Z</time>
      </trkpt>
      <trkpt lat="46.89425" lon="-1.04996">
        <ele>103.95999908447</ele>
        <time>2020-10-11T11:38:32Z</time>
      </trkpt>
      <trkpt lat="46.89433" lon="-1.05007">
        <ele>103.95999908447</ele>
        <time>2020-10-11T11:38:39Z</time>
      </trkpt>
      <trkpt lat="46.8944" lon="-1.05018">
        <ele>103.95999908447</ele>
        <time>2020-10-11T11:38:47Z</time>
      </trkpt>
      <trkpt lat="46.89449" lon="-1.05031">
        <ele>103.48000335693</ele>
        <time>2020-10-11T11:38:55Z</time>
      </trkpt>
      <trkpt lat="46.89455" lon="-1.05045">
        <ele>103.48000335693</ele>
        <time>2020-10-11T11:39:03Z</time>
      </trkpt>
      <trkpt lat="46.89461" lon="-1.05056">
        <ele>103.48000335693</ele>
        <time>2020-10-11T11:39:11Z</time>
      </trkpt>
      <trkpt lat="46.8947" lon="-1.05068">
        <ele>103.48000335693</ele>
        <time>2020-10-11T11:39:20Z</time>
      </trkpt>
      <trkpt lat="46.89479" lon="-1.0508">
        <ele>103.48000335693</ele>
        <time>2020-10-11T11:39:28Z</time>
      </trkpt>
      <trkpt lat="46.89486" lon="-1.05093">
        <ele>103.48000335693</ele>
        <time>2020-10-11T11:39:36Z</time>
      </trkpt>
      <trkpt lat="46.89494" lon="-1.05102">
        <ele>103.48000335693</ele>
        <time>2020-10-11T11:39:44Z</time>
      </trkpt>
      <trkpt lat="46.89501" lon="-1.05114">
        <ele>103.48000335693</ele>
        <time>2020-10-11T11:39:53Z</time>
      </trkpt>
      <trkpt lat="46.89509" lon="-1.05126">
        <ele>103.48000335693</ele>
        <time>2020-10-11T11:40:00Z</time>
      </trkpt>
      <trkpt lat="46.89518" lon="-1.05134">
        <ele>103</ele>
        <time>2020-10-11T11:40:08Z</time>
      </trkpt>
      <trkpt lat="46.89526" lon="-1.05146">
        <ele>104.44000244141</ele>
        <time>2020-10-11T11:40:15Z</time>
      </trkpt>
      <trkpt lat="46.89534" lon="-1.05156">
        <ele>104.44000244141</ele>
        <time>2020-10-11T11:40:22Z</time>
      </trkpt>
      <trkpt lat="46.89541" lon="-1.05164">
        <ele>104.91999816894</ele>
        <time>2020-10-11T11:40:29Z</time>
      </trkpt>
      <trkpt lat="46.89548" lon="-1.05171">
        <ele>105.40000152588</ele>
        <time>2020-10-11T11:40:36Z</time>
      </trkpt>
      <trkpt lat="46.89556" lon="-1.05178">
        <ele>104.91999816894</ele>
        <time>2020-10-11T11:40:43Z</time>
      </trkpt>
      <trkpt lat="46.89564" lon="-1.05186">
        <ele>104.91999816894</ele>
        <time>2020-10-11T11:40:51Z</time>
      </trkpt>
      <trkpt lat="46.89572" lon="-1.05193">
        <ele>105.40000152588</ele>
        <time>2020-10-11T11:40:59Z</time>
      </trkpt>
      <trkpt lat="46.89579" lon="-1.05203">
        <ele>105.40000152588</ele>
        <time>2020-10-11T11:41:07Z</time>
      </trkpt>
      <trkpt lat="46.89587" lon="-1.05212">
        <ele>105.40000152588</ele>
        <time>2020-10-11T11:41:15Z</time>
      </trkpt>
      <trkpt lat="46.89595" lon="-1.05222">
        <ele>105.40000152588</ele>
        <time>2020-10-11T11:41:23Z</time>
      </trkpt>
      <trkpt lat="46.89603" lon="-1.05236">
        <ele>105.40000152588</ele>
        <time>2020-10-11T11:41:31Z</time>
      </trkpt>
      <trkpt lat="46.8961" lon="-1.05248">
        <ele>105.40000152588</ele>
        <time>2020-10-11T11:41:39Z</time>
      </trkpt>
      <trkpt lat="46.89619" lon="-1.05258">
        <ele>105.40000152588</ele>
        <time>2020-10-11T11:41:48Z</time>
      </trkpt>
      <trkpt lat="46.89626" lon="-1.0527">
        <ele>105.40000152588</ele>
        <time>2020-10-11T11:41:56Z</time>
      </trkpt>
      <trkpt lat="46.89632" lon="-1.05281">
        <ele>105.40000152588</ele>
        <time>2020-10-11T11:42:04Z</time>
      </trkpt>
      <trkpt lat="46.8964" lon="-1.05293">
        <ele>105.40000152588</ele>
        <time>2020-10-11T11:42:12Z</time>
      </trkpt>
      <trkpt lat="46.89647" lon="-1.05306">
        <ele>105.40000152588</ele>
        <time>2020-10-11T11:42:20Z</time>
      </trkpt>
      <trkpt lat="46.89654" lon="-1.05318">
        <ele>105.40000152588</ele>
        <time>2020-10-11T11:42:28Z</time>
      </trkpt>
      <trkpt lat="46.89661" lon="-1.05333">
        <ele>105.40000152588</ele>
        <time>2020-10-11T11:42:38Z</time>
      </trkpt>
      <trkpt lat="46.89669" lon="-1.05349">
        <ele>105.40000152588</ele>
        <time>2020-10-11T11:42:47Z</time>
      </trkpt>
      <trkpt lat="46.89676" lon="-1.05367">
        <ele>104.91999816894</ele>
        <time>2020-10-11T11:42:57Z</time>
      </trkpt>
      <trkpt lat="46.89684" lon="-1.05382">
        <ele>103.95999908447</ele>
        <time>2020-10-11T11:43:06Z</time>
      </trkpt>
      <trkpt lat="46.89693" lon="-1.05401">
        <ele>103.95999908447</ele>
        <time>2020-10-11T11:43:19Z</time>
      </trkpt>
      <trkpt lat="46.89699" lon="-1.05417">
        <ele>102.51999664307</ele>
        <time>2020-10-11T11:43:29Z</time>
      </trkpt>
      <trkpt lat="46.89692" lon="-1.0543">
        <ele>102.04000091553</ele>
        <time>2020-10-11T11:43:39Z</time>
      </trkpt>
      <trkpt lat="46.89682" lon="-1.05442">
        <ele>101.55999755859</ele>
        <time>2020-10-11T11:43:49Z</time>
      </trkpt>
      <trkpt lat="46.89674" lon="-1.05455">
        <ele>101.08000183106</ele>
        <time>2020-10-11T11:43:58Z</time>
      </trkpt>
      <trkpt lat="46.89665" lon="-1.05468">
        <ele>100.59999847412</ele>
        <time>2020-10-11T11:44:07Z</time>
      </trkpt>
      <trkpt lat="46.89657" lon="-1.0548">
        <ele>100.59999847412</ele>
        <time>2020-10-11T11:44:14Z</time>
      </trkpt>
      <trkpt lat="46.8965" lon="-1.05489">
        <ele>100.59999847412</ele>
        <time>2020-10-11T11:44:22Z</time>
      </trkpt>
      <trkpt lat="46.8964" lon="-1.05496">
        <ele>100.11000061035</ele>
        <time>2020-10-11T11:44:30Z</time>
      </trkpt>
      <trkpt lat="46.8963" lon="-1.05505">
        <ele>100.11000061035</ele>
        <time>2020-10-11T11:44:39Z</time>
      </trkpt>
      <trkpt lat="46.89619" lon="-1.05509">
        <ele>99.629997253418</ele>
        <time>2020-10-11T11:44:48Z</time>
      </trkpt>
      <trkpt lat="46.8961" lon="-1.05513">
        <ele>99.629997253418</ele>
        <time>2020-10-11T11:44:56Z</time>
      </trkpt>
      <trkpt lat="46.89599" lon="-1.0552">
        <ele>99.150001525879</ele>
        <time>2020-10-11T11:45:05Z</time>
      </trkpt>
      <trkpt lat="46.89586" lon="-1.05527">
        <ele>99.150001525879</ele>
        <time>2020-10-11T11:45:17Z</time>
      </trkpt>
      <trkpt lat="46.89571" lon="-1.05538">
        <ele>99.150001525879</ele>
        <time>2020-10-11T11:45:27Z</time>
      </trkpt>
      <trkpt lat="46.89562" lon="-1.05546">
        <ele>99.150001525879</ele>
        <time>2020-10-11T11:45:34Z</time>
      </trkpt>
      <trkpt lat="46.89554" lon="-1.05553">
        <ele>99.150001525879</ele>
        <time>2020-10-11T11:45:41Z</time>
      </trkpt>
      <trkpt lat="46.89547" lon="-1.05562">
        <ele>99.150001525879</ele>
        <time>2020-10-11T11:45:48Z</time>
      </trkpt>
      <trkpt lat="46.89539" lon="-1.0557">
        <ele>98.669998168945</ele>
        <time>2020-10-11T11:45:55Z</time>
      </trkpt>
      <trkpt lat="46.89532" lon="-1.05579">
        <ele>98.669998168945</ele>
        <time>2020-10-11T11:46:02Z</time>
      </trkpt>
      <trkpt lat="46.89524" lon="-1.05587">
        <ele>98.669998168945</ele>
        <time>2020-10-11T11:46:09Z</time>
      </trkpt>
      <trkpt lat="46.89516" lon="-1.05596">
        <ele>98.669998168945</ele>
        <time>2020-10-11T11:46:16Z</time>
      </trkpt>
      <trkpt lat="46.89509" lon="-1.05605">
        <ele>98.669998168945</ele>
        <time>2020-10-11T11:46:23Z</time>
      </trkpt>
      <trkpt lat="46.895" lon="-1.05615">
        <ele>98.669998168945</ele>
        <time>2020-10-11T11:46:31Z</time>
      </trkpt>
      <trkpt lat="46.89492" lon="-1.05623">
        <ele>98.669998168945</ele>
        <time>2020-10-11T11:46:38Z</time>
      </trkpt>
      <trkpt lat="46.89485" lon="-1.05632">
        <ele>98.669998168945</ele>
        <time>2020-10-11T11:46:45Z</time>
      </trkpt>
      <trkpt lat="46.89477" lon="-1.0564">
        <ele>98.669998168945</ele>
        <time>2020-10-11T11:46:52Z</time>
      </trkpt>
      <trkpt lat="46.89469" lon="-1.05648">
        <ele>98.669998168945</ele>
        <time>2020-10-11T11:46:59Z</time>
      </trkpt>
      <trkpt lat="46.89462" lon="-1.05657">
        <ele>98.669998168945</ele>
        <time>2020-10-11T11:47:06Z</time>
      </trkpt>
      <trkpt lat="46.89455" lon="-1.05667">
        <ele>98.669998168945</ele>
        <time>2020-10-11T11:47:14Z</time>
      </trkpt>
      <trkpt lat="46.89448" lon="-1.05678">
        <ele>98.669998168945</ele>
        <time>2020-10-11T11:47:23Z</time>
      </trkpt>
      <trkpt lat="46.89441" lon="-1.05683">
        <ele>100.11000061035</ele>
        <time>2020-10-11T11:47:47Z</time>
      </trkpt>
      <trkpt lat="46.89431" lon="-1.05685">
        <ele>100.11000061035</ele>
        <time>2020-10-11T11:47:58Z</time>
      </trkpt>
      <trkpt lat="46.89425" lon="-1.05674">
        <ele>100.11000061035</ele>
        <time>2020-10-11T11:48:08Z</time>
      </trkpt>
      <trkpt lat="46.8942" lon="-1.0566">
        <ele>100.11000061035</ele>
        <time>2020-10-11T11:48:16Z</time>
      </trkpt>
      <trkpt lat="46.89415" lon="-1.05646">
        <ele>100.11000061035</ele>
        <time>2020-10-11T11:48:24Z</time>
      </trkpt>
      <trkpt lat="46.8941" lon="-1.0563">
        <ele>100.59999847412</ele>
        <time>2020-10-11T11:48:32Z</time>
      </trkpt>
      <trkpt lat="46.89406" lon="-1.05616">
        <ele>100.59999847412</ele>
        <time>2020-10-11T11:48:40Z</time>
      </trkpt>
      <trkpt lat="46.89402" lon="-1.05604">
        <ele>100.59999847412</ele>
        <time>2020-10-11T11:48:48Z</time>
      </trkpt>
      <trkpt lat="46.89396" lon="-1.05592">
        <ele>100.59999847412</ele>
        <time>2020-10-11T11:48:56Z</time>
      </trkpt>
      <trkpt lat="46.89391" lon="-1.05579">
        <ele>100.59999847412</ele>
        <time>2020-10-11T11:49:04Z</time>
      </trkpt>
      <trkpt lat="46.89382" lon="-1.05574">
        <ele>101.08000183106</ele>
        <time>2020-10-11T11:49:59Z</time>
      </trkpt>
      <trkpt lat="46.89373" lon="-1.05584">
        <ele>100.59999847412</ele>
        <time>2020-10-11T11:50:27Z</time>
      </trkpt>
      <trkpt lat="46.89365" lon="-1.05593">
        <ele>100.59999847412</ele>
        <time>2020-10-11T11:50:34Z</time>
      </trkpt>
      <trkpt lat="46.89357" lon="-1.05603">
        <ele>100.59999847412</ele>
        <time>2020-10-11T11:50:42Z</time>
      </trkpt>
      <trkpt lat="46.89349" lon="-1.05613">
        <ele>100.59999847412</ele>
        <time>2020-10-11T11:50:49Z</time>
      </trkpt>
      <trkpt lat="46.89339" lon="-1.0562">
        <ele>100.59999847412</ele>
        <time>2020-10-11T11:50:57Z</time>
      </trkpt>
      <trkpt lat="46.89332" lon="-1.05629">
        <ele>100.59999847412</ele>
        <time>2020-10-11T11:51:05Z</time>
      </trkpt>
      <trkpt lat="46.89321" lon="-1.05635">
        <ele>100.59999847412</ele>
        <time>2020-10-11T11:51:14Z</time>
      </trkpt>
      <trkpt lat="46.89311" lon="-1.05634">
        <ele>100.59999847412</ele>
        <time>2020-10-11T11:51:21Z</time>
      </trkpt>
      <trkpt lat="46.89298" lon="-1.05631">
        <ele>100.59999847412</ele>
        <time>2020-10-11T11:51:30Z</time>
      </trkpt>
      <trkpt lat="46.89287" lon="-1.05628">
        <ele>100.59999847412</ele>
        <time>2020-10-11T11:51:40Z</time>
      </trkpt>
      <trkpt lat="46.89278" lon="-1.0562">
        <ele>100.59999847412</ele>
        <time>2020-10-11T11:51:49Z</time>
      </trkpt>
      <trkpt lat="46.89268" lon="-1.05615">
        <ele>100.59999847412</ele>
        <time>2020-10-11T11:51:58Z</time>
      </trkpt>
      <trkpt lat="46.89259" lon="-1.05609">
        <ele>100.11000061035</ele>
        <time>2020-10-11T11:52:05Z</time>
      </trkpt>
      <trkpt lat="46.8925" lon="-1.05602">
        <ele>99.150001525879</ele>
        <time>2020-10-11T11:52:13Z</time>
      </trkpt>
      <trkpt lat="46.8924" lon="-1.05594">
        <ele>99.150001525879</ele>
        <time>2020-10-11T11:52:21Z</time>
      </trkpt>
      <trkpt lat="46.89232" lon="-1.05585">
        <ele>98.669998168945</ele>
        <time>2020-10-11T11:52:29Z</time>
      </trkpt>
      <trkpt lat="46.89222" lon="-1.05577">
        <ele>98.190002441406</ele>
        <time>2020-10-11T11:52:37Z</time>
      </trkpt>
      <trkpt lat="46.89212" lon="-1.0557">
        <ele>98.190002441406</ele>
        <time>2020-10-11T11:52:46Z</time>
      </trkpt>
      <trkpt lat="46.89203" lon="-1.0556">
        <ele>97.709999084473</ele>
        <time>2020-10-11T11:52:54Z</time>
      </trkpt>
      <trkpt lat="46.89193" lon="-1.05553">
        <ele>97.709999084473</ele>
        <time>2020-10-11T11:53:02Z</time>
      </trkpt>
      <trkpt lat="46.89183" lon="-1.05543">
        <ele>97.709999084473</ele>
        <time>2020-10-11T11:53:10Z</time>
      </trkpt>
      <trkpt lat="46.89174" lon="-1.05535">
        <ele>97.230003356934</ele>
        <time>2020-10-11T11:53:18Z</time>
      </trkpt>
      <trkpt lat="46.89164" lon="-1.05526">
        <ele>97.230003356934</ele>
        <time>2020-10-11T11:53:26Z</time>
      </trkpt>
      <trkpt lat="46.89154" lon="-1.05518">
        <ele>96.75</ele>
        <time>2020-10-11T11:53:34Z</time>
      </trkpt>
      <trkpt lat="46.89142" lon="-1.05509">
        <ele>96.75</ele>
        <time>2020-10-11T11:53:42Z</time>
      </trkpt>
      <trkpt lat="46.89132" lon="-1.05509">
        <ele>96.75</ele>
        <time>2020-10-11T11:53:49Z</time>
      </trkpt>
      <trkpt lat="46.89122" lon="-1.05516">
        <ele>95.790000915527</ele>
        <time>2020-10-11T11:53:56Z</time>
      </trkpt>
      <trkpt lat="46.89116" lon="-1.05526">
        <ele>95.309997558594</ele>
        <time>2020-10-11T11:54:03Z</time>
      </trkpt>
      <trkpt lat="46.89109" lon="-1.05537">
        <ele>95.309997558594</ele>
        <time>2020-10-11T11:54:10Z</time>
      </trkpt>
      <trkpt lat="46.89103" lon="-1.05548">
        <ele>95.309997558594</ele>
        <time>2020-10-11T11:54:17Z</time>
      </trkpt>
      <trkpt lat="46.89097" lon="-1.05559">
        <ele>94.830001831055</ele>
        <time>2020-10-11T11:54:24Z</time>
      </trkpt>
      <trkpt lat="46.89088" lon="-1.05569">
        <ele>94.830001831055</ele>
        <time>2020-10-11T11:54:32Z</time>
      </trkpt>
      <trkpt lat="46.89081" lon="-1.05579">
        <ele>94.349998474121</ele>
        <time>2020-10-11T11:54:40Z</time>
      </trkpt>
      <trkpt lat="46.89073" lon="-1.05589">
        <ele>94.349998474121</ele>
        <time>2020-10-11T11:54:47Z</time>
      </trkpt>
      <trkpt lat="46.89065" lon="-1.05597">
        <ele>94.349998474121</ele>
        <time>2020-10-11T11:54:54Z</time>
      </trkpt>
      <trkpt lat="46.89057" lon="-1.05607">
        <ele>93.870002746582</ele>
        <time>2020-10-11T11:55:02Z</time>
      </trkpt>
      <trkpt lat="46.89048" lon="-1.05614">
        <ele>93.870002746582</ele>
        <time>2020-10-11T11:55:09Z</time>
      </trkpt>
      <trkpt lat="46.89039" lon="-1.05621">
        <ele>93.870002746582</ele>
        <time>2020-10-11T11:55:17Z</time>
      </trkpt>
      <trkpt lat="46.89029" lon="-1.05626">
        <ele>93.870002746582</ele>
        <time>2020-10-11T11:55:25Z</time>
      </trkpt>
      <trkpt lat="46.89017" lon="-1.05629">
        <ele>93.389999389648</ele>
        <time>2020-10-11T11:55:33Z</time>
      </trkpt>
      <trkpt lat="46.89006" lon="-1.05632">
        <ele>93.389999389648</ele>
        <time>2020-10-11T11:55:41Z</time>
      </trkpt>
      <trkpt lat="46.88995" lon="-1.05633">
        <ele>93.389999389648</ele>
        <time>2020-10-11T11:55:49Z</time>
      </trkpt>
      <trkpt lat="46.88981" lon="-1.05634">
        <ele>92.900001525879</ele>
        <time>2020-10-11T11:55:57Z</time>
      </trkpt>
      <trkpt lat="46.8897" lon="-1.05634">
        <ele>92.900001525879</ele>
        <time>2020-10-11T11:56:04Z</time>
      </trkpt>
      <trkpt lat="46.88959" lon="-1.05635">
        <ele>92.900001525879</ele>
        <time>2020-10-11T11:56:12Z</time>
      </trkpt>
      <trkpt lat="46.8895" lon="-1.05635">
        <ele>92.419998168945</ele>
        <time>2020-10-11T11:56:20Z</time>
      </trkpt>
      <trkpt lat="46.88939" lon="-1.05636">
        <ele>92.419998168945</ele>
        <time>2020-10-11T11:56:28Z</time>
      </trkpt>
      <trkpt lat="46.88928" lon="-1.05636">
        <ele>92.419998168945</ele>
        <time>2020-10-11T11:56:36Z</time>
      </trkpt>
      <trkpt lat="46.88918" lon="-1.05638">
        <ele>92.419998168945</ele>
        <time>2020-10-11T11:56:44Z</time>
      </trkpt>
      <trkpt lat="46.88906" lon="-1.05639">
        <ele>92.419998168945</ele>
        <time>2020-10-11T11:56:52Z</time>
      </trkpt>
      <trkpt lat="46.88895" lon="-1.0564">
        <ele>91.940002441406</ele>
        <time>2020-10-11T11:56:59Z</time>
      </trkpt>
      <trkpt lat="46.88885" lon="-1.05642">
        <ele>91.940002441406</ele>
        <time>2020-10-11T11:57:07Z</time>
      </trkpt>
      <trkpt lat="46.88874" lon="-1.05644">
        <ele>91.459999084473</ele>
        <time>2020-10-11T11:57:16Z</time>
      </trkpt>
      <trkpt lat="46.88863" lon="-1.05646">
        <ele>91.459999084473</ele>
        <time>2020-10-11T11:57:25Z</time>
      </trkpt>
      <trkpt lat="46.88851" lon="-1.05647">
        <ele>91.459999084473</ele>
        <time>2020-10-11T11:57:34Z</time>
      </trkpt>
      <trkpt lat="46.88839" lon="-1.05647">
        <ele>91.459999084473</ele>
        <time>2020-10-11T11:57:43Z</time>
      </trkpt>
      <trkpt lat="46.88826" lon="-1.05646">
        <ele>91.459999084473</ele>
        <time>2020-10-11T11:57:52Z</time>
      </trkpt>
      <trkpt lat="46.88813" lon="-1.05645">
        <ele>91.459999084473</ele>
        <time>2020-10-11T11:58:02Z</time>
      </trkpt>
      <trkpt lat="46.888" lon="-1.05645">
        <ele>91.459999084473</ele>
        <time>2020-10-11T11:58:11Z</time>
      </trkpt>
      <trkpt lat="46.88787" lon="-1.05647">
        <ele>91.459999084473</ele>
        <time>2020-10-11T11:58:20Z</time>
      </trkpt>
      <trkpt lat="46.88774" lon="-1.05647">
        <ele>91.459999084473</ele>
        <time>2020-10-11T11:58:30Z</time>
      </trkpt>
      <trkpt lat="46.88763" lon="-1.0565">
        <ele>90.980003356934</ele>
        <time>2020-10-11T11:58:38Z</time>
      </trkpt>
      <trkpt lat="46.88749" lon="-1.05655">
        <ele>89.540000915527</ele>
        <time>2020-10-11T11:58:53Z</time>
      </trkpt>
      <trkpt lat="46.88734" lon="-1.05656">
        <ele>88.580001831055</ele>
        <time>2020-10-11T11:59:04Z</time>
      </trkpt>
      <trkpt lat="46.8872" lon="-1.05652">
        <ele>88.099998474121</ele>
        <time>2020-10-11T11:59:13Z</time>
      </trkpt>
      <trkpt lat="46.88709" lon="-1.05647">
        <ele>88.099998474121</ele>
        <time>2020-10-11T11:59:21Z</time>
      </trkpt>
      <trkpt lat="46.88697" lon="-1.05643">
        <ele>88.099998474121</ele>
        <time>2020-10-11T11:59:29Z</time>
      </trkpt>
      <trkpt lat="46.88685" lon="-1.05641">
        <ele>89.540000915527</ele>
        <time>2020-10-11T11:59:36Z</time>
      </trkpt>
      <trkpt lat="46.88674" lon="-1.05637">
        <ele>90.019996643066</ele>
        <time>2020-10-11T11:59:44Z</time>
      </trkpt>
      <trkpt lat="46.88665" lon="-1.05633">
        <ele>90.5</ele>
        <time>2020-10-11T11:59:53Z</time>
      </trkpt>
      <trkpt lat="46.88654" lon="-1.05629">
        <ele>90.5</ele>
        <time>2020-10-11T12:00:02Z</time>
      </trkpt>
      <trkpt lat="46.88643" lon="-1.05624">
        <ele>90.5</ele>
        <time>2020-10-11T12:00:11Z</time>
      </trkpt>
      <trkpt lat="46.88633" lon="-1.05621">
        <ele>90.980003356934</ele>
        <time>2020-10-11T12:00:20Z</time>
      </trkpt>
      <trkpt lat="46.88625" lon="-1.05622">
        <ele>91.940002441406</ele>
        <time>2020-10-11T12:00:30Z</time>
      </trkpt>
      <trkpt lat="46.88615" lon="-1.05625">
        <ele>92.419998168945</ele>
        <time>2020-10-11T12:00:39Z</time>
      </trkpt>
      <trkpt lat="46.88605" lon="-1.05629">
        <ele>92.900001525879</ele>
        <time>2020-10-11T12:00:47Z</time>
      </trkpt>
      <trkpt lat="46.88596" lon="-1.05632">
        <ele>92.900001525879</ele>
        <time>2020-10-11T12:00:54Z</time>
      </trkpt>
      <trkpt lat="46.88586" lon="-1.05634">
        <ele>93.389999389648</ele>
        <time>2020-10-11T12:01:02Z</time>
      </trkpt>
      <trkpt lat="46.88576" lon="-1.05636">
        <ele>93.870002746582</ele>
        <time>2020-10-11T12:01:10Z</time>
      </trkpt>
      <trkpt lat="46.88566" lon="-1.05635">
        <ele>94.830001831055</ele>
        <time>2020-10-11T12:01:18Z</time>
      </trkpt>
      <trkpt lat="46.88557" lon="-1.05628">
        <ele>94.830001831055</ele>
        <time>2020-10-11T12:01:26Z</time>
      </trkpt>
      <trkpt lat="46.88552" lon="-1.05617">
        <ele>94.830001831055</ele>
        <time>2020-10-11T12:01:34Z</time>
      </trkpt>
      <trkpt lat="46.88548" lon="-1.05603">
        <ele>94.830001831055</ele>
        <time>2020-10-11T12:01:43Z</time>
      </trkpt>
      <trkpt lat="46.88544" lon="-1.0559">
        <ele>94.349998474121</ele>
        <time>2020-10-11T12:01:51Z</time>
      </trkpt>
      <trkpt lat="46.8854" lon="-1.05577">
        <ele>94.349998474121</ele>
        <time>2020-10-11T12:01:59Z</time>
      </trkpt>
      <trkpt lat="46.88536" lon="-1.05562">
        <ele>94.349998474121</ele>
        <time>2020-10-11T12:02:08Z</time>
      </trkpt>
      <trkpt lat="46.88532" lon="-1.05547">
        <ele>94.349998474121</ele>
        <time>2020-10-11T12:02:17Z</time>
      </trkpt>
      <trkpt lat="46.88527" lon="-1.0553">
        <ele>94.349998474121</ele>
        <time>2020-10-11T12:02:27Z</time>
      </trkpt>
      <trkpt lat="46.88522" lon="-1.05514">
        <ele>94.349998474121</ele>
        <time>2020-10-11T12:02:37Z</time>
      </trkpt>
      <trkpt lat="46.88517" lon="-1.05495">
        <ele>93.389999389648</ele>
        <time>2020-10-11T12:02:48Z</time>
      </trkpt>
      <trkpt lat="46.88511" lon="-1.0547">
        <ele>93.389999389648</ele>
        <time>2020-10-11T12:03:03Z</time>
      </trkpt>
      <trkpt lat="46.88506" lon="-1.05454">
        <ele>92.900001525879</ele>
        <time>2020-10-11T12:03:12Z</time>
      </trkpt>
      <trkpt lat="46.88498" lon="-1.05431">
        <ele>92.419998168945</ele>
        <time>2020-10-11T12:03:24Z</time>
      </trkpt>
      <trkpt lat="46.88493" lon="-1.05412">
        <ele>92.419998168945</ele>
        <time>2020-10-11T12:03:34Z</time>
      </trkpt>
      <trkpt lat="46.88485" lon="-1.05384">
        <ele>92.419998168945</ele>
        <time>2020-10-11T12:03:51Z</time>
      </trkpt>
      <trkpt lat="46.88475" lon="-1.05371">
        <ele>92.419998168945</ele>
        <time>2020-10-11T12:04:02Z</time>
      </trkpt>
      <trkpt lat="46.88465" lon="-1.05375">
        <ele>91.940002441406</ele>
        <time>2020-10-11T12:04:11Z</time>
      </trkpt>
      <trkpt lat="46.88455" lon="-1.05382">
        <ele>91.940002441406</ele>
        <time>2020-10-11T12:04:20Z</time>
      </trkpt>
      <trkpt lat="46.88445" lon="-1.0539">
        <ele>91.459999084473</ele>
        <time>2020-10-11T12:04:29Z</time>
      </trkpt>
      <trkpt lat="46.88437" lon="-1.05398">
        <ele>91.459999084473</ele>
        <time>2020-10-11T12:04:36Z</time>
      </trkpt>
      <trkpt lat="46.88427" lon="-1.05407">
        <ele>91.459999084473</ele>
        <time>2020-10-11T12:04:45Z</time>
      </trkpt>
      <trkpt lat="46.88417" lon="-1.05415">
        <ele>90.5</ele>
        <time>2020-10-11T12:04:53Z</time>
      </trkpt>
      <trkpt lat="46.88409" lon="-1.05421">
        <ele>90.019996643066</ele>
        <time>2020-10-11T12:05:01Z</time>
      </trkpt>
      <trkpt lat="46.884" lon="-1.05429">
        <ele>89.540000915527</ele>
        <time>2020-10-11T12:05:09Z</time>
      </trkpt>
      <trkpt lat="46.88391" lon="-1.05438">
        <ele>89.059997558594</ele>
        <time>2020-10-11T12:05:17Z</time>
      </trkpt>
      <trkpt lat="46.88382" lon="-1.05445">
        <ele>88.580001831055</ele>
        <time>2020-10-11T12:05:25Z</time>
      </trkpt>
      <trkpt lat="46.88374" lon="-1.05454">
        <ele>87.620002746582</ele>
        <time>2020-10-11T12:05:33Z</time>
      </trkpt>
      <trkpt lat="46.88365" lon="-1.05462">
        <ele>87.139999389648</ele>
        <time>2020-10-11T12:05:41Z</time>
      </trkpt>
      <trkpt lat="46.88355" lon="-1.05471">
        <ele>86.660003662109</ele>
        <time>2020-10-11T12:05:49Z</time>
      </trkpt>
      <trkpt lat="46.88344" lon="-1.05478">
        <ele>86.660003662109</ele>
        <time>2020-10-11T12:05:58Z</time>
      </trkpt>
      <trkpt lat="46.88335" lon="-1.05487">
        <ele>86.180000305176</ele>
        <time>2020-10-11T12:06:06Z</time>
      </trkpt>
      <trkpt lat="46.88325" lon="-1.05494">
        <ele>86.180000305176</ele>
        <time>2020-10-11T12:06:14Z</time>
      </trkpt>
      <trkpt lat="46.88315" lon="-1.05503">
        <ele>86.180000305176</ele>
        <time>2020-10-11T12:06:22Z</time>
      </trkpt>
      <trkpt lat="46.88305" lon="-1.05509">
        <ele>85.690002441406</ele>
        <time>2020-10-11T12:06:29Z</time>
      </trkpt>
      <trkpt lat="46.88296" lon="-1.05515">
        <ele>85.209999084473</ele>
        <time>2020-10-11T12:06:37Z</time>
      </trkpt>
      <trkpt lat="46.88287" lon="-1.05522">
        <ele>84.730003356934</ele>
        <time>2020-10-11T12:06:45Z</time>
      </trkpt>
      <trkpt lat="46.88278" lon="-1.05529">
        <ele>84.25</ele>
        <time>2020-10-11T12:06:53Z</time>
      </trkpt>
      <trkpt lat="46.88268" lon="-1.05534">
        <ele>83.769996643066</ele>
        <time>2020-10-11T12:07:01Z</time>
      </trkpt>
      <trkpt lat="46.88259" lon="-1.05542">
        <ele>83.769996643066</ele>
        <time>2020-10-11T12:07:09Z</time>
      </trkpt>
      <trkpt lat="46.8825" lon="-1.05546">
        <ele>83.290000915527</ele>
        <time>2020-10-11T12:07:16Z</time>
      </trkpt>
      <trkpt lat="46.8824" lon="-1.05551">
        <ele>82.809997558594</ele>
        <time>2020-10-11T12:07:24Z</time>
      </trkpt>
      <trkpt lat="46.8823" lon="-1.05557">
        <ele>82.809997558594</ele>
        <time>2020-10-11T12:07:32Z</time>
      </trkpt>
      <trkpt lat="46.8822" lon="-1.05561">
        <ele>82.330001831055</ele>
        <time>2020-10-11T12:07:40Z</time>
      </trkpt>
      <trkpt lat="46.8821" lon="-1.05566">
        <ele>81.849998474121</ele>
        <time>2020-10-11T12:07:48Z</time>
      </trkpt>
      <trkpt lat="46.882" lon="-1.05572">
        <ele>81.370002746582</ele>
        <time>2020-10-11T12:07:56Z</time>
      </trkpt>
      <trkpt lat="46.88189" lon="-1.05576">
        <ele>81.370002746582</ele>
        <time>2020-10-11T12:08:03Z</time>
      </trkpt>
      <trkpt lat="46.88178" lon="-1.0558">
        <ele>80.889999389648</ele>
        <time>2020-10-11T12:08:12Z</time>
      </trkpt>
      <trkpt lat="46.88168" lon="-1.05585">
        <ele>80.889999389648</ele>
        <time>2020-10-11T12:08:20Z</time>
      </trkpt>
      <trkpt lat="46.88158" lon="-1.05591">
        <ele>80.889999389648</ele>
        <time>2020-10-11T12:08:28Z</time>
      </trkpt>
      <trkpt lat="46.88147" lon="-1.05595">
        <ele>80.410003662109</ele>
        <time>2020-10-11T12:08:36Z</time>
      </trkpt>
      <trkpt lat="46.88137" lon="-1.05601">
        <ele>80.410003662109</ele>
        <time>2020-10-11T12:08:44Z</time>
      </trkpt>
      <trkpt lat="46.88126" lon="-1.05606">
        <ele>80.410003662109</ele>
        <time>2020-10-11T12:08:52Z</time>
      </trkpt>
      <trkpt lat="46.88114" lon="-1.05612">
        <ele>79.930000305176</ele>
        <time>2020-10-11T12:09:01Z</time>
      </trkpt>
      <trkpt lat="46.88104" lon="-1.05618">
        <ele>79.930000305176</ele>
        <time>2020-10-11T12:09:09Z</time>
      </trkpt>
      <trkpt lat="46.88093" lon="-1.05622">
        <ele>79.930000305176</ele>
        <time>2020-10-11T12:09:17Z</time>
      </trkpt>
      <trkpt lat="46.88083" lon="-1.05628">
        <ele>79.449996948242</ele>
        <time>2020-10-11T12:09:25Z</time>
      </trkpt>
      <trkpt lat="46.88071" lon="-1.05633">
        <ele>79.449996948242</ele>
        <time>2020-10-11T12:09:33Z</time>
      </trkpt>
      <trkpt lat="46.88061" lon="-1.05637">
        <ele>79.449996948242</ele>
        <time>2020-10-11T12:09:43Z</time>
      </trkpt>
      <trkpt lat="46.88049" lon="-1.05643">
        <ele>78.970001220703</ele>
        <time>2020-10-11T12:09:54Z</time>
      </trkpt>
      <trkpt lat="46.88035" lon="-1.05647">
        <ele>78.480003356934</ele>
        <time>2020-10-11T12:10:06Z</time>
      </trkpt>
      <trkpt lat="46.88022" lon="-1.05651">
        <ele>78.480003356934</ele>
        <time>2020-10-11T12:10:16Z</time>
      </trkpt>
      <trkpt lat="46.88009" lon="-1.05659">
        <ele>78.480003356934</ele>
        <time>2020-10-11T12:10:26Z</time>
      </trkpt>
      <trkpt lat="46.87996" lon="-1.05667">
        <ele>78.480003356934</ele>
        <time>2020-10-11T12:10:35Z</time>
      </trkpt>
      <trkpt lat="46.87983" lon="-1.05675">
        <ele>78.480003356934</ele>
        <time>2020-10-11T12:10:44Z</time>
      </trkpt>
      <trkpt lat="46.87972" lon="-1.05679">
        <ele>78</ele>
        <time>2020-10-11T12:10:53Z</time>
      </trkpt>
      <trkpt lat="46.8796" lon="-1.05682">
        <ele>78</ele>
        <time>2020-10-11T12:11:02Z</time>
      </trkpt>
      <trkpt lat="46.87949" lon="-1.05685">
        <ele>78</ele>
        <time>2020-10-11T12:11:10Z</time>
      </trkpt>
      <trkpt lat="46.87932" lon="-1.05689">
        <ele>78</ele>
        <time>2020-10-11T12:11:23Z</time>
      </trkpt>
      <trkpt lat="46.8792" lon="-1.05692">
        <ele>78</ele>
        <time>2020-10-11T12:11:32Z</time>
      </trkpt>
      <trkpt lat="46.87906" lon="-1.05696">
        <ele>77.519996643066</ele>
        <time>2020-10-11T12:11:44Z</time>
      </trkpt>
      <trkpt lat="46.8789" lon="-1.05704">
        <ele>77.519996643066</ele>
        <time>2020-10-11T12:11:58Z</time>
      </trkpt>
      <trkpt lat="46.87877" lon="-1.05707">
        <ele>77.519996643066</ele>
        <time>2020-10-11T12:12:08Z</time>
      </trkpt>
      <trkpt lat="46.87862" lon="-1.05714">
        <ele>77.040000915527</ele>
        <time>2020-10-11T12:12:19Z</time>
      </trkpt>
      <trkpt lat="46.87849" lon="-1.05715">
        <ele>76.080001831055</ele>
        <time>2020-10-11T12:12:29Z</time>
      </trkpt>
      <trkpt lat="46.87838" lon="-1.05719">
        <ele>76.080001831055</ele>
        <time>2020-10-11T12:12:38Z</time>
      </trkpt>
      <trkpt lat="46.87825" lon="-1.05721">
        <ele>75.599998474121</ele>
        <time>2020-10-11T12:12:47Z</time>
      </trkpt>
      <trkpt lat="46.87812" lon="-1.05725">
        <ele>75.120002746582</ele>
        <time>2020-10-11T12:12:56Z</time>
      </trkpt>
      <trkpt lat="46.87799" lon="-1.05728">
        <ele>74.160003662109</ele>
        <time>2020-10-11T12:13:05Z</time>
      </trkpt>
      <trkpt lat="46.87787" lon="-1.0573">
        <ele>74.160003662109</ele>
        <time>2020-10-11T12:13:13Z</time>
      </trkpt>
      <trkpt lat="46.87775" lon="-1.0573">
        <ele>73.680000305176</ele>
        <time>2020-10-11T12:13:22Z</time>
      </trkpt>
      <trkpt lat="46.87763" lon="-1.05728">
        <ele>73.199996948242</ele>
        <time>2020-10-11T12:13:31Z</time>
      </trkpt>
      <trkpt lat="46.87751" lon="-1.05721">
        <ele>72.720001220703</ele>
        <time>2020-10-11T12:13:39Z</time>
      </trkpt>
      <trkpt lat="46.87735" lon="-1.05713">
        <ele>72.720001220703</ele>
        <time>2020-10-11T12:13:55Z</time>
      </trkpt>
      <trkpt lat="46.87726" lon="-1.05703">
        <ele>72.720001220703</ele>
        <time>2020-10-11T12:14:04Z</time>
      </trkpt>
      <trkpt lat="46.87714" lon="-1.05696">
        <ele>72.720001220703</ele>
        <time>2020-10-11T12:14:14Z</time>
      </trkpt>
      <trkpt lat="46.87703" lon="-1.0569">
        <ele>72.720001220703</ele>
        <time>2020-10-11T12:14:24Z</time>
      </trkpt>
      <trkpt lat="46.87692" lon="-1.05684">
        <ele>72.23999786377</ele>
        <time>2020-10-11T12:14:33Z</time>
      </trkpt>
      <trkpt lat="46.8768" lon="-1.05681">
        <ele>72.23999786377</ele>
        <time>2020-10-11T12:14:42Z</time>
      </trkpt>
      <trkpt lat="46.87668" lon="-1.05674">
        <ele>73.680000305176</ele>
        <time>2020-10-11T12:14:51Z</time>
      </trkpt>
      <trkpt lat="46.87657" lon="-1.05671">
        <ele>74.639999389648</ele>
        <time>2020-10-11T12:15:00Z</time>
      </trkpt>
      <trkpt lat="46.87645" lon="-1.0567">
        <ele>74.639999389648</ele>
        <time>2020-10-11T12:15:12Z</time>
      </trkpt>
      <trkpt lat="46.87636" lon="-1.05672">
        <ele>74.639999389648</ele>
        <time>2020-10-11T12:15:22Z</time>
      </trkpt>
      <trkpt lat="46.87633" lon="-1.05685">
        <ele>74.639999389648</ele>
        <time>2020-10-11T12:15:31Z</time>
      </trkpt>
      <trkpt lat="46.87629" lon="-1.05702">
        <ele>74.639999389648</ele>
        <time>2020-10-11T12:15:43Z</time>
      </trkpt>
      <trkpt lat="46.87625" lon="-1.0572">
        <ele>74.639999389648</ele>
        <time>2020-10-11T12:15:51Z</time>
      </trkpt>
      <trkpt lat="46.87623" lon="-1.05734">
        <ele>74.639999389648</ele>
        <time>2020-10-11T12:16:00Z</time>
      </trkpt>
      <trkpt lat="46.87621" lon="-1.05749">
        <ele>74.639999389648</ele>
        <time>2020-10-11T12:16:10Z</time>
      </trkpt>
      <trkpt lat="46.87619" lon="-1.05764">
        <ele>74.639999389648</ele>
        <time>2020-10-11T12:16:18Z</time>
      </trkpt>
      <trkpt lat="46.87616" lon="-1.05779">
        <ele>74.639999389648</ele>
        <time>2020-10-11T12:16:26Z</time>
      </trkpt>
      <trkpt lat="46.87614" lon="-1.05795">
        <ele>74.160003662109</ele>
        <time>2020-10-11T12:16:34Z</time>
      </trkpt>
      <trkpt lat="46.87611" lon="-1.0581">
        <ele>74.160003662109</ele>
        <time>2020-10-11T12:16:42Z</time>
      </trkpt>
      <trkpt lat="46.87608" lon="-1.05828">
        <ele>74.160003662109</ele>
        <time>2020-10-11T12:16:50Z</time>
      </trkpt>
      <trkpt lat="46.87601" lon="-1.05839">
        <ele>75.120002746582</ele>
        <time>2020-10-11T12:16:58Z</time>
      </trkpt>
      <trkpt lat="46.87592" lon="-1.05846">
        <ele>75.120002746582</ele>
        <time>2020-10-11T12:17:06Z</time>
      </trkpt>
      <trkpt lat="46.87582" lon="-1.0585">
        <ele>75.120002746582</ele>
        <time>2020-10-11T12:17:14Z</time>
      </trkpt>
      <trkpt lat="46.87573" lon="-1.05856">
        <ele>75.120002746582</ele>
        <time>2020-10-11T12:17:22Z</time>
      </trkpt>
      <trkpt lat="46.87564" lon="-1.05863">
        <ele>75.120002746582</ele>
        <time>2020-10-11T12:17:30Z</time>
      </trkpt>
      <trkpt lat="46.87557" lon="-1.05871">
        <ele>75.120002746582</ele>
        <time>2020-10-11T12:17:39Z</time>
      </trkpt>
      <trkpt lat="46.87546" lon="-1.05878">
        <ele>75.599998474121</ele>
        <time>2020-10-11T12:17:49Z</time>
      </trkpt>
      <trkpt lat="46.87537" lon="-1.05886">
        <ele>75.599998474121</ele>
        <time>2020-10-11T12:17:58Z</time>
      </trkpt>
      <trkpt lat="46.87525" lon="-1.05889">
        <ele>76.559997558594</ele>
        <time>2020-10-11T12:18:07Z</time>
      </trkpt>
      <trkpt lat="46.87512" lon="-1.05892">
        <ele>76.559997558594</ele>
        <time>2020-10-11T12:18:16Z</time>
      </trkpt>
      <trkpt lat="46.87501" lon="-1.05892">
        <ele>77.040000915527</ele>
        <time>2020-10-11T12:18:25Z</time>
      </trkpt>
      <trkpt lat="46.8749" lon="-1.0589">
        <ele>77.519996643066</ele>
        <time>2020-10-11T12:18:33Z</time>
      </trkpt>
      <trkpt lat="46.87479" lon="-1.05888">
        <ele>77.519996643066</ele>
        <time>2020-10-11T12:18:40Z</time>
      </trkpt>
      <trkpt lat="46.87469" lon="-1.05887">
        <ele>78</ele>
        <time>2020-10-11T12:18:47Z</time>
      </trkpt>
      <trkpt lat="46.87459" lon="-1.05887">
        <ele>78.480003356934</ele>
        <time>2020-10-11T12:18:56Z</time>
      </trkpt>
      <trkpt lat="46.87449" lon="-1.05885">
        <ele>78.970001220703</ele>
        <time>2020-10-11T12:19:04Z</time>
      </trkpt>
      <trkpt lat="46.87438" lon="-1.05884">
        <ele>79.449996948242</ele>
        <time>2020-10-11T12:19:13Z</time>
      </trkpt>
      <trkpt lat="46.87428" lon="-1.0588">
        <ele>79.449996948242</ele>
        <time>2020-10-11T12:19:21Z</time>
      </trkpt>
      <trkpt lat="46.87417" lon="-1.05879">
        <ele>79.449996948242</ele>
        <time>2020-10-11T12:19:29Z</time>
      </trkpt>
      <trkpt lat="46.87407" lon="-1.05877">
        <ele>79.930000305176</ele>
        <time>2020-10-11T12:19:37Z</time>
      </trkpt>
      <trkpt lat="46.87397" lon="-1.05876">
        <ele>79.930000305176</ele>
        <time>2020-10-11T12:19:46Z</time>
      </trkpt>
      <trkpt lat="46.87386" lon="-1.05877">
        <ele>80.410003662109</ele>
        <time>2020-10-11T12:19:57Z</time>
      </trkpt>
      <trkpt lat="46.87376" lon="-1.05877">
        <ele>80.889999389648</ele>
        <time>2020-10-11T12:20:05Z</time>
      </trkpt>
      <trkpt lat="46.87365" lon="-1.05879">
        <ele>80.889999389648</ele>
        <time>2020-10-11T12:20:16Z</time>
      </trkpt>
      <trkpt lat="46.87356" lon="-1.0588">
        <ele>80.889999389648</ele>
        <time>2020-10-11T12:20:23Z</time>
      </trkpt>
      <trkpt lat="46.87346" lon="-1.05884">
        <ele>81.849998474121</ele>
        <time>2020-10-11T12:20:31Z</time>
      </trkpt>
      <trkpt lat="46.87338" lon="-1.05889">
        <ele>81.849998474121</ele>
        <time>2020-10-11T12:20:39Z</time>
      </trkpt>
      <trkpt lat="46.8733" lon="-1.05897">
        <ele>81.849998474121</ele>
        <time>2020-10-11T12:20:47Z</time>
      </trkpt>
      <trkpt lat="46.8732" lon="-1.05905">
        <ele>82.809997558594</ele>
        <time>2020-10-11T12:20:55Z</time>
      </trkpt>
      <trkpt lat="46.87312" lon="-1.05913">
        <ele>82.809997558594</ele>
        <time>2020-10-11T12:21:03Z</time>
      </trkpt>
      <trkpt lat="46.87302" lon="-1.05922">
        <ele>82.809997558594</ele>
        <time>2020-10-11T12:21:11Z</time>
      </trkpt>
      <trkpt lat="46.87291" lon="-1.0593">
        <ele>83.290000915527</ele>
        <time>2020-10-11T12:21:19Z</time>
      </trkpt>
      <trkpt lat="46.87281" lon="-1.05936">
        <ele>83.290000915527</ele>
        <time>2020-10-11T12:21:27Z</time>
      </trkpt>
      <trkpt lat="46.87272" lon="-1.05943">
        <ele>83.290000915527</ele>
        <time>2020-10-11T12:21:35Z</time>
      </trkpt>
      <trkpt lat="46.87264" lon="-1.0595">
        <ele>83.290000915527</ele>
        <time>2020-10-11T12:21:43Z</time>
      </trkpt>
      <trkpt lat="46.87256" lon="-1.05957">
        <ele>83.769996643066</ele>
        <time>2020-10-11T12:21:51Z</time>
      </trkpt>
      <trkpt lat="46.87247" lon="-1.05964">
        <ele>83.769996643066</ele>
        <time>2020-10-11T12:21:58Z</time>
      </trkpt>
      <trkpt lat="46.87239" lon="-1.0597">
        <ele>84.25</ele>
        <time>2020-10-11T12:22:06Z</time>
      </trkpt>
      <trkpt lat="46.87231" lon="-1.0598">
        <ele>84.25</ele>
        <time>2020-10-11T12:22:14Z</time>
      </trkpt>
      <trkpt lat="46.87225" lon="-1.0599">
        <ele>84.730003356934</ele>
        <time>2020-10-11T12:22:21Z</time>
      </trkpt>
      <trkpt lat="46.87219" lon="-1.06001">
        <ele>85.209999084473</ele>
        <time>2020-10-11T12:22:29Z</time>
      </trkpt>
      <trkpt lat="46.87214" lon="-1.06015">
        <ele>85.690002441406</ele>
        <time>2020-10-11T12:22:37Z</time>
      </trkpt>
      <trkpt lat="46.87209" lon="-1.06027">
        <ele>85.690002441406</ele>
        <time>2020-10-11T12:22:44Z</time>
      </trkpt>
      <trkpt lat="46.87203" lon="-1.0604">
        <ele>85.690002441406</ele>
        <time>2020-10-11T12:22:52Z</time>
      </trkpt>
      <trkpt lat="46.87198" lon="-1.06052">
        <ele>85.690002441406</ele>
        <time>2020-10-11T12:22:59Z</time>
      </trkpt>
      <trkpt lat="46.87194" lon="-1.06065">
        <ele>86.660003662109</ele>
        <time>2020-10-11T12:23:07Z</time>
      </trkpt>
      <trkpt lat="46.87188" lon="-1.06077">
        <ele>86.660003662109</ele>
        <time>2020-10-11T12:23:15Z</time>
      </trkpt>
      <trkpt lat="46.87177" lon="-1.06079">
        <ele>86.660003662109</ele>
        <time>2020-10-11T12:23:28Z</time>
      </trkpt>
      <trkpt lat="46.87167" lon="-1.06079">
        <ele>87.139999389648</ele>
        <time>2020-10-11T12:23:36Z</time>
      </trkpt>
      <trkpt lat="46.87157" lon="-1.0608">
        <ele>87.139999389648</ele>
        <time>2020-10-11T12:23:43Z</time>
      </trkpt>
      <trkpt lat="46.87148" lon="-1.06081">
        <ele>87.139999389648</ele>
        <time>2020-10-11T12:23:50Z</time>
      </trkpt>
      <trkpt lat="46.87138" lon="-1.0608">
        <ele>87.620002746582</ele>
        <time>2020-10-11T12:23:57Z</time>
      </trkpt>
      <trkpt lat="46.87129" lon="-1.0608">
        <ele>88.580001831055</ele>
        <time>2020-10-11T12:24:05Z</time>
      </trkpt>
      <trkpt lat="46.87119" lon="-1.06081">
        <ele>88.580001831055</ele>
        <time>2020-10-11T12:24:13Z</time>
      </trkpt>
      <trkpt lat="46.87109" lon="-1.06081">
        <ele>88.580001831055</ele>
        <time>2020-10-11T12:24:21Z</time>
      </trkpt>
      <trkpt lat="46.871" lon="-1.0608">
        <ele>88.580001831055</ele>
        <time>2020-10-11T12:24:29Z</time>
      </trkpt>
      <trkpt lat="46.87095" lon="-1.06083">
        <ele>89.059997558594</ele>
        <time>2020-10-11T12:25:17Z</time>
      </trkpt>
      <trkpt lat="46.87086" lon="-1.06089">
        <ele>89.059997558594</ele>
        <time>2020-10-11T12:25:27Z</time>
      </trkpt>
      <trkpt lat="46.87074" lon="-1.06093">
        <ele>89.059997558594</ele>
        <time>2020-10-11T12:25:37Z</time>
      </trkpt>
      <trkpt lat="46.87062" lon="-1.06099">
        <ele>89.059997558594</ele>
        <time>2020-10-11T12:25:45Z</time>
      </trkpt>
      <trkpt lat="46.87051" lon="-1.06104">
        <ele>89.059997558594</ele>
        <time>2020-10-11T12:25:55Z</time>
      </trkpt>
      <trkpt lat="46.8704" lon="-1.06112">
        <ele>89.059997558594</ele>
        <time>2020-10-11T12:26:05Z</time>
      </trkpt>
      <trkpt lat="46.87026" lon="-1.06116">
        <ele>89.540000915527</ele>
        <time>2020-10-11T12:26:14Z</time>
      </trkpt>
      <trkpt lat="46.87016" lon="-1.0612">
        <ele>89.540000915527</ele>
        <time>2020-10-11T12:26:22Z</time>
      </trkpt>
      <trkpt lat="46.87005" lon="-1.0613">
        <ele>89.540000915527</ele>
        <time>2020-10-11T12:26:31Z</time>
      </trkpt>
      <trkpt lat="46.86994" lon="-1.06136">
        <ele>89.540000915527</ele>
        <time>2020-10-11T12:26:40Z</time>
      </trkpt>
      <trkpt lat="46.86982" lon="-1.06141">
        <ele>89.540000915527</ele>
        <time>2020-10-11T12:26:49Z</time>
      </trkpt>
      <trkpt lat="46.8697" lon="-1.06147">
        <ele>89.540000915527</ele>
        <time>2020-10-11T12:27:01Z</time>
      </trkpt>
      <trkpt lat="46.86959" lon="-1.06155">
        <ele>89.540000915527</ele>
        <time>2020-10-11T12:27:12Z</time>
      </trkpt>
      <trkpt lat="46.86947" lon="-1.06165">
        <ele>89.540000915527</ele>
        <time>2020-10-11T12:27:25Z</time>
      </trkpt>
      <trkpt lat="46.86936" lon="-1.06172">
        <ele>89.540000915527</ele>
        <time>2020-10-11T12:27:35Z</time>
      </trkpt>
      <trkpt lat="46.86924" lon="-1.06181">
        <ele>89.540000915527</ele>
        <time>2020-10-11T12:27:46Z</time>
      </trkpt>
      <trkpt lat="46.86913" lon="-1.06191">
        <ele>89.540000915527</ele>
        <time>2020-10-11T12:27:56Z</time>
      </trkpt>
      <trkpt lat="46.86904" lon="-1.06204">
        <ele>89.059997558594</ele>
        <time>2020-10-11T12:28:06Z</time>
      </trkpt>
      <trkpt lat="46.86886" lon="-1.06227">
        <ele>89.059997558594</ele>
        <time>2020-10-11T12:28:23Z</time>
      </trkpt>
      <trkpt lat="46.86877" lon="-1.06242">
        <ele>89.059997558594</ele>
        <time>2020-10-11T12:28:33Z</time>
      </trkpt>
      <trkpt lat="46.86866" lon="-1.06258">
        <ele>89.059997558594</ele>
        <time>2020-10-11T12:28:46Z</time>
      </trkpt>
      <trkpt lat="46.86854" lon="-1.06276">
        <ele>87.620002746582</ele>
        <time>2020-10-11T12:28:59Z</time>
      </trkpt>
      <trkpt lat="46.86816" lon="-1.06376">
        <ele>85.209999084473</ele>
        <time>2020-10-11T12:30:01Z</time>
      </trkpt>
      <trkpt lat="46.86802" lon="-1.06402">
        <ele>84.730003356934</ele>
        <time>2020-10-11T12:30:17Z</time>
      </trkpt>
      <trkpt lat="46.86795" lon="-1.06419">
        <ele>84.25</ele>
        <time>2020-10-11T12:30:26Z</time>
      </trkpt>
      <trkpt lat="46.86797" lon="-1.06437">
        <ele>83.769996643066</ele>
        <time>2020-10-11T12:30:39Z</time>
      </trkpt>
      <trkpt lat="46.86766" lon="-1.06434">
        <ele>87.620002746582</ele>
        <time>2020-10-11T12:40:13Z</time>
      </trkpt>
      <trkpt lat="46.86751" lon="-1.06421">
        <ele>87.620002746582</ele>
        <time>2020-10-11T12:40:27Z</time>
      </trkpt>
      <trkpt lat="46.86742" lon="-1.06414">
        <ele>87.620002746582</ele>
        <time>2020-10-11T12:40:38Z</time>
      </trkpt>
      <trkpt lat="46.86732" lon="-1.06405">
        <ele>87.620002746582</ele>
        <time>2020-10-11T12:40:50Z</time>
      </trkpt>
      <trkpt lat="46.86721" lon="-1.06392">
        <ele>87.620002746582</ele>
        <time>2020-10-11T12:41:03Z</time>
      </trkpt>
      <trkpt lat="46.86696" lon="-1.06295">
        <ele>89.540000915527</ele>
        <time>2020-10-11T12:42:35Z</time>
      </trkpt>
      <trkpt lat="46.86729" lon="-1.06211">
        <ele>90.5</ele>
        <time>2020-10-11T12:43:39Z</time>
      </trkpt>
      <trkpt lat="46.86745" lon="-1.06071">
        <ele>90.019996643066</ele>
        <time>2020-10-11T12:45:46Z</time>
      </trkpt>
      <trkpt lat="46.86886" lon="-1.05826">
        <ele>89.540000915527</ele>
        <time>2020-10-11T12:48:59Z</time>
      </trkpt>
      <trkpt lat="46.86891" lon="-1.05806">
        <ele>89.540000915527</ele>
        <time>2020-10-11T12:49:11Z</time>
      </trkpt>
      <trkpt lat="46.86892" lon="-1.05784">
        <ele>89.540000915527</ele>
        <time>2020-10-11T12:49:21Z</time>
      </trkpt>
      <trkpt lat="46.86893" lon="-1.05766">
        <ele>89.059997558594</ele>
        <time>2020-10-11T12:49:30Z</time>
      </trkpt>
      <trkpt lat="46.86893" lon="-1.05746">
        <ele>89.059997558594</ele>
        <time>2020-10-11T12:49:39Z</time>
      </trkpt>
      <trkpt lat="46.86895" lon="-1.05729">
        <ele>89.059997558594</ele>
        <time>2020-10-11T12:49:48Z</time>
      </trkpt>
      <trkpt lat="46.86897" lon="-1.05715">
        <ele>89.059997558594</ele>
        <time>2020-10-11T12:49:58Z</time>
      </trkpt>
      <trkpt lat="46.86912" lon="-1.05689">
        <ele>89.059997558594</ele>
        <time>2020-10-11T12:50:20Z</time>
      </trkpt>
      <trkpt lat="46.86922" lon="-1.05673">
        <ele>89.059997558594</ele>
        <time>2020-10-11T12:50:32Z</time>
      </trkpt>
      <trkpt lat="46.8693" lon="-1.05654">
        <ele>89.059997558594</ele>
        <time>2020-10-11T12:50:44Z</time>
      </trkpt>
      <trkpt lat="46.8694" lon="-1.05634">
        <ele>89.059997558594</ele>
        <time>2020-10-11T12:50:57Z</time>
      </trkpt>
      <trkpt lat="46.86948" lon="-1.05618">
        <ele>88.099998474121</ele>
        <time>2020-10-11T12:51:08Z</time>
      </trkpt>
      <trkpt lat="46.86962" lon="-1.05606">
        <ele>88.099998474121</ele>
        <time>2020-10-11T12:51:18Z</time>
      </trkpt>
      <trkpt lat="46.86972" lon="-1.05596">
        <ele>87.620002746582</ele>
        <time>2020-10-11T12:51:29Z</time>
      </trkpt>
      <trkpt lat="46.86987" lon="-1.0559">
        <ele>87.139999389648</ele>
        <time>2020-10-11T12:51:45Z</time>
      </trkpt>
      <trkpt lat="46.87001" lon="-1.05426">
        <ele>84.730003356934</ele>
        <time>2020-10-11T12:53:47Z</time>
      </trkpt>
      <trkpt lat="46.86999" lon="-1.05397">
        <ele>84.730003356934</ele>
        <time>2020-10-11T12:53:59Z</time>
      </trkpt>
      <trkpt lat="46.86995" lon="-1.05378">
        <ele>84.25</ele>
        <time>2020-10-11T12:54:09Z</time>
      </trkpt>
      <trkpt lat="46.86991" lon="-1.05355">
        <ele>84.25</ele>
        <time>2020-10-11T12:54:23Z</time>
      </trkpt>
      <trkpt lat="46.86986" lon="-1.05336">
        <ele>84.25</ele>
        <time>2020-10-11T12:54:33Z</time>
      </trkpt>
      <trkpt lat="46.8698" lon="-1.05299">
        <ele>83.769996643066</ele>
        <time>2020-10-11T12:54:56Z</time>
      </trkpt>
      <trkpt lat="46.86977" lon="-1.05278">
        <ele>85.209999084473</ele>
        <time>2020-10-11T12:55:06Z</time>
      </trkpt>
      <trkpt lat="46.86977" lon="-1.05236">
        <ele>85.209999084473</ele>
        <time>2020-10-11T12:55:34Z</time>
      </trkpt>
      <trkpt lat="46.86989" lon="-1.05214">
        <ele>85.209999084473</ele>
        <time>2020-10-11T12:55:49Z</time>
      </trkpt>
      <trkpt lat="46.86994" lon="-1.05199">
        <ele>83.769996643066</ele>
        <time>2020-10-11T12:56:00Z</time>
      </trkpt>
      <trkpt lat="46.87" lon="-1.05188">
        <ele>83.769996643066</ele>
        <time>2020-10-11T12:56:10Z</time>
      </trkpt>
      <trkpt lat="46.87009" lon="-1.05176">
        <ele>84.25</ele>
        <time>2020-10-11T12:56:20Z</time>
      </trkpt>
      <trkpt lat="46.87019" lon="-1.05167">
        <ele>83.769996643066</ele>
        <time>2020-10-11T12:56:31Z</time>
      </trkpt>
      <trkpt lat="46.87027" lon="-1.05156">
        <ele>83.769996643066</ele>
        <time>2020-10-11T12:56:40Z</time>
      </trkpt>
      <trkpt lat="46.87036" lon="-1.05143">
        <ele>83.769996643066</ele>
        <time>2020-10-11T12:56:49Z</time>
      </trkpt>
      <trkpt lat="46.87042" lon="-1.05126">
        <ele>83.290000915527</ele>
        <time>2020-10-11T12:56:58Z</time>
      </trkpt>
      <trkpt lat="46.87047" lon="-1.05112">
        <ele>83.290000915527</ele>
        <time>2020-10-11T12:57:06Z</time>
      </trkpt>
      <trkpt lat="46.87051" lon="-1.05097">
        <ele>83.290000915527</ele>
        <time>2020-10-11T12:57:15Z</time>
      </trkpt>
      <trkpt lat="46.87057" lon="-1.05081">
        <ele>83.290000915527</ele>
        <time>2020-10-11T12:57:24Z</time>
      </trkpt>
      <trkpt lat="46.87061" lon="-1.05066">
        <ele>83.290000915527</ele>
        <time>2020-10-11T12:57:32Z</time>
      </trkpt>
      <trkpt lat="46.87066" lon="-1.05052">
        <ele>83.290000915527</ele>
        <time>2020-10-11T12:57:40Z</time>
      </trkpt>
      <trkpt lat="46.87071" lon="-1.05038">
        <ele>83.290000915527</ele>
        <time>2020-10-11T12:57:49Z</time>
      </trkpt>
      <trkpt lat="46.87079" lon="-1.05024">
        <ele>84.730003356934</ele>
        <time>2020-10-11T12:57:58Z</time>
      </trkpt>
      <trkpt lat="46.87087" lon="-1.05011">
        <ele>84.730003356934</ele>
        <time>2020-10-11T12:58:07Z</time>
      </trkpt>
      <trkpt lat="46.87093" lon="-1.05">
        <ele>84.730003356934</ele>
        <time>2020-10-11T12:58:15Z</time>
      </trkpt>
      <trkpt lat="46.87101" lon="-1.04988">
        <ele>84.730003356934</ele>
        <time>2020-10-11T12:58:25Z</time>
      </trkpt>
      <trkpt lat="46.87108" lon="-1.04977">
        <ele>84.730003356934</ele>
        <time>2020-10-11T12:58:34Z</time>
      </trkpt>
      <trkpt lat="46.87119" lon="-1.04966">
        <ele>84.730003356934</ele>
        <time>2020-10-11T12:58:44Z</time>
      </trkpt>
      <trkpt lat="46.87128" lon="-1.04955">
        <ele>84.730003356934</ele>
        <time>2020-10-11T12:58:52Z</time>
      </trkpt>
      <trkpt lat="46.87131" lon="-1.0494">
        <ele>84.730003356934</ele>
        <time>2020-10-11T12:59:00Z</time>
      </trkpt>
      <trkpt lat="46.87127" lon="-1.04929">
        <ele>84.730003356934</ele>
        <time>2020-10-11T12:59:07Z</time>
      </trkpt>
      <trkpt lat="46.87121" lon="-1.04917">
        <ele>84.730003356934</ele>
        <time>2020-10-11T12:59:15Z</time>
      </trkpt>
      <trkpt lat="46.87115" lon="-1.04905">
        <ele>84.730003356934</ele>
        <time>2020-10-11T12:59:24Z</time>
      </trkpt>
      <trkpt lat="46.87109" lon="-1.04893">
        <ele>84.730003356934</ele>
        <time>2020-10-11T12:59:32Z</time>
      </trkpt>
      <trkpt lat="46.87103" lon="-1.0488">
        <ele>85.209999084473</ele>
        <time>2020-10-11T12:59:41Z</time>
      </trkpt>
      <trkpt lat="46.87097" lon="-1.04867">
        <ele>85.209999084473</ele>
        <time>2020-10-11T12:59:49Z</time>
      </trkpt>
      <trkpt lat="46.87092" lon="-1.04854">
        <ele>85.209999084473</ele>
        <time>2020-10-11T12:59:57Z</time>
      </trkpt>
      <trkpt lat="46.87085" lon="-1.04839">
        <ele>85.690002441406</ele>
        <time>2020-10-11T13:00:26Z</time>
      </trkpt>
      <trkpt lat="46.8708" lon="-1.04826">
        <ele>85.690002441406</ele>
        <time>2020-10-11T13:00:34Z</time>
      </trkpt>
      <trkpt lat="46.87073" lon="-1.04814">
        <ele>85.690002441406</ele>
        <time>2020-10-11T13:00:41Z</time>
      </trkpt>
      <trkpt lat="46.87067" lon="-1.04804">
        <ele>85.690002441406</ele>
        <time>2020-10-11T13:00:48Z</time>
      </trkpt>
      <trkpt lat="46.87061" lon="-1.04792">
        <ele>85.690002441406</ele>
        <time>2020-10-11T13:00:55Z</time>
      </trkpt>
      <trkpt lat="46.87056" lon="-1.04779">
        <ele>85.690002441406</ele>
        <time>2020-10-11T13:01:03Z</time>
      </trkpt>
      <trkpt lat="46.87051" lon="-1.04766">
        <ele>85.690002441406</ele>
        <time>2020-10-11T13:01:11Z</time>
      </trkpt>
      <trkpt lat="46.87046" lon="-1.04752">
        <ele>85.690002441406</ele>
        <time>2020-10-11T13:01:20Z</time>
      </trkpt>
      <trkpt lat="46.87042" lon="-1.04738">
        <ele>85.690002441406</ele>
        <time>2020-10-11T13:01:28Z</time>
      </trkpt>
      <trkpt lat="46.87038" lon="-1.04722">
        <ele>85.690002441406</ele>
        <time>2020-10-11T13:01:37Z</time>
      </trkpt>
      <trkpt lat="46.87035" lon="-1.04707">
        <ele>85.690002441406</ele>
        <time>2020-10-11T13:01:45Z</time>
      </trkpt>
      <trkpt lat="46.87033" lon="-1.04691">
        <ele>85.690002441406</ele>
        <time>2020-10-11T13:01:54Z</time>
      </trkpt>
      <trkpt lat="46.87032" lon="-1.04676">
        <ele>85.690002441406</ele>
        <time>2020-10-11T13:02:02Z</time>
      </trkpt>
      <trkpt lat="46.87031" lon="-1.04661">
        <ele>84.730003356934</ele>
        <time>2020-10-11T13:02:10Z</time>
      </trkpt>
      <trkpt lat="46.8703" lon="-1.04644">
        <ele>84.730003356934</ele>
        <time>2020-10-11T13:02:19Z</time>
      </trkpt>
      <trkpt lat="46.8703" lon="-1.04627">
        <ele>84.25</ele>
        <time>2020-10-11T13:02:28Z</time>
      </trkpt>
      <trkpt lat="46.87029" lon="-1.04611">
        <ele>83.769996643066</ele>
        <time>2020-10-11T13:02:37Z</time>
      </trkpt>
      <trkpt lat="46.87028" lon="-1.04594">
        <ele>83.769996643066</ele>
        <time>2020-10-11T13:02:46Z</time>
      </trkpt>
      <trkpt lat="46.87027" lon="-1.04576">
        <ele>83.290000915527</ele>
        <time>2020-10-11T13:02:55Z</time>
      </trkpt>
      <trkpt lat="46.87026" lon="-1.04558">
        <ele>82.809997558594</ele>
        <time>2020-10-11T13:03:04Z</time>
      </trkpt>
      <trkpt lat="46.87024" lon="-1.04542">
        <ele>82.809997558594</ele>
        <time>2020-10-11T13:03:12Z</time>
      </trkpt>
      <trkpt lat="46.87023" lon="-1.04526">
        <ele>82.330001831055</ele>
        <time>2020-10-11T13:03:20Z</time>
      </trkpt>
      <trkpt lat="46.87021" lon="-1.0451">
        <ele>82.330001831055</ele>
        <time>2020-10-11T13:03:29Z</time>
      </trkpt>
      <trkpt lat="46.87019" lon="-1.04495">
        <ele>82.330001831055</ele>
        <time>2020-10-11T13:03:37Z</time>
      </trkpt>
      <trkpt lat="46.87017" lon="-1.04479">
        <ele>81.849998474121</ele>
        <time>2020-10-11T13:03:46Z</time>
      </trkpt>
      <trkpt lat="46.87014" lon="-1.04461">
        <ele>81.370002746582</ele>
        <time>2020-10-11T13:03:56Z</time>
      </trkpt>
      <trkpt lat="46.87013" lon="-1.04443">
        <ele>80.889999389648</ele>
        <time>2020-10-11T13:04:05Z</time>
      </trkpt>
      <trkpt lat="46.8701" lon="-1.04425">
        <ele>80.889999389648</ele>
        <time>2020-10-11T13:04:14Z</time>
      </trkpt>
      <trkpt lat="46.87006" lon="-1.0441">
        <ele>80.889999389648</ele>
        <time>2020-10-11T13:04:22Z</time>
      </trkpt>
      <trkpt lat="46.87001" lon="-1.04398">
        <ele>80.889999389648</ele>
        <time>2020-10-11T13:04:30Z</time>
      </trkpt>
      <trkpt lat="46.86994" lon="-1.04385">
        <ele>80.889999389648</ele>
        <time>2020-10-11T13:04:38Z</time>
      </trkpt>
      <trkpt lat="46.86988" lon="-1.04372">
        <ele>81.370002746582</ele>
        <time>2020-10-11T13:04:46Z</time>
      </trkpt>
      <trkpt lat="46.86982" lon="-1.0436">
        <ele>82.330001831055</ele>
        <time>2020-10-11T13:04:54Z</time>
      </trkpt>
      <trkpt lat="46.86976" lon="-1.04348">
        <ele>82.809997558594</ele>
        <time>2020-10-11T13:05:02Z</time>
      </trkpt>
      <trkpt lat="46.86969" lon="-1.04335">
        <ele>83.290000915527</ele>
        <time>2020-10-11T13:05:10Z</time>
      </trkpt>
      <trkpt lat="46.86963" lon="-1.04322">
        <ele>83.769996643066</ele>
        <time>2020-10-11T13:05:18Z</time>
      </trkpt>
      <trkpt lat="46.86957" lon="-1.0431">
        <ele>84.25</ele>
        <time>2020-10-11T13:05:26Z</time>
      </trkpt>
      <trkpt lat="46.8695" lon="-1.04297">
        <ele>84.25</ele>
        <time>2020-10-11T13:05:34Z</time>
      </trkpt>
      <trkpt lat="46.86945" lon="-1.04284">
        <ele>84.730003356934</ele>
        <time>2020-10-11T13:05:43Z</time>
      </trkpt>
      <trkpt lat="46.86939" lon="-1.0427">
        <ele>85.209999084473</ele>
        <time>2020-10-11T13:05:52Z</time>
      </trkpt>
      <trkpt lat="46.86933" lon="-1.04259">
        <ele>85.209999084473</ele>
        <time>2020-10-11T13:06:01Z</time>
      </trkpt>
      <trkpt lat="46.86925" lon="-1.04246">
        <ele>85.690002441406</ele>
        <time>2020-10-11T13:06:11Z</time>
      </trkpt>
      <trkpt lat="46.8692" lon="-1.04234">
        <ele>85.690002441406</ele>
        <time>2020-10-11T13:06:19Z</time>
      </trkpt>
      <trkpt lat="46.86913" lon="-1.04219">
        <ele>86.180000305176</ele>
        <time>2020-10-11T13:06:28Z</time>
      </trkpt>
      <trkpt lat="46.86905" lon="-1.04205">
        <ele>86.180000305176</ele>
        <time>2020-10-11T13:06:36Z</time>
      </trkpt>
      <trkpt lat="46.86897" lon="-1.04195">
        <ele>86.180000305176</ele>
        <time>2020-10-11T13:06:44Z</time>
      </trkpt>
      <trkpt lat="46.86888" lon="-1.04189">
        <ele>86.180000305176</ele>
        <time>2020-10-11T13:06:53Z</time>
      </trkpt>
      <trkpt lat="46.86878" lon="-1.04185">
        <ele>86.180000305176</ele>
        <time>2020-10-11T13:07:00Z</time>
      </trkpt>
      <trkpt lat="46.86868" lon="-1.04182">
        <ele>86.180000305176</ele>
        <time>2020-10-11T13:07:09Z</time>
      </trkpt>
      <trkpt lat="46.86859" lon="-1.04171">
        <ele>86.660003662109</ele>
        <time>2020-10-11T13:07:23Z</time>
      </trkpt>
      <trkpt lat="46.86858" lon="-1.04152">
        <ele>86.660003662109</ele>
        <time>2020-10-11T13:07:34Z</time>
      </trkpt>
      <trkpt lat="46.86854" lon="-1.04136">
        <ele>86.660003662109</ele>
        <time>2020-10-11T13:07:44Z</time>
      </trkpt>
      <trkpt lat="46.86851" lon="-1.04121">
        <ele>86.660003662109</ele>
        <time>2020-10-11T13:07:54Z</time>
      </trkpt>
      <trkpt lat="46.86846" lon="-1.04107">
        <ele>87.139999389648</ele>
        <time>2020-10-11T13:08:03Z</time>
      </trkpt>
      <trkpt lat="46.86852" lon="-1.04095">
        <ele>85.690002441406</ele>
        <time>2020-10-11T13:08:10Z</time>
      </trkpt>
      <trkpt lat="46.86859" lon="-1.04085">
        <ele>85.690002441406</ele>
        <time>2020-10-11T13:08:18Z</time>
      </trkpt>
      <trkpt lat="46.86868" lon="-1.04078">
        <ele>85.209999084473</ele>
        <time>2020-10-11T13:08:26Z</time>
      </trkpt>
      <trkpt lat="46.86877" lon="-1.0407">
        <ele>85.209999084473</ele>
        <time>2020-10-11T13:08:35Z</time>
      </trkpt>
      <trkpt lat="46.86887" lon="-1.04063">
        <ele>85.209999084473</ele>
        <time>2020-10-11T13:08:43Z</time>
      </trkpt>
      <trkpt lat="46.86897" lon="-1.04055">
        <ele>84.730003356934</ele>
        <time>2020-10-11T13:08:52Z</time>
      </trkpt>
      <trkpt lat="46.86905" lon="-1.04043">
        <ele>84.25</ele>
        <time>2020-10-11T13:09:01Z</time>
      </trkpt>
      <trkpt lat="46.86913" lon="-1.0403">
        <ele>83.769996643066</ele>
        <time>2020-10-11T13:09:09Z</time>
      </trkpt>
      <trkpt lat="46.86918" lon="-1.04015">
        <ele>83.769996643066</ele>
        <time>2020-10-11T13:09:17Z</time>
      </trkpt>
      <trkpt lat="46.86922" lon="-1.03998">
        <ele>83.769996643066</ele>
        <time>2020-10-11T13:09:24Z</time>
      </trkpt>
      <trkpt lat="46.86927" lon="-1.03983">
        <ele>84.25</ele>
        <time>2020-10-11T13:09:32Z</time>
      </trkpt>
      <trkpt lat="46.86932" lon="-1.0397">
        <ele>83.769996643066</ele>
        <time>2020-10-11T13:09:40Z</time>
      </trkpt>
      <trkpt lat="46.86937" lon="-1.03957">
        <ele>83.290000915527</ele>
        <time>2020-10-11T13:09:48Z</time>
      </trkpt>
      <trkpt lat="46.86942" lon="-1.03943">
        <ele>82.809997558594</ele>
        <time>2020-10-11T13:09:56Z</time>
      </trkpt>
      <trkpt lat="46.86947" lon="-1.03933">
        <ele>82.809997558594</ele>
        <time>2020-10-11T13:10:04Z</time>
      </trkpt>
      <trkpt lat="46.86954" lon="-1.03921">
        <ele>82.809997558594</ele>
        <time>2020-10-11T13:10:14Z</time>
      </trkpt>
      <trkpt lat="46.86961" lon="-1.03913">
        <ele>82.330001831055</ele>
        <time>2020-10-11T13:10:23Z</time>
      </trkpt>
      <trkpt lat="46.86969" lon="-1.03904">
        <ele>82.330001831055</ele>
        <time>2020-10-11T13:10:32Z</time>
      </trkpt>
      <trkpt lat="46.86977" lon="-1.03892">
        <ele>81.849998474121</ele>
        <time>2020-10-11T13:10:47Z</time>
      </trkpt>
      <trkpt lat="46.86974" lon="-1.03872">
        <ele>82.330001831055</ele>
        <time>2020-10-11T13:11:02Z</time>
      </trkpt>
      <trkpt lat="46.86986" lon="-1.03837">
        <ele>81.849998474121</ele>
        <time>2020-10-11T13:11:28Z</time>
      </trkpt>
      <trkpt lat="46.86996" lon="-1.03808">
        <ele>81.370002746582</ele>
        <time>2020-10-11T13:11:46Z</time>
      </trkpt>
      <trkpt lat="46.87002" lon="-1.03792">
        <ele>81.370002746582</ele>
        <time>2020-10-11T13:11:56Z</time>
      </trkpt>
      <trkpt lat="46.87006" lon="-1.03773">
        <ele>80.889999389648</ele>
        <time>2020-10-11T13:12:06Z</time>
      </trkpt>
      <trkpt lat="46.87006" lon="-1.03722">
        <ele>80.410003662109</ele>
        <time>2020-10-11T13:12:32Z</time>
      </trkpt>
      <trkpt lat="46.87007" lon="-1.03687">
        <ele>80.410003662109</ele>
        <time>2020-10-11T13:12:53Z</time>
      </trkpt>
      <trkpt lat="46.87005" lon="-1.03644">
        <ele>80.410003662109</ele>
        <time>2020-10-11T13:13:17Z</time>
      </trkpt>
      <trkpt lat="46.87006" lon="-1.03624">
        <ele>80.410003662109</ele>
        <time>2020-10-11T13:13:28Z</time>
      </trkpt>
      <trkpt lat="46.86948" lon="-1.0349">
        <ele>80.889999389648</ele>
        <time>2020-10-11T13:15:08Z</time>
      </trkpt>
      <trkpt lat="46.86943" lon="-1.03461">
        <ele>81.370002746582</ele>
        <time>2020-10-11T13:15:18Z</time>
      </trkpt>
      <trkpt lat="46.86942" lon="-1.03441">
        <ele>81.370002746582</ele>
        <time>2020-10-11T13:15:28Z</time>
      </trkpt>
      <trkpt lat="46.86941" lon="-1.0342">
        <ele>81.370002746582</ele>
        <time>2020-10-11T13:15:39Z</time>
      </trkpt>
      <trkpt lat="46.8694" lon="-1.03403">
        <ele>81.849998474121</ele>
        <time>2020-10-11T13:15:49Z</time>
      </trkpt>
      <trkpt lat="46.86939" lon="-1.03383">
        <ele>82.330001831055</ele>
        <time>2020-10-11T13:15:59Z</time>
      </trkpt>
      <trkpt lat="46.86937" lon="-1.03367">
        <ele>82.809997558594</ele>
        <time>2020-10-11T13:16:08Z</time>
      </trkpt>
      <trkpt lat="46.86935" lon="-1.03348">
        <ele>82.809997558594</ele>
        <time>2020-10-11T13:16:18Z</time>
      </trkpt>
      <trkpt lat="46.86932" lon="-1.0333">
        <ele>83.290000915527</ele>
        <time>2020-10-11T13:16:28Z</time>
      </trkpt>
      <trkpt lat="46.86931" lon="-1.03312">
        <ele>83.290000915527</ele>
        <time>2020-10-11T13:16:37Z</time>
      </trkpt>
      <trkpt lat="46.8693" lon="-1.0329">
        <ele>83.290000915527</ele>
        <time>2020-10-11T13:16:51Z</time>
      </trkpt>
      <trkpt lat="46.86929" lon="-1.03271">
        <ele>83.769996643066</ele>
        <time>2020-10-11T13:17:01Z</time>
      </trkpt>
      <trkpt lat="46.86928" lon="-1.03255">
        <ele>83.769996643066</ele>
        <time>2020-10-11T13:17:11Z</time>
      </trkpt>
      <trkpt lat="46.86928" lon="-1.03223">
        <ele>83.769996643066</ele>
        <time>2020-10-11T13:17:30Z</time>
      </trkpt>
      <trkpt lat="46.86926" lon="-1.03199">
        <ele>84.25</ele>
        <time>2020-10-11T13:17:43Z</time>
      </trkpt>
      <trkpt lat="46.86925" lon="-1.03142">
        <ele>84.730003356934</ele>
        <time>2020-10-11T13:18:10Z</time>
      </trkpt>
      <trkpt lat="46.86931" lon="-1.03128">
        <ele>84.730003356934</ele>
        <time>2020-10-11T13:18:20Z</time>
      </trkpt>
      <trkpt lat="46.86942" lon="-1.03119">
        <ele>85.209999084473</ele>
        <time>2020-10-11T13:18:33Z</time>
      </trkpt>
      <trkpt lat="46.86953" lon="-1.0311">
        <ele>85.209999084473</ele>
        <time>2020-10-11T13:18:44Z</time>
      </trkpt>
      <trkpt lat="46.86964" lon="-1.03101">
        <ele>85.209999084473</ele>
        <time>2020-10-11T13:18:52Z</time>
      </trkpt>
      <trkpt lat="46.86975" lon="-1.03094">
        <ele>85.209999084473</ele>
        <time>2020-10-11T13:19:03Z</time>
      </trkpt>
      <trkpt lat="46.87062" lon="-1.03064">
        <ele>82.809997558594</ele>
        <time>2020-10-11T13:20:27Z</time>
      </trkpt>
      <trkpt lat="46.87067" lon="-1.03049">
        <ele>82.809997558594</ele>
        <time>2020-10-11T13:20:37Z</time>
      </trkpt>
      <trkpt lat="46.87069" lon="-1.03035">
        <ele>82.809997558594</ele>
        <time>2020-10-11T13:20:46Z</time>
      </trkpt>
      <trkpt lat="46.87071" lon="-1.03015">
        <ele>82.809997558594</ele>
        <time>2020-10-11T13:20:58Z</time>
      </trkpt>
      <trkpt lat="46.87074" lon="-1.02999">
        <ele>83.769996643066</ele>
        <time>2020-10-11T13:21:06Z</time>
      </trkpt>
      <trkpt lat="46.87078" lon="-1.02985">
        <ele>83.769996643066</ele>
        <time>2020-10-11T13:21:14Z</time>
      </trkpt>
      <trkpt lat="46.87083" lon="-1.02971">
        <ele>83.769996643066</ele>
        <time>2020-10-11T13:21:23Z</time>
      </trkpt>
      <trkpt lat="46.87085" lon="-1.02948">
        <ele>83.769996643066</ele>
        <time>2020-10-11T13:21:39Z</time>
      </trkpt>
      <trkpt lat="46.87082" lon="-1.02926">
        <ele>84.25</ele>
        <time>2020-10-11T13:21:52Z</time>
      </trkpt>
      <trkpt lat="46.87071" lon="-1.02898">
        <ele>84.25</ele>
        <time>2020-10-11T13:22:14Z</time>
      </trkpt>
      <trkpt lat="46.87062" lon="-1.02876">
        <ele>84.25</ele>
        <time>2020-10-11T13:22:29Z</time>
      </trkpt>
      <trkpt lat="46.87053" lon="-1.02862">
        <ele>84.25</ele>
        <time>2020-10-11T13:22:42Z</time>
      </trkpt>
      <trkpt lat="46.87045" lon="-1.02852">
        <ele>84.25</ele>
        <time>2020-10-11T13:22:51Z</time>
      </trkpt>
      <trkpt lat="46.87038" lon="-1.02836">
        <ele>84.25</ele>
        <time>2020-10-11T13:23:03Z</time>
      </trkpt>
      <trkpt lat="46.8703" lon="-1.02771">
        <ele>82.809997558594</ele>
        <time>2020-10-11T13:23:52Z</time>
      </trkpt>
      <trkpt lat="46.87039" lon="-1.02767">
        <ele>82.809997558594</ele>
        <time>2020-10-11T13:24:01Z</time>
      </trkpt>
      <trkpt lat="46.87048" lon="-1.02762">
        <ele>82.809997558594</ele>
        <time>2020-10-11T13:24:11Z</time>
      </trkpt>
      <trkpt lat="46.87056" lon="-1.02756">
        <ele>82.809997558594</ele>
        <time>2020-10-11T13:24:20Z</time>
      </trkpt>
      <trkpt lat="46.87067" lon="-1.02751">
        <ele>84.25</ele>
        <time>2020-10-11T13:24:35Z</time>
      </trkpt>
      <trkpt lat="46.87081" lon="-1.02747">
        <ele>84.25</ele>
        <time>2020-10-11T13:24:45Z</time>
      </trkpt>
      <trkpt lat="46.87092" lon="-1.02742">
        <ele>84.730003356934</ele>
        <time>2020-10-11T13:24:55Z</time>
      </trkpt>
      <trkpt lat="46.87104" lon="-1.02737">
        <ele>84.730003356934</ele>
        <time>2020-10-11T13:25:04Z</time>
      </trkpt>
      <trkpt lat="46.87116" lon="-1.02733">
        <ele>85.209999084473</ele>
        <time>2020-10-11T13:25:13Z</time>
      </trkpt>
      <trkpt lat="46.87125" lon="-1.02719">
        <ele>86.180000305176</ele>
        <time>2020-10-11T13:25:32Z</time>
      </trkpt>
      <trkpt lat="46.87124" lon="-1.02703">
        <ele>86.180000305176</ele>
        <time>2020-10-11T13:25:42Z</time>
      </trkpt>
      <trkpt lat="46.87124" lon="-1.02688">
        <ele>86.180000305176</ele>
        <time>2020-10-11T13:25:51Z</time>
      </trkpt>
      <trkpt lat="46.87122" lon="-1.02672">
        <ele>86.660003662109</ele>
        <time>2020-10-11T13:26:01Z</time>
      </trkpt>
      <trkpt lat="46.87119" lon="-1.02656">
        <ele>86.660003662109</ele>
        <time>2020-10-11T13:26:10Z</time>
      </trkpt>
      <trkpt lat="46.87116" lon="-1.0264">
        <ele>87.139999389648</ele>
        <time>2020-10-11T13:26:19Z</time>
      </trkpt>
      <trkpt lat="46.87114" lon="-1.02624">
        <ele>87.139999389648</ele>
        <time>2020-10-11T13:26:28Z</time>
      </trkpt>
      <trkpt lat="46.87108" lon="-1.02611">
        <ele>87.139999389648</ele>
        <time>2020-10-11T13:26:38Z</time>
      </trkpt>
      <trkpt lat="46.87103" lon="-1.02597">
        <ele>87.620002746582</ele>
        <time>2020-10-11T13:26:48Z</time>
      </trkpt>
      <trkpt lat="46.87098" lon="-1.02584">
        <ele>88.099998474121</ele>
        <time>2020-10-11T13:26:57Z</time>
      </trkpt>
      <trkpt lat="46.87093" lon="-1.02569">
        <ele>88.580001831055</ele>
        <time>2020-10-11T13:27:07Z</time>
      </trkpt>
      <trkpt lat="46.87087" lon="-1.02556">
        <ele>88.580001831055</ele>
        <time>2020-10-11T13:27:16Z</time>
      </trkpt>
      <trkpt lat="46.87079" lon="-1.02541">
        <ele>89.059997558594</ele>
        <time>2020-10-11T13:27:27Z</time>
      </trkpt>
      <trkpt lat="46.87073" lon="-1.02529">
        <ele>89.059997558594</ele>
        <time>2020-10-11T13:27:35Z</time>
      </trkpt>
      <trkpt lat="46.87067" lon="-1.02515">
        <ele>89.059997558594</ele>
        <time>2020-10-11T13:27:43Z</time>
      </trkpt>
      <trkpt lat="46.87063" lon="-1.02497">
        <ele>89.540000915527</ele>
        <time>2020-10-11T13:27:52Z</time>
      </trkpt>
      <trkpt lat="46.87057" lon="-1.02482">
        <ele>90.019996643066</ele>
        <time>2020-10-11T13:28:02Z</time>
      </trkpt>
      <trkpt lat="46.87053" lon="-1.02467">
        <ele>90.019996643066</ele>
        <time>2020-10-11T13:28:11Z</time>
      </trkpt>
      <trkpt lat="46.87046" lon="-1.02453">
        <ele>90.980003356934</ele>
        <time>2020-10-11T13:28:21Z</time>
      </trkpt>
      <trkpt lat="46.87041" lon="-1.02439">
        <ele>90.980003356934</ele>
        <time>2020-10-11T13:28:30Z</time>
      </trkpt>
      <trkpt lat="46.87037" lon="-1.02422">
        <ele>91.459999084473</ele>
        <time>2020-10-11T13:28:40Z</time>
      </trkpt>
      <trkpt lat="46.87032" lon="-1.02406">
        <ele>91.940002441406</ele>
        <time>2020-10-11T13:28:48Z</time>
      </trkpt>
      <trkpt lat="46.87029" lon="-1.02391">
        <ele>91.940002441406</ele>
        <time>2020-10-11T13:28:58Z</time>
      </trkpt>
      <trkpt lat="46.87026" lon="-1.02376">
        <ele>92.900001525879</ele>
        <time>2020-10-11T13:29:08Z</time>
      </trkpt>
      <trkpt lat="46.87024" lon="-1.02363">
        <ele>93.389999389648</ele>
        <time>2020-10-11T13:29:17Z</time>
      </trkpt>
      <trkpt lat="46.87021" lon="-1.02348">
        <ele>93.389999389648</ele>
        <time>2020-10-11T13:29:26Z</time>
      </trkpt>
      <trkpt lat="46.87018" lon="-1.02333">
        <ele>93.870002746582</ele>
        <time>2020-10-11T13:29:35Z</time>
      </trkpt>
      <trkpt lat="46.87016" lon="-1.02318">
        <ele>93.870002746582</ele>
        <time>2020-10-11T13:29:47Z</time>
      </trkpt>
      <trkpt lat="46.87013" lon="-1.02299">
        <ele>94.349998474121</ele>
        <time>2020-10-11T13:30:04Z</time>
      </trkpt>
      <trkpt lat="46.87011" lon="-1.02283">
        <ele>95.309997558594</ele>
        <time>2020-10-11T13:30:14Z</time>
      </trkpt>
      <trkpt lat="46.87008" lon="-1.02269">
        <ele>95.309997558594</ele>
        <time>2020-10-11T13:30:23Z</time>
      </trkpt>
      <trkpt lat="46.87007" lon="-1.02252">
        <ele>95.309997558594</ele>
        <time>2020-10-11T13:30:32Z</time>
      </trkpt>
      <trkpt lat="46.87006" lon="-1.02237">
        <ele>95.790000915527</ele>
        <time>2020-10-11T13:30:42Z</time>
      </trkpt>
      <trkpt lat="46.87003" lon="-1.02221">
        <ele>96.269996643066</ele>
        <time>2020-10-11T13:30:52Z</time>
      </trkpt>
      <trkpt lat="46.87003" lon="-1.02207">
        <ele>96.269996643066</ele>
        <time>2020-10-11T13:31:00Z</time>
      </trkpt>
      <trkpt lat="46.87004" lon="-1.02189">
        <ele>96.75</ele>
        <time>2020-10-11T13:31:11Z</time>
      </trkpt>
      <trkpt lat="46.87005" lon="-1.02172">
        <ele>97.230003356934</ele>
        <time>2020-10-11T13:31:21Z</time>
      </trkpt>
      <trkpt lat="46.87008" lon="-1.02156">
        <ele>97.709999084473</ele>
        <time>2020-10-11T13:31:29Z</time>
      </trkpt>
      <trkpt lat="46.87011" lon="-1.02137">
        <ele>98.190002441406</ele>
        <time>2020-10-11T13:31:40Z</time>
      </trkpt>
      <trkpt lat="46.87013" lon="-1.02119">
        <ele>98.190002441406</ele>
        <time>2020-10-11T13:31:49Z</time>
      </trkpt>
      <trkpt lat="46.87019" lon="-1.021">
        <ele>98.190002441406</ele>
        <time>2020-10-11T13:32:07Z</time>
      </trkpt>
      <trkpt lat="46.87018" lon="-1.02079">
        <ele>98.669998168945</ele>
        <time>2020-10-11T13:32:19Z</time>
      </trkpt>
      <trkpt lat="46.87025" lon="-1.02063">
        <ele>98.669998168945</ele>
        <time>2020-10-11T13:32:31Z</time>
      </trkpt>
      <trkpt lat="46.87028" lon="-1.0205">
        <ele>99.150001525879</ele>
        <time>2020-10-11T13:32:40Z</time>
      </trkpt>
      <trkpt lat="46.87031" lon="-1.02035">
        <ele>99.150001525879</ele>
        <time>2020-10-11T13:32:49Z</time>
      </trkpt>
      <trkpt lat="46.87031" lon="-1.02012">
        <ele>99.150001525879</ele>
        <time>2020-10-11T13:33:02Z</time>
      </trkpt>
      <trkpt lat="46.87032" lon="-1.01982">
        <ele>99.629997253418</ele>
        <time>2020-10-11T13:33:19Z</time>
      </trkpt>
      <trkpt lat="46.87036" lon="-1.01957">
        <ele>99.629997253418</ele>
        <time>2020-10-11T13:33:31Z</time>
      </trkpt>
      <trkpt lat="46.8704" lon="-1.01944">
        <ele>100.11000061035</ele>
        <time>2020-10-11T13:33:40Z</time>
      </trkpt>
      <trkpt lat="46.87043" lon="-1.0193">
        <ele>100.11000061035</ele>
        <time>2020-10-11T13:33:50Z</time>
      </trkpt>
      <trkpt lat="46.8705" lon="-1.01893">
        <ele>100.59999847412</ele>
        <time>2020-10-11T13:34:21Z</time>
      </trkpt>
      <trkpt lat="46.87054" lon="-1.01874">
        <ele>100.59999847412</ele>
        <time>2020-10-11T13:34:33Z</time>
      </trkpt>
      <trkpt lat="46.87058" lon="-1.01853">
        <ele>101.08000183106</ele>
        <time>2020-10-11T13:34:48Z</time>
      </trkpt>
      <trkpt lat="46.87061" lon="-1.0183">
        <ele>101.08000183106</ele>
        <time>2020-10-11T13:35:02Z</time>
      </trkpt>
      <trkpt lat="46.87064" lon="-1.0181">
        <ele>101.08000183106</ele>
        <time>2020-10-11T13:35:11Z</time>
      </trkpt>
      <trkpt lat="46.87067" lon="-1.01792">
        <ele>101.08000183106</ele>
        <time>2020-10-11T13:35:20Z</time>
      </trkpt>
      <trkpt lat="46.8707" lon="-1.01777">
        <ele>101.08000183106</ele>
        <time>2020-10-11T13:35:29Z</time>
      </trkpt>
      <trkpt lat="46.87074" lon="-1.01761">
        <ele>100.59999847412</ele>
        <time>2020-10-11T13:35:38Z</time>
      </trkpt>
      <trkpt lat="46.87076" lon="-1.01745">
        <ele>100.59999847412</ele>
        <time>2020-10-11T13:35:46Z</time>
      </trkpt>
      <trkpt lat="46.87082" lon="-1.01732">
        <ele>100.59999847412</ele>
        <time>2020-10-11T13:35:56Z</time>
      </trkpt>
      <trkpt lat="46.8709" lon="-1.01705">
        <ele>100.59999847412</ele>
        <time>2020-10-11T13:36:17Z</time>
      </trkpt>
      <trkpt lat="46.87087" lon="-1.01677">
        <ele>100.59999847412</ele>
        <time>2020-10-11T13:36:27Z</time>
      </trkpt>
      <trkpt lat="46.8709" lon="-1.01661">
        <ele>99.629997253418</ele>
        <time>2020-10-11T13:36:36Z</time>
      </trkpt>
      <trkpt lat="46.8709" lon="-1.01642">
        <ele>99.150001525879</ele>
        <time>2020-10-11T13:36:51Z</time>
      </trkpt>
      <trkpt lat="46.87091" lon="-1.01626">
        <ele>99.150001525879</ele>
        <time>2020-10-11T13:37:00Z</time>
      </trkpt>
      <trkpt lat="46.87094" lon="-1.01609">
        <ele>98.669998168945</ele>
        <time>2020-10-11T13:37:12Z</time>
      </trkpt>
      <trkpt lat="46.87095" lon="-1.01589">
        <ele>98.190002441406</ele>
        <time>2020-10-11T13:37:22Z</time>
      </trkpt>
      <trkpt lat="46.871" lon="-1.01573">
        <ele>97.709999084473</ele>
        <time>2020-10-11T13:37:33Z</time>
      </trkpt>
      <trkpt lat="46.87104" lon="-1.01556">
        <ele>97.709999084473</ele>
        <time>2020-10-11T13:37:42Z</time>
      </trkpt>
      <trkpt lat="46.87108" lon="-1.0154">
        <ele>97.230003356934</ele>
        <time>2020-10-11T13:37:52Z</time>
      </trkpt>
      <trkpt lat="46.87109" lon="-1.01513">
        <ele>97.709999084473</ele>
        <time>2020-10-11T13:38:06Z</time>
      </trkpt>
      <trkpt lat="46.8711" lon="-1.01487">
        <ele>97.709999084473</ele>
        <time>2020-10-11T13:38:22Z</time>
      </trkpt>
      <trkpt lat="46.87112" lon="-1.01471">
        <ele>97.230003356934</ele>
        <time>2020-10-11T13:38:32Z</time>
      </trkpt>
      <trkpt lat="46.87113" lon="-1.01446">
        <ele>97.230003356934</ele>
        <time>2020-10-11T13:38:45Z</time>
      </trkpt>
      <trkpt lat="46.87112" lon="-1.01427">
        <ele>96.75</ele>
        <time>2020-10-11T13:38:53Z</time>
      </trkpt>
      <trkpt lat="46.87111" lon="-1.01411">
        <ele>96.75</ele>
        <time>2020-10-11T13:39:03Z</time>
      </trkpt>
      <trkpt lat="46.87113" lon="-1.01396">
        <ele>96.75</ele>
        <time>2020-10-11T13:39:13Z</time>
      </trkpt>
      <trkpt lat="46.87115" lon="-1.01381">
        <ele>96.269996643066</ele>
        <time>2020-10-11T13:39:22Z</time>
      </trkpt>
      <trkpt lat="46.87114" lon="-1.01367">
        <ele>96.269996643066</ele>
        <time>2020-10-11T13:39:30Z</time>
      </trkpt>
      <trkpt lat="46.87116" lon="-1.01341">
        <ele>96.269996643066</ele>
        <time>2020-10-11T13:39:43Z</time>
      </trkpt>
      <trkpt lat="46.87063" lon="-1.01297">
        <ele>94.349998474121</ele>
        <time>2020-10-11T13:41:09Z</time>
      </trkpt>
      <trkpt lat="46.8706" lon="-1.01281">
        <ele>93.870002746582</ele>
        <time>2020-10-11T13:41:20Z</time>
      </trkpt>
      <trkpt lat="46.87059" lon="-1.01271">
        <ele>93.870002746582</ele>
        <time>2020-10-11T13:42:08Z</time>
      </trkpt>
      <trkpt lat="46.87058" lon="-1.01256">
        <ele>93.870002746582</ele>
        <time>2020-10-11T13:42:18Z</time>
      </trkpt>
      <trkpt lat="46.87036" lon="-1.01247">
        <ele>92.900001525879</ele>
        <time>2020-10-11T13:42:47Z</time>
      </trkpt>
      <trkpt lat="46.87021" lon="-1.01217">
        <ele>92.419998168945</ele>
        <time>2020-10-11T13:43:53Z</time>
      </trkpt>
      <trkpt lat="46.87017" lon="-1.01205">
        <ele>92.419998168945</ele>
        <time>2020-10-11T13:44:07Z</time>
      </trkpt>
      <trkpt lat="46.87007" lon="-1.01196">
        <ele>94.830001831055</ele>
        <time>2020-10-11T13:44:20Z</time>
      </trkpt>
      <trkpt lat="46.87008" lon="-1.01179">
        <ele>94.349998474121</ele>
        <time>2020-10-11T13:44:31Z</time>
      </trkpt>
      <trkpt lat="46.87009" lon="-1.01162">
        <ele>94.349998474121</ele>
        <time>2020-10-11T13:44:40Z</time>
      </trkpt>
      <trkpt lat="46.87012" lon="-1.01148">
        <ele>94.349998474121</ele>
        <time>2020-10-11T13:44:48Z</time>
      </trkpt>
      <trkpt lat="46.87017" lon="-1.01136">
        <ele>94.349998474121</ele>
        <time>2020-10-11T13:44:56Z</time>
      </trkpt>
      <trkpt lat="46.87024" lon="-1.01126">
        <ele>94.830001831055</ele>
        <time>2020-10-11T13:45:05Z</time>
      </trkpt>
      <trkpt lat="46.87035" lon="-1.01122">
        <ele>94.830001831055</ele>
        <time>2020-10-11T13:47:14Z</time>
      </trkpt>
    </trkseg>
  </trk>
</gpx>